<?xml version="1.0" encoding="UTF-8" standalone="no" ?>
<gpx xmlns="http://www.topografix.com/GPX/1/1" xmlns:xsi="http://www.w3.org/2001/XMLSchema-instance" xsi:schemaLocation="http://www.topografix.com/GPX/1/1 http://www.topografix.com/GPX/1/1/gpx.xsd" version="1.1" creator="VisuGPX - https://www.visugpx.com">
  <metadata>
    <name>13693567-balade covins</name>
  </metadata>
  <trk>
    <name><![CDATA[13693567-balade covins]]></name>
    <trkseg>
      <trkpt lat="45.42589" lon="4.69631">
        <ele>377</ele>
        <time>2021-09-11T20:30:37Z</time>
      </trkpt>
      <trkpt lat="45.42609" lon="4.69675">
        <ele>379</ele>
        <time>2021-09-11T20:30:44Z</time>
      </trkpt>
      <trkpt lat="45.4262" lon="4.69712">
        <ele>380</ele>
        <time>2021-09-11T20:30:49Z</time>
      </trkpt>
      <trkpt lat="45.42623" lon="4.69726">
        <ele>380</ele>
        <time>2021-09-11T20:30:50Z</time>
      </trkpt>
      <trkpt lat="45.42628" lon="4.69794">
        <ele>379</ele>
        <time>2021-09-11T20:30:59Z</time>
      </trkpt>
      <trkpt lat="45.42625" lon="4.69807">
        <ele>379</ele>
        <time>2021-09-11T20:31:01Z</time>
      </trkpt>
      <trkpt lat="45.4261" lon="4.69851">
        <ele>377</ele>
        <time>2021-09-11T20:31:07Z</time>
      </trkpt>
      <trkpt lat="45.42591" lon="4.69889">
        <ele>376</ele>
        <time>2021-09-11T20:31:13Z</time>
      </trkpt>
      <trkpt lat="45.42585" lon="4.69924">
        <ele>375</ele>
        <time>2021-09-11T20:31:17Z</time>
      </trkpt>
      <trkpt lat="45.42576" lon="4.69901">
        <ele>375</ele>
        <time>2021-09-11T20:31:20Z</time>
      </trkpt>
      <trkpt lat="45.4253" lon="4.6976">
        <ele>367</ele>
        <time>2021-09-11T20:31:40Z</time>
      </trkpt>
      <trkpt lat="45.42515" lon="4.69548">
        <ele>356</ele>
        <time>2021-09-11T20:32:06Z</time>
      </trkpt>
      <trkpt lat="45.42509" lon="4.69505">
        <ele>357</ele>
        <time>2021-09-11T20:32:12Z</time>
      </trkpt>
      <trkpt lat="45.42497" lon="4.69449">
        <ele>355</ele>
        <time>2021-09-11T20:32:19Z</time>
      </trkpt>
      <trkpt lat="45.42497" lon="4.69421">
        <ele>355</ele>
        <time>2021-09-11T20:32:23Z</time>
      </trkpt>
      <trkpt lat="45.42503" lon="4.69398">
        <ele>354</ele>
        <time>2021-09-11T20:32:26Z</time>
      </trkpt>
      <trkpt lat="45.42517" lon="4.69383">
        <ele>355</ele>
        <time>2021-09-11T20:32:29Z</time>
      </trkpt>
      <trkpt lat="45.42533" lon="4.69369">
        <ele>357</ele>
        <time>2021-09-11T20:32:32Z</time>
      </trkpt>
      <trkpt lat="45.4254" lon="4.69353">
        <ele>357</ele>
        <time>2021-09-11T20:32:35Z</time>
      </trkpt>
      <trkpt lat="45.42542" lon="4.69327">
        <ele>356</ele>
        <time>2021-09-11T20:32:38Z</time>
      </trkpt>
      <trkpt lat="45.4254" lon="4.69299">
        <ele>356</ele>
        <time>2021-09-11T20:32:41Z</time>
      </trkpt>
      <trkpt lat="45.42532" lon="4.69281">
        <ele>354</ele>
        <time>2021-09-11T20:32:44Z</time>
      </trkpt>
      <trkpt lat="45.42506" lon="4.6924">
        <ele>348</ele>
        <time>2021-09-11T20:32:51Z</time>
      </trkpt>
      <trkpt lat="45.42488" lon="4.6919">
        <ele>350</ele>
        <time>2021-09-11T20:32:58Z</time>
      </trkpt>
      <trkpt lat="45.42474" lon="4.6914">
        <ele>352</ele>
        <time>2021-09-11T20:33:05Z</time>
      </trkpt>
      <trkpt lat="45.42466" lon="4.6907">
        <ele>352</ele>
        <time>2021-09-11T20:33:13Z</time>
      </trkpt>
      <trkpt lat="45.42463" lon="4.69037">
        <ele>352</ele>
        <time>2021-09-11T20:33:18Z</time>
      </trkpt>
      <trkpt lat="45.42452" lon="4.68993">
        <ele>350</ele>
        <time>2021-09-11T20:33:23Z</time>
      </trkpt>
      <trkpt lat="45.42447" lon="4.68968">
        <ele>348</ele>
        <time>2021-09-11T20:33:27Z</time>
      </trkpt>
      <trkpt lat="45.42453" lon="4.68904">
        <ele>349</ele>
        <time>2021-09-11T20:33:35Z</time>
      </trkpt>
      <trkpt lat="45.42453" lon="4.68883">
        <ele>349</ele>
        <time>2021-09-11T20:33:37Z</time>
      </trkpt>
      <trkpt lat="45.42449" lon="4.68865">
        <ele>348</ele>
        <time>2021-09-11T20:33:40Z</time>
      </trkpt>
      <trkpt lat="45.42416" lon="4.68822">
        <ele>345</ele>
        <time>2021-09-11T20:33:48Z</time>
      </trkpt>
      <trkpt lat="45.42406" lon="4.68819">
        <ele>348</ele>
        <time>2021-09-11T20:33:50Z</time>
      </trkpt>
      <trkpt lat="45.42394" lon="4.6882">
        <ele>350</ele>
        <time>2021-09-11T20:33:52Z</time>
      </trkpt>
      <trkpt lat="45.42383" lon="4.68832">
        <ele>351</ele>
        <time>2021-09-11T20:33:54Z</time>
      </trkpt>
      <trkpt lat="45.42364" lon="4.68887">
        <ele>352</ele>
        <time>2021-09-11T20:34:02Z</time>
      </trkpt>
      <trkpt lat="45.42362" lon="4.68913">
        <ele>350</ele>
        <time>2021-09-11T20:34:05Z</time>
      </trkpt>
      <trkpt lat="45.42365" lon="4.68951">
        <ele>351</ele>
        <time>2021-09-11T20:34:10Z</time>
      </trkpt>
      <trkpt lat="45.42372" lon="4.68989">
        <ele>351</ele>
        <time>2021-09-11T20:34:15Z</time>
      </trkpt>
      <trkpt lat="45.42386" lon="4.69049">
        <ele>350</ele>
        <time>2021-09-11T20:34:23Z</time>
      </trkpt>
      <trkpt lat="45.42387" lon="4.69073">
        <ele>351</ele>
        <time>2021-09-11T20:34:26Z</time>
      </trkpt>
      <trkpt lat="45.42372" lon="4.6918">
        <ele>355</ele>
        <time>2021-09-11T20:34:39Z</time>
      </trkpt>
      <trkpt lat="45.42357" lon="4.69212">
        <ele>357</ele>
        <time>2021-09-11T20:34:44Z</time>
      </trkpt>
      <trkpt lat="45.42333" lon="4.69237">
        <ele>360</ele>
        <time>2021-09-11T20:34:49Z</time>
      </trkpt>
      <trkpt lat="45.42308" lon="4.6925">
        <ele>362</ele>
        <time>2021-09-11T20:34:54Z</time>
      </trkpt>
      <trkpt lat="45.42278" lon="4.69252">
        <ele>364</ele>
        <time>2021-09-11T20:34:59Z</time>
      </trkpt>
      <trkpt lat="45.42217" lon="4.69246">
        <ele>368</ele>
        <time>2021-09-11T20:35:10Z</time>
      </trkpt>
      <trkpt lat="45.42201" lon="4.69234">
        <ele>370</ele>
        <time>2021-09-11T20:35:14Z</time>
      </trkpt>
      <trkpt lat="45.42188" lon="4.69205">
        <ele>372</ele>
        <time>2021-09-11T20:35:18Z</time>
      </trkpt>
      <trkpt lat="45.42168" lon="4.69115">
        <ele>375</ele>
        <time>2021-09-11T20:35:30Z</time>
      </trkpt>
      <trkpt lat="45.4216" lon="4.69098">
        <ele>376</ele>
        <time>2021-09-11T20:35:32Z</time>
      </trkpt>
      <trkpt lat="45.42146" lon="4.6909">
        <ele>377</ele>
        <time>2021-09-11T20:35:35Z</time>
      </trkpt>
      <trkpt lat="45.42058" lon="4.69062">
        <ele>380</ele>
        <time>2021-09-11T20:35:51Z</time>
      </trkpt>
      <trkpt lat="45.42019" lon="4.69043">
        <ele>382</ele>
        <time>2021-09-11T20:35:58Z</time>
      </trkpt>
      <trkpt lat="45.42019" lon="4.69032">
        <ele>382</ele>
        <time>2021-09-11T20:36:00Z</time>
      </trkpt>
      <trkpt lat="45.42016" lon="4.69026">
        <ele>382</ele>
        <time>2021-09-11T20:36:01Z</time>
      </trkpt>
      <trkpt lat="45.42011" lon="4.69023">
        <ele>383</ele>
        <time>2021-09-11T20:36:02Z</time>
      </trkpt>
      <trkpt lat="45.42004" lon="4.69025">
        <ele>383</ele>
        <time>2021-09-11T20:36:03Z</time>
      </trkpt>
      <trkpt lat="45.42" lon="4.69032">
        <ele>382</ele>
        <time>2021-09-11T20:36:04Z</time>
      </trkpt>
      <trkpt lat="45.42" lon="4.69044">
        <ele>382</ele>
        <time>2021-09-11T20:36:05Z</time>
      </trkpt>
      <trkpt lat="45.42007" lon="4.69052">
        <ele>381</ele>
        <time>2021-09-11T20:36:07Z</time>
      </trkpt>
      <trkpt lat="45.42006" lon="4.69062">
        <ele>381</ele>
        <time>2021-09-11T20:36:08Z</time>
      </trkpt>
      <trkpt lat="45.42007" lon="4.69052">
        <ele>381</ele>
        <time>2021-09-11T20:36:10Z</time>
      </trkpt>
      <trkpt lat="45.42016" lon="4.6905">
        <ele>381</ele>
        <time>2021-09-11T20:36:11Z</time>
      </trkpt>
      <trkpt lat="45.42019" lon="4.69043">
        <ele>382</ele>
        <time>2021-09-11T20:36:12Z</time>
      </trkpt>
      <trkpt lat="45.42019" lon="4.69032">
        <ele>382</ele>
        <time>2021-09-11T20:36:14Z</time>
      </trkpt>
      <trkpt lat="45.42016" lon="4.69026">
        <ele>382</ele>
        <time>2021-09-11T20:36:14Z</time>
      </trkpt>
      <trkpt lat="45.42011" lon="4.69023">
        <ele>383</ele>
        <time>2021-09-11T20:36:15Z</time>
      </trkpt>
      <trkpt lat="45.42015" lon="4.68961">
        <ele>386</ele>
        <time>2021-09-11T20:36:23Z</time>
      </trkpt>
      <trkpt lat="45.42014" lon="4.68917">
        <ele>388</ele>
        <time>2021-09-11T20:36:29Z</time>
      </trkpt>
      <trkpt lat="45.42008" lon="4.68858">
        <ele>391</ele>
        <time>2021-09-11T20:36:36Z</time>
      </trkpt>
      <trkpt lat="45.41953" lon="4.68562">
        <ele>404</ele>
        <time>2021-09-11T20:37:14Z</time>
      </trkpt>
      <trkpt lat="45.41945" lon="4.68533">
        <ele>406</ele>
        <time>2021-09-11T20:37:18Z</time>
      </trkpt>
      <trkpt lat="45.41866" lon="4.68371">
        <ele>414</ele>
        <time>2021-09-11T20:37:43Z</time>
      </trkpt>
      <trkpt lat="45.41837" lon="4.68307">
        <ele>419</ele>
        <time>2021-09-11T20:37:52Z</time>
      </trkpt>
      <trkpt lat="45.41795" lon="4.68191">
        <ele>422</ele>
        <time>2021-09-11T20:38:09Z</time>
      </trkpt>
      <trkpt lat="45.41774" lon="4.68122">
        <ele>427</ele>
        <time>2021-09-11T20:38:18Z</time>
      </trkpt>
      <trkpt lat="45.41763" lon="4.68129">
        <ele>427</ele>
        <time>2021-09-11T20:38:20Z</time>
      </trkpt>
      <trkpt lat="45.4176" lon="4.68129">
        <ele>427</ele>
        <time>2021-09-11T20:38:21Z</time>
      </trkpt>
      <trkpt lat="45.41752" lon="4.68107">
        <ele>428</ele>
        <time>2021-09-11T20:38:24Z</time>
      </trkpt>
      <trkpt lat="45.41741" lon="4.6811">
        <ele>427</ele>
        <time>2021-09-11T20:38:26Z</time>
      </trkpt>
      <trkpt lat="45.41741" lon="4.68107">
        <ele>427</ele>
        <time>2021-09-11T20:38:26Z</time>
      </trkpt>
      <trkpt lat="45.41736" lon="4.68106">
        <ele>427</ele>
        <time>2021-09-11T20:38:27Z</time>
      </trkpt>
      <trkpt lat="45.41719" lon="4.68032">
        <ele>429</ele>
        <time>2021-09-11T20:38:37Z</time>
      </trkpt>
      <trkpt lat="45.41722" lon="4.68023">
        <ele>430</ele>
        <time>2021-09-11T20:38:38Z</time>
      </trkpt>
      <trkpt lat="45.41725" lon="4.6802">
        <ele>430</ele>
        <time>2021-09-11T20:38:39Z</time>
      </trkpt>
      <trkpt lat="45.41709" lon="4.67993">
        <ele>430</ele>
        <time>2021-09-11T20:38:43Z</time>
      </trkpt>
      <trkpt lat="45.41688" lon="4.67963">
        <ele>429</ele>
        <time>2021-09-11T20:38:48Z</time>
      </trkpt>
      <trkpt lat="45.41712" lon="4.67937">
        <ele>433</ele>
        <time>2021-09-11T20:38:54Z</time>
      </trkpt>
      <trkpt lat="45.41715" lon="4.67926">
        <ele>433</ele>
        <time>2021-09-11T20:38:55Z</time>
      </trkpt>
      <trkpt lat="45.41715" lon="4.6791">
        <ele>434</ele>
        <time>2021-09-11T20:38:57Z</time>
      </trkpt>
      <trkpt lat="45.41701" lon="4.67902">
        <ele>433</ele>
        <time>2021-09-11T20:39:00Z</time>
      </trkpt>
      <trkpt lat="45.41677" lon="4.67871">
        <ele>430</ele>
        <time>2021-09-11T20:39:06Z</time>
      </trkpt>
      <trkpt lat="45.4166" lon="4.67838">
        <ele>427</ele>
        <time>2021-09-11T20:39:11Z</time>
      </trkpt>
      <trkpt lat="45.41656" lon="4.67803">
        <ele>428</ele>
        <time>2021-09-11T20:39:15Z</time>
      </trkpt>
      <trkpt lat="45.41655" lon="4.67767">
        <ele>430</ele>
        <time>2021-09-11T20:39:20Z</time>
      </trkpt>
      <trkpt lat="45.41644" lon="4.67721">
        <ele>430</ele>
        <time>2021-09-11T20:39:26Z</time>
      </trkpt>
      <trkpt lat="45.41636" lon="4.67698">
        <ele>430</ele>
        <time>2021-09-11T20:39:29Z</time>
      </trkpt>
      <trkpt lat="45.41623" lon="4.67653">
        <ele>429</ele>
        <time>2021-09-11T20:39:35Z</time>
      </trkpt>
      <trkpt lat="45.41583" lon="4.67575">
        <ele>425</ele>
        <time>2021-09-11T20:39:47Z</time>
      </trkpt>
      <trkpt lat="45.41563" lon="4.67506">
        <ele>430</ele>
        <time>2021-09-11T20:39:57Z</time>
      </trkpt>
      <trkpt lat="45.41552" lon="4.67456">
        <ele>431</ele>
        <time>2021-09-11T20:40:03Z</time>
      </trkpt>
      <trkpt lat="45.41545" lon="4.67397">
        <ele>432</ele>
        <time>2021-09-11T20:40:11Z</time>
      </trkpt>
      <trkpt lat="45.41541" lon="4.67389">
        <ele>432</ele>
        <time>2021-09-11T20:40:12Z</time>
      </trkpt>
      <trkpt lat="45.41533" lon="4.67378">
        <ele>432</ele>
        <time>2021-09-11T20:40:14Z</time>
      </trkpt>
      <trkpt lat="45.41526" lon="4.67373">
        <ele>431</ele>
        <time>2021-09-11T20:40:15Z</time>
      </trkpt>
      <trkpt lat="45.41518" lon="4.67367">
        <ele>431</ele>
        <time>2021-09-11T20:40:17Z</time>
      </trkpt>
      <trkpt lat="45.41507" lon="4.67363">
        <ele>429</ele>
        <time>2021-09-11T20:40:19Z</time>
      </trkpt>
      <trkpt lat="45.41496" lon="4.67368">
        <ele>429</ele>
        <time>2021-09-11T20:40:21Z</time>
      </trkpt>
      <trkpt lat="45.41486" lon="4.67388">
        <ele>429</ele>
        <time>2021-09-11T20:40:24Z</time>
      </trkpt>
      <trkpt lat="45.41484" lon="4.67395">
        <ele>429</ele>
        <time>2021-09-11T20:40:25Z</time>
      </trkpt>
      <trkpt lat="45.41481" lon="4.67415">
        <ele>428</ele>
        <time>2021-09-11T20:40:27Z</time>
      </trkpt>
      <trkpt lat="45.41485" lon="4.6749">
        <ele>427</ele>
        <time>2021-09-11T20:40:37Z</time>
      </trkpt>
      <trkpt lat="45.41496" lon="4.67582">
        <ele>425</ele>
        <time>2021-09-11T20:40:48Z</time>
      </trkpt>
      <trkpt lat="45.41496" lon="4.67616">
        <ele>423</ele>
        <time>2021-09-11T20:40:53Z</time>
      </trkpt>
      <trkpt lat="45.41487" lon="4.67642">
        <ele>423</ele>
        <time>2021-09-11T20:40:56Z</time>
      </trkpt>
      <trkpt lat="45.41459" lon="4.67679">
        <ele>427</ele>
        <time>2021-09-11T20:41:03Z</time>
      </trkpt>
      <trkpt lat="45.41439" lon="4.67699">
        <ele>430</ele>
        <time>2021-09-11T20:41:07Z</time>
      </trkpt>
      <trkpt lat="45.41427" lon="4.67704">
        <ele>431</ele>
        <time>2021-09-11T20:41:10Z</time>
      </trkpt>
      <trkpt lat="45.41372" lon="4.677">
        <ele>429</ele>
        <time>2021-09-11T20:41:19Z</time>
      </trkpt>
      <trkpt lat="45.41359" lon="4.67695">
        <ele>428</ele>
        <time>2021-09-11T20:41:22Z</time>
      </trkpt>
      <trkpt lat="45.41352" lon="4.6769">
        <ele>428</ele>
        <time>2021-09-11T20:41:23Z</time>
      </trkpt>
      <trkpt lat="45.41342" lon="4.67669">
        <ele>428</ele>
        <time>2021-09-11T20:41:26Z</time>
      </trkpt>
      <trkpt lat="45.41333" lon="4.67643">
        <ele>428</ele>
        <time>2021-09-11T20:41:30Z</time>
      </trkpt>
      <trkpt lat="45.41328" lon="4.67596">
        <ele>431</ele>
        <time>2021-09-11T20:41:36Z</time>
      </trkpt>
      <trkpt lat="45.41321" lon="4.67574">
        <ele>433</ele>
        <time>2021-09-11T20:41:39Z</time>
      </trkpt>
      <trkpt lat="45.41304" lon="4.67561">
        <ele>435</ele>
        <time>2021-09-11T20:41:42Z</time>
      </trkpt>
      <trkpt lat="45.41285" lon="4.67562">
        <ele>437</ele>
        <time>2021-09-11T20:41:46Z</time>
      </trkpt>
      <trkpt lat="45.41264" lon="4.67568">
        <ele>438</ele>
        <time>2021-09-11T20:41:50Z</time>
      </trkpt>
      <trkpt lat="45.41249" lon="4.67586">
        <ele>437</ele>
        <time>2021-09-11T20:41:53Z</time>
      </trkpt>
      <trkpt lat="45.41246" lon="4.67606">
        <ele>438</ele>
        <time>2021-09-11T20:41:56Z</time>
      </trkpt>
      <trkpt lat="45.41247" lon="4.6768">
        <ele>436</ele>
        <time>2021-09-11T20:42:05Z</time>
      </trkpt>
      <trkpt lat="45.41237" lon="4.67725">
        <ele>440</ele>
        <time>2021-09-11T20:42:11Z</time>
      </trkpt>
      <trkpt lat="45.41228" lon="4.6775">
        <ele>442</ele>
        <time>2021-09-11T20:42:14Z</time>
      </trkpt>
      <trkpt lat="45.41233" lon="4.67836">
        <ele>442</ele>
        <time>2021-09-11T20:42:25Z</time>
      </trkpt>
      <trkpt lat="45.41229" lon="4.67852">
        <ele>443</ele>
        <time>2021-09-11T20:42:27Z</time>
      </trkpt>
      <trkpt lat="45.41191" lon="4.67926">
        <ele>448</ele>
        <time>2021-09-11T20:42:39Z</time>
      </trkpt>
      <trkpt lat="45.4117" lon="4.67978">
        <ele>451</ele>
        <time>2021-09-11T20:42:46Z</time>
      </trkpt>
      <trkpt lat="45.41156" lon="4.67985">
        <ele>452</ele>
        <time>2021-09-11T20:42:49Z</time>
      </trkpt>
      <trkpt lat="45.41138" lon="4.67984">
        <ele>453</ele>
        <time>2021-09-11T20:42:52Z</time>
      </trkpt>
      <trkpt lat="45.4112" lon="4.68001">
        <ele>454</ele>
        <time>2021-09-11T20:42:56Z</time>
      </trkpt>
      <trkpt lat="45.41103" lon="4.68012">
        <ele>454</ele>
        <time>2021-09-11T20:42:59Z</time>
      </trkpt>
      <trkpt lat="45.40967" lon="4.68071">
        <ele>451</ele>
        <time>2021-09-11T20:43:25Z</time>
      </trkpt>
      <trkpt lat="45.40917" lon="4.68081">
        <ele>450</ele>
        <time>2021-09-11T20:43:33Z</time>
      </trkpt>
      <trkpt lat="45.40821" lon="4.68094">
        <ele>447</ele>
        <time>2021-09-11T20:43:51Z</time>
      </trkpt>
      <trkpt lat="45.40724" lon="4.68094">
        <ele>447</ele>
        <time>2021-09-11T20:44:08Z</time>
      </trkpt>
      <trkpt lat="45.40703" lon="4.68098">
        <ele>448</ele>
        <time>2021-09-11T20:44:12Z</time>
      </trkpt>
      <trkpt lat="45.40681" lon="4.68108">
        <ele>449</ele>
        <time>2021-09-11T20:44:16Z</time>
      </trkpt>
      <trkpt lat="45.40648" lon="4.68156">
        <ele>445</ele>
        <time>2021-09-11T20:44:24Z</time>
      </trkpt>
      <trkpt lat="45.40621" lon="4.68203">
        <ele>442</ele>
        <time>2021-09-11T20:44:32Z</time>
      </trkpt>
      <trkpt lat="45.40588" lon="4.68246">
        <ele>440</ele>
        <time>2021-09-11T20:44:40Z</time>
      </trkpt>
      <trkpt lat="45.40543" lon="4.6827">
        <ele>438</ele>
        <time>2021-09-11T20:44:48Z</time>
      </trkpt>
      <trkpt lat="45.40466" lon="4.683">
        <ele>437</ele>
        <time>2021-09-11T20:45:02Z</time>
      </trkpt>
      <trkpt lat="45.40453" lon="4.6831">
        <ele>437</ele>
        <time>2021-09-11T20:45:05Z</time>
      </trkpt>
      <trkpt lat="45.40452" lon="4.68301">
        <ele>438</ele>
        <time>2021-09-11T20:45:06Z</time>
      </trkpt>
      <trkpt lat="45.40463" lon="4.68282">
        <ele>439</ele>
        <time>2021-09-11T20:45:09Z</time>
      </trkpt>
      <trkpt lat="45.40469" lon="4.68263">
        <ele>441</ele>
        <time>2021-09-11T20:45:12Z</time>
      </trkpt>
      <trkpt lat="45.40518" lon="4.68241">
        <ele>442</ele>
        <time>2021-09-11T20:45:21Z</time>
      </trkpt>
      <trkpt lat="45.40556" lon="4.68231">
        <ele>442</ele>
        <time>2021-09-11T20:45:28Z</time>
      </trkpt>
      <trkpt lat="45.40576" lon="4.68219">
        <ele>443</ele>
        <time>2021-09-11T20:45:32Z</time>
      </trkpt>
      <trkpt lat="45.40609" lon="4.68176">
        <ele>446</ele>
        <time>2021-09-11T20:45:40Z</time>
      </trkpt>
      <trkpt lat="45.4067" lon="4.68109">
        <ele>449</ele>
        <time>2021-09-11T20:45:53Z</time>
      </trkpt>
      <trkpt lat="45.40677" lon="4.68114">
        <ele>448</ele>
        <time>2021-09-11T20:45:55Z</time>
      </trkpt>
      <trkpt lat="45.40648" lon="4.68156">
        <ele>445</ele>
        <time>2021-09-11T20:46:02Z</time>
      </trkpt>
      <trkpt lat="45.40621" lon="4.68203">
        <ele>442</ele>
        <time>2021-09-11T20:46:10Z</time>
      </trkpt>
      <trkpt lat="45.40588" lon="4.68246">
        <ele>440</ele>
        <time>2021-09-11T20:46:18Z</time>
      </trkpt>
      <trkpt lat="45.40543" lon="4.6827">
        <ele>438</ele>
        <time>2021-09-11T20:46:26Z</time>
      </trkpt>
      <trkpt lat="45.40466" lon="4.683">
        <ele>437</ele>
        <time>2021-09-11T20:46:41Z</time>
      </trkpt>
      <trkpt lat="45.40453" lon="4.6831">
        <ele>437</ele>
        <time>2021-09-11T20:46:43Z</time>
      </trkpt>
      <trkpt lat="45.4041" lon="4.68332">
        <ele>437</ele>
        <time>2021-09-11T20:46:51Z</time>
      </trkpt>
      <trkpt lat="45.40375" lon="4.68343">
        <ele>437</ele>
        <time>2021-09-11T20:46:58Z</time>
      </trkpt>
      <trkpt lat="45.40329" lon="4.6835">
        <ele>438</ele>
        <time>2021-09-11T20:47:06Z</time>
      </trkpt>
      <trkpt lat="45.40304" lon="4.68365">
        <ele>437</ele>
        <time>2021-09-11T20:47:11Z</time>
      </trkpt>
      <trkpt lat="45.4029" lon="4.68385">
        <ele>437</ele>
        <time>2021-09-11T20:47:14Z</time>
      </trkpt>
      <trkpt lat="45.40242" lon="4.68476">
        <ele>435</ele>
        <time>2021-09-11T20:47:28Z</time>
      </trkpt>
      <trkpt lat="45.40198" lon="4.68581">
        <ele>432</ele>
        <time>2021-09-11T20:47:44Z</time>
      </trkpt>
      <trkpt lat="45.40175" lon="4.68607">
        <ele>433</ele>
        <time>2021-09-11T20:47:49Z</time>
      </trkpt>
      <trkpt lat="45.40139" lon="4.68634">
        <ele>433</ele>
        <time>2021-09-11T20:47:56Z</time>
      </trkpt>
      <trkpt lat="45.40061" lon="4.68699">
        <ele>436</ele>
        <time>2021-09-11T20:48:12Z</time>
      </trkpt>
      <trkpt lat="45.40021" lon="4.68701">
        <ele>439</ele>
        <time>2021-09-11T20:48:19Z</time>
      </trkpt>
      <trkpt lat="45.3997" lon="4.68691">
        <ele>439</ele>
        <time>2021-09-11T20:48:29Z</time>
      </trkpt>
      <trkpt lat="45.39945" lon="4.68684">
        <ele>438</ele>
        <time>2021-09-11T20:48:33Z</time>
      </trkpt>
      <trkpt lat="45.39928" lon="4.68663">
        <ele>438</ele>
        <time>2021-09-11T20:48:37Z</time>
      </trkpt>
      <trkpt lat="45.39883" lon="4.6862">
        <ele>439</ele>
        <time>2021-09-11T20:48:47Z</time>
      </trkpt>
      <trkpt lat="45.3985" lon="4.68607">
        <ele>437</ele>
        <time>2021-09-11T20:48:53Z</time>
      </trkpt>
      <trkpt lat="45.398" lon="4.68596">
        <ele>434</ele>
        <time>2021-09-11T20:49:02Z</time>
      </trkpt>
      <trkpt lat="45.39738" lon="4.68624">
        <ele>429</ele>
        <time>2021-09-11T20:49:13Z</time>
      </trkpt>
      <trkpt lat="45.39693" lon="4.68629">
        <ele>428</ele>
        <time>2021-09-11T20:49:21Z</time>
      </trkpt>
      <trkpt lat="45.39618" lon="4.68632">
        <ele>427</ele>
        <time>2021-09-11T20:49:35Z</time>
      </trkpt>
      <trkpt lat="45.39507" lon="4.68657">
        <ele>426</ele>
        <time>2021-09-11T20:49:55Z</time>
      </trkpt>
      <trkpt lat="45.39472" lon="4.68682">
        <ele>427</ele>
        <time>2021-09-11T20:50:02Z</time>
      </trkpt>
      <trkpt lat="45.39441" lon="4.6872">
        <ele>427</ele>
        <time>2021-09-11T20:50:09Z</time>
      </trkpt>
      <trkpt lat="45.394" lon="4.68788">
        <ele>425</ele>
        <time>2021-09-11T20:50:20Z</time>
      </trkpt>
      <trkpt lat="45.39369" lon="4.68811">
        <ele>424</ele>
        <time>2021-09-11T20:50:26Z</time>
      </trkpt>
      <trkpt lat="45.39347" lon="4.68817">
        <ele>424</ele>
        <time>2021-09-11T20:50:30Z</time>
      </trkpt>
      <trkpt lat="45.39192" lon="4.68789">
        <ele>419</ele>
        <time>2021-09-11T20:50:58Z</time>
      </trkpt>
      <trkpt lat="45.39143" lon="4.68784">
        <ele>419</ele>
        <time>2021-09-11T20:51:07Z</time>
      </trkpt>
      <trkpt lat="45.39124" lon="4.68776">
        <ele>420</ele>
        <time>2021-09-11T20:51:10Z</time>
      </trkpt>
      <trkpt lat="45.39083" lon="4.6875">
        <ele>421</ele>
        <time>2021-09-11T20:51:18Z</time>
      </trkpt>
      <trkpt lat="45.39037" lon="4.68712">
        <ele>423</ele>
        <time>2021-09-11T20:51:28Z</time>
      </trkpt>
      <trkpt lat="45.3901" lon="4.68695">
        <ele>424</ele>
        <time>2021-09-11T20:51:33Z</time>
      </trkpt>
      <trkpt lat="45.38978" lon="4.68687">
        <ele>424</ele>
        <time>2021-09-11T20:51:39Z</time>
      </trkpt>
      <trkpt lat="45.38848" lon="4.68689">
        <ele>425</ele>
        <time>2021-09-11T20:52:02Z</time>
      </trkpt>
      <trkpt lat="45.38847" lon="4.68682">
        <ele>425</ele>
        <time>2021-09-11T20:52:03Z</time>
      </trkpt>
      <trkpt lat="45.38841" lon="4.6867">
        <ele>426</ele>
        <time>2021-09-11T20:52:05Z</time>
      </trkpt>
      <trkpt lat="45.38833" lon="4.68667">
        <ele>426</ele>
        <time>2021-09-11T20:52:06Z</time>
      </trkpt>
      <trkpt lat="45.38828" lon="4.68668">
        <ele>426</ele>
        <time>2021-09-11T20:52:07Z</time>
      </trkpt>
      <trkpt lat="45.3882" lon="4.68677">
        <ele>425</ele>
        <time>2021-09-11T20:52:09Z</time>
      </trkpt>
      <trkpt lat="45.38818" lon="4.68685">
        <ele>425</ele>
        <time>2021-09-11T20:52:10Z</time>
      </trkpt>
      <trkpt lat="45.38812" lon="4.68678">
        <ele>425</ele>
        <time>2021-09-11T20:52:11Z</time>
      </trkpt>
      <trkpt lat="45.38727" lon="4.68612">
        <ele>426</ele>
        <time>2021-09-11T20:52:29Z</time>
      </trkpt>
      <trkpt lat="45.38685" lon="4.68553">
        <ele>425</ele>
        <time>2021-09-11T20:52:39Z</time>
      </trkpt>
      <trkpt lat="45.38657" lon="4.68523">
        <ele>425</ele>
        <time>2021-09-11T20:52:45Z</time>
      </trkpt>
      <trkpt lat="45.38541" lon="4.68445">
        <ele>426</ele>
        <time>2021-09-11T20:53:08Z</time>
      </trkpt>
      <trkpt lat="45.38489" lon="4.68412">
        <ele>426</ele>
        <time>2021-09-11T20:53:18Z</time>
      </trkpt>
      <trkpt lat="45.38415" lon="4.68353">
        <ele>429</ele>
        <time>2021-09-11T20:53:33Z</time>
      </trkpt>
      <trkpt lat="45.38403" lon="4.68347">
        <ele>429</ele>
        <time>2021-09-11T20:53:36Z</time>
      </trkpt>
      <trkpt lat="45.38349" lon="4.68333">
        <ele>429</ele>
        <time>2021-09-11T20:53:45Z</time>
      </trkpt>
      <trkpt lat="45.38326" lon="4.68329">
        <ele>429</ele>
        <time>2021-09-11T20:53:50Z</time>
      </trkpt>
      <trkpt lat="45.38287" lon="4.68314">
        <ele>427</ele>
        <time>2021-09-11T20:53:57Z</time>
      </trkpt>
      <trkpt lat="45.38271" lon="4.68311">
        <ele>426</ele>
        <time>2021-09-11T20:54:00Z</time>
      </trkpt>
      <trkpt lat="45.38255" lon="4.68313">
        <ele>425</ele>
        <time>2021-09-11T20:54:03Z</time>
      </trkpt>
      <trkpt lat="45.38184" lon="4.68332">
        <ele>423</ele>
        <time>2021-09-11T20:54:15Z</time>
      </trkpt>
      <trkpt lat="45.38143" lon="4.68345">
        <ele>422</ele>
        <time>2021-09-11T20:54:23Z</time>
      </trkpt>
      <trkpt lat="45.38118" lon="4.68355">
        <ele>421</ele>
        <time>2021-09-11T20:54:27Z</time>
      </trkpt>
      <trkpt lat="45.38086" lon="4.68372">
        <ele>420</ele>
        <time>2021-09-11T20:54:34Z</time>
      </trkpt>
      <trkpt lat="45.38068" lon="4.68378">
        <ele>418</ele>
        <time>2021-09-11T20:54:37Z</time>
      </trkpt>
      <trkpt lat="45.38006" lon="4.68369">
        <ele>414</ele>
        <time>2021-09-11T20:54:48Z</time>
      </trkpt>
      <trkpt lat="45.37905" lon="4.68346">
        <ele>412</ele>
        <time>2021-09-11T20:55:06Z</time>
      </trkpt>
      <trkpt lat="45.37859" lon="4.68322">
        <ele>410</ele>
        <time>2021-09-11T20:55:15Z</time>
      </trkpt>
      <trkpt lat="45.37817" lon="4.68298">
        <ele>411</ele>
        <time>2021-09-11T20:55:23Z</time>
      </trkpt>
      <trkpt lat="45.37758" lon="4.68258">
        <ele>416</ele>
        <time>2021-09-11T20:55:35Z</time>
      </trkpt>
      <trkpt lat="45.37691" lon="4.68225">
        <ele>417</ele>
        <time>2021-09-11T20:55:47Z</time>
      </trkpt>
      <trkpt lat="45.37652" lon="4.68209">
        <ele>418</ele>
        <time>2021-09-11T20:55:54Z</time>
      </trkpt>
      <trkpt lat="45.37634" lon="4.68205">
        <ele>417</ele>
        <time>2021-09-11T20:55:58Z</time>
      </trkpt>
      <trkpt lat="45.37619" lon="4.68205">
        <ele>417</ele>
        <time>2021-09-11T20:56:00Z</time>
      </trkpt>
      <trkpt lat="45.37599" lon="4.68209">
        <ele>416</ele>
        <time>2021-09-11T20:56:04Z</time>
      </trkpt>
      <trkpt lat="45.37471" lon="4.6824">
        <ele>414</ele>
        <time>2021-09-11T20:56:27Z</time>
      </trkpt>
      <trkpt lat="45.37367" lon="4.68262">
        <ele>412</ele>
        <time>2021-09-11T20:56:46Z</time>
      </trkpt>
      <trkpt lat="45.37288" lon="4.68275">
        <ele>412</ele>
        <time>2021-09-11T20:57:00Z</time>
      </trkpt>
      <trkpt lat="45.37268" lon="4.68274">
        <ele>412</ele>
        <time>2021-09-11T20:57:03Z</time>
      </trkpt>
      <trkpt lat="45.37253" lon="4.68271">
        <ele>413</ele>
        <time>2021-09-11T20:57:06Z</time>
      </trkpt>
      <trkpt lat="45.37221" lon="4.68259">
        <ele>412</ele>
        <time>2021-09-11T20:57:12Z</time>
      </trkpt>
      <trkpt lat="45.37198" lon="4.68246">
        <ele>412</ele>
        <time>2021-09-11T20:57:16Z</time>
      </trkpt>
      <trkpt lat="45.37136" lon="4.68202">
        <ele>413</ele>
        <time>2021-09-11T20:57:29Z</time>
      </trkpt>
      <trkpt lat="45.37114" lon="4.68191">
        <ele>413</ele>
        <time>2021-09-11T20:57:33Z</time>
      </trkpt>
      <trkpt lat="45.37093" lon="4.68189">
        <ele>413</ele>
        <time>2021-09-11T20:57:37Z</time>
      </trkpt>
      <trkpt lat="45.36943" lon="4.68204">
        <ele>410</ele>
        <time>2021-09-11T20:58:03Z</time>
      </trkpt>
      <trkpt lat="45.36926" lon="4.68203">
        <ele>410</ele>
        <time>2021-09-11T20:58:06Z</time>
      </trkpt>
      <trkpt lat="45.36819" lon="4.68183">
        <ele>415</ele>
        <time>2021-09-11T20:58:26Z</time>
      </trkpt>
      <trkpt lat="45.36803" lon="4.68182">
        <ele>415</ele>
        <time>2021-09-11T20:58:28Z</time>
      </trkpt>
      <trkpt lat="45.36775" lon="4.68189">
        <ele>416</ele>
        <time>2021-09-11T20:58:33Z</time>
      </trkpt>
      <trkpt lat="45.36691" lon="4.68216">
        <ele>413</ele>
        <time>2021-09-11T20:58:49Z</time>
      </trkpt>
      <trkpt lat="45.36644" lon="4.68227">
        <ele>413</ele>
        <time>2021-09-11T20:58:57Z</time>
      </trkpt>
      <trkpt lat="45.3662" lon="4.68238">
        <ele>413</ele>
        <time>2021-09-11T20:59:02Z</time>
      </trkpt>
      <trkpt lat="45.36604" lon="4.68242">
        <ele>413</ele>
        <time>2021-09-11T20:59:05Z</time>
      </trkpt>
      <trkpt lat="45.36565" lon="4.68244">
        <ele>413</ele>
        <time>2021-09-11T20:59:12Z</time>
      </trkpt>
      <trkpt lat="45.36547" lon="4.6824">
        <ele>413</ele>
        <time>2021-09-11T20:59:15Z</time>
      </trkpt>
      <trkpt lat="45.36512" lon="4.6824">
        <ele>412</ele>
        <time>2021-09-11T20:59:21Z</time>
      </trkpt>
      <trkpt lat="45.36464" lon="4.68244">
        <ele>412</ele>
        <time>2021-09-11T20:59:30Z</time>
      </trkpt>
      <trkpt lat="45.36446" lon="4.68248">
        <ele>411</ele>
        <time>2021-09-11T20:59:33Z</time>
      </trkpt>
      <trkpt lat="45.36427" lon="4.6826">
        <ele>411</ele>
        <time>2021-09-11T20:59:37Z</time>
      </trkpt>
      <trkpt lat="45.36405" lon="4.68281">
        <ele>410</ele>
        <time>2021-09-11T20:59:41Z</time>
      </trkpt>
      <trkpt lat="45.36368" lon="4.68327">
        <ele>409</ele>
        <time>2021-09-11T20:59:50Z</time>
      </trkpt>
      <trkpt lat="45.36334" lon="4.68374">
        <ele>409</ele>
        <time>2021-09-11T20:59:58Z</time>
      </trkpt>
      <trkpt lat="45.363" lon="4.6843">
        <ele>408</ele>
        <time>2021-09-11T21:00:08Z</time>
      </trkpt>
      <trkpt lat="45.36288" lon="4.68447">
        <ele>407</ele>
        <time>2021-09-11T21:00:11Z</time>
      </trkpt>
      <trkpt lat="45.36286" lon="4.68452">
        <ele>407</ele>
        <time>2021-09-11T21:00:11Z</time>
      </trkpt>
      <trkpt lat="45.36281" lon="4.68448">
        <ele>407</ele>
        <time>2021-09-11T21:00:12Z</time>
      </trkpt>
      <trkpt lat="45.36267" lon="4.68421">
        <ele>409</ele>
        <time>2021-09-11T21:00:17Z</time>
      </trkpt>
      <trkpt lat="45.36255" lon="4.68429">
        <ele>408</ele>
        <time>2021-09-11T21:00:19Z</time>
      </trkpt>
      <trkpt lat="45.36232" lon="4.6845">
        <ele>407</ele>
        <time>2021-09-11T21:00:24Z</time>
      </trkpt>
      <trkpt lat="45.36202" lon="4.68468">
        <ele>406</ele>
        <time>2021-09-11T21:00:30Z</time>
      </trkpt>
      <trkpt lat="45.36216" lon="4.68495">
        <ele>405</ele>
        <time>2021-09-11T21:00:34Z</time>
      </trkpt>
      <trkpt lat="45.36211" lon="4.685">
        <ele>405</ele>
        <time>2021-09-11T21:00:35Z</time>
      </trkpt>
      <trkpt lat="45.36201" lon="4.68504">
        <ele>405</ele>
        <time>2021-09-11T21:00:37Z</time>
      </trkpt>
      <trkpt lat="45.3611" lon="4.68525">
        <ele>403</ele>
        <time>2021-09-11T21:00:53Z</time>
      </trkpt>
      <trkpt lat="45.36052" lon="4.68518">
        <ele>404</ele>
        <time>2021-09-11T21:01:04Z</time>
      </trkpt>
      <trkpt lat="45.36043" lon="4.68515">
        <ele>404</ele>
        <time>2021-09-11T21:01:05Z</time>
      </trkpt>
      <trkpt lat="45.35989" lon="4.6849">
        <ele>405</ele>
        <time>2021-09-11T21:01:15Z</time>
      </trkpt>
      <trkpt lat="45.35927" lon="4.68457">
        <ele>404</ele>
        <time>2021-09-11T21:01:27Z</time>
      </trkpt>
      <trkpt lat="45.35898" lon="4.68456">
        <ele>403</ele>
        <time>2021-09-11T21:01:32Z</time>
      </trkpt>
      <trkpt lat="45.35887" lon="4.68452">
        <ele>403</ele>
        <time>2021-09-11T21:01:34Z</time>
      </trkpt>
      <trkpt lat="45.35864" lon="4.68441">
        <ele>403</ele>
        <time>2021-09-11T21:01:39Z</time>
      </trkpt>
      <trkpt lat="45.35847" lon="4.68428">
        <ele>404</ele>
        <time>2021-09-11T21:01:42Z</time>
      </trkpt>
      <trkpt lat="45.35833" lon="4.68411">
        <ele>404</ele>
        <time>2021-09-11T21:01:45Z</time>
      </trkpt>
      <trkpt lat="45.35809" lon="4.68394">
        <ele>404</ele>
        <time>2021-09-11T21:01:50Z</time>
      </trkpt>
      <trkpt lat="45.35692" lon="4.68337">
        <ele>403</ele>
        <time>2021-09-11T21:02:12Z</time>
      </trkpt>
      <trkpt lat="45.35569" lon="4.68248">
        <ele>404</ele>
        <time>2021-09-11T21:02:37Z</time>
      </trkpt>
      <trkpt lat="45.35549" lon="4.68239">
        <ele>405</ele>
        <time>2021-09-11T21:02:40Z</time>
      </trkpt>
      <trkpt lat="45.3538" lon="4.68192">
        <ele>404</ele>
        <time>2021-09-11T21:03:11Z</time>
      </trkpt>
      <trkpt lat="45.35354" lon="4.68176">
        <ele>404</ele>
        <time>2021-09-11T21:03:16Z</time>
      </trkpt>
      <trkpt lat="45.3532" lon="4.68134">
        <ele>402</ele>
        <time>2021-09-11T21:03:24Z</time>
      </trkpt>
      <trkpt lat="45.35232" lon="4.68038">
        <ele>399</ele>
        <time>2021-09-11T21:03:44Z</time>
      </trkpt>
      <trkpt lat="45.35215" lon="4.68017">
        <ele>398</ele>
        <time>2021-09-11T21:03:48Z</time>
      </trkpt>
      <trkpt lat="45.35185" lon="4.67991">
        <ele>397</ele>
        <time>2021-09-11T21:03:54Z</time>
      </trkpt>
      <trkpt lat="45.35175" lon="4.67986">
        <ele>396</ele>
        <time>2021-09-11T21:03:56Z</time>
      </trkpt>
      <trkpt lat="45.35165" lon="4.67985">
        <ele>396</ele>
        <time>2021-09-11T21:03:58Z</time>
      </trkpt>
      <trkpt lat="45.35151" lon="4.67986">
        <ele>396</ele>
        <time>2021-09-11T21:04:00Z</time>
      </trkpt>
      <trkpt lat="45.35051" lon="4.68026">
        <ele>391</ele>
        <time>2021-09-11T21:04:19Z</time>
      </trkpt>
      <trkpt lat="45.34872" lon="4.68121">
        <ele>382</ele>
        <time>2021-09-11T21:04:53Z</time>
      </trkpt>
      <trkpt lat="45.34846" lon="4.68143">
        <ele>380</ele>
        <time>2021-09-11T21:04:58Z</time>
      </trkpt>
      <trkpt lat="45.34735" lon="4.68273">
        <ele>369</ele>
        <time>2021-09-11T21:05:24Z</time>
      </trkpt>
      <trkpt lat="45.34708" lon="4.68295">
        <ele>368</ele>
        <time>2021-09-11T21:05:29Z</time>
      </trkpt>
      <trkpt lat="45.3468" lon="4.68301">
        <ele>366</ele>
        <time>2021-09-11T21:05:34Z</time>
      </trkpt>
      <trkpt lat="45.34649" lon="4.68303">
        <ele>369</ele>
        <time>2021-09-11T21:05:40Z</time>
      </trkpt>
      <trkpt lat="45.34627" lon="4.68305">
        <ele>375</ele>
        <time>2021-09-11T21:05:44Z</time>
      </trkpt>
      <trkpt lat="45.34621" lon="4.68307">
        <ele>376</ele>
        <time>2021-09-11T21:05:45Z</time>
      </trkpt>
      <trkpt lat="45.34615" lon="4.68325">
        <ele>378</ele>
        <time>2021-09-11T21:05:47Z</time>
      </trkpt>
      <trkpt lat="45.34615" lon="4.68372">
        <ele>377</ele>
        <time>2021-09-11T21:05:53Z</time>
      </trkpt>
      <trkpt lat="45.34608" lon="4.68394">
        <ele>378</ele>
        <time>2021-09-11T21:05:56Z</time>
      </trkpt>
      <trkpt lat="45.34587" lon="4.6844">
        <ele>381</ele>
        <time>2021-09-11T21:06:03Z</time>
      </trkpt>
      <trkpt lat="45.34578" lon="4.68491">
        <ele>379</ele>
        <time>2021-09-11T21:06:10Z</time>
      </trkpt>
      <trkpt lat="45.34559" lon="4.68549">
        <ele>381</ele>
        <time>2021-09-11T21:06:18Z</time>
      </trkpt>
      <trkpt lat="45.3455" lon="4.68591">
        <ele>381</ele>
        <time>2021-09-11T21:06:23Z</time>
      </trkpt>
      <trkpt lat="45.34539" lon="4.68617">
        <ele>383</ele>
        <time>2021-09-11T21:06:27Z</time>
      </trkpt>
      <trkpt lat="45.34529" lon="4.6866">
        <ele>382</ele>
        <time>2021-09-11T21:06:33Z</time>
      </trkpt>
      <trkpt lat="45.34515" lon="4.68686">
        <ele>385</ele>
        <time>2021-09-11T21:06:37Z</time>
      </trkpt>
      <trkpt lat="45.34511" lon="4.68715">
        <ele>385</ele>
        <time>2021-09-11T21:06:40Z</time>
      </trkpt>
      <trkpt lat="45.34512" lon="4.68771">
        <ele>384</ele>
        <time>2021-09-11T21:06:47Z</time>
      </trkpt>
      <trkpt lat="45.34511" lon="4.68817">
        <ele>386</ele>
        <time>2021-09-11T21:06:53Z</time>
      </trkpt>
      <trkpt lat="45.34505" lon="4.68837">
        <ele>388</ele>
        <time>2021-09-11T21:06:56Z</time>
      </trkpt>
      <trkpt lat="45.34491" lon="4.68859">
        <ele>388</ele>
        <time>2021-09-11T21:07:00Z</time>
      </trkpt>
      <trkpt lat="45.34472" lon="4.68871">
        <ele>387</ele>
        <time>2021-09-11T21:07:03Z</time>
      </trkpt>
      <trkpt lat="45.34414" lon="4.68915">
        <ele>383</ele>
        <time>2021-09-11T21:07:15Z</time>
      </trkpt>
      <trkpt lat="45.34398" lon="4.68921">
        <ele>381</ele>
        <time>2021-09-11T21:07:18Z</time>
      </trkpt>
      <trkpt lat="45.34386" lon="4.68921">
        <ele>380</ele>
        <time>2021-09-11T21:07:20Z</time>
      </trkpt>
      <trkpt lat="45.34376" lon="4.68918">
        <ele>379</ele>
        <time>2021-09-11T21:07:22Z</time>
      </trkpt>
      <trkpt lat="45.34316" lon="4.68881">
        <ele>377</ele>
        <time>2021-09-11T21:07:33Z</time>
      </trkpt>
      <trkpt lat="45.34288" lon="4.68859">
        <ele>376</ele>
        <time>2021-09-11T21:07:39Z</time>
      </trkpt>
      <trkpt lat="45.34278" lon="4.68846">
        <ele>375</ele>
        <time>2021-09-11T21:07:42Z</time>
      </trkpt>
      <trkpt lat="45.34271" lon="4.68831">
        <ele>375</ele>
        <time>2021-09-11T21:07:44Z</time>
      </trkpt>
      <trkpt lat="45.34267" lon="4.68815">
        <ele>375</ele>
        <time>2021-09-11T21:07:46Z</time>
      </trkpt>
      <trkpt lat="45.34262" lon="4.68779">
        <ele>375</ele>
        <time>2021-09-11T21:07:51Z</time>
      </trkpt>
      <trkpt lat="45.34258" lon="4.68763">
        <ele>374</ele>
        <time>2021-09-11T21:07:53Z</time>
      </trkpt>
      <trkpt lat="45.3425" lon="4.68742">
        <ele>374</ele>
        <time>2021-09-11T21:07:56Z</time>
      </trkpt>
      <trkpt lat="45.34242" lon="4.6873">
        <ele>375</ele>
        <time>2021-09-11T21:07:58Z</time>
      </trkpt>
      <trkpt lat="45.34234" lon="4.68722">
        <ele>376</ele>
        <time>2021-09-11T21:07:59Z</time>
      </trkpt>
      <trkpt lat="45.34226" lon="4.68719">
        <ele>376</ele>
        <time>2021-09-11T21:08:01Z</time>
      </trkpt>
      <trkpt lat="45.34207" lon="4.6872">
        <ele>377</ele>
        <time>2021-09-11T21:08:04Z</time>
      </trkpt>
      <trkpt lat="45.342" lon="4.68724">
        <ele>377</ele>
        <time>2021-09-11T21:08:06Z</time>
      </trkpt>
      <trkpt lat="45.34197" lon="4.68726">
        <ele>377</ele>
        <time>2021-09-11T21:08:06Z</time>
      </trkpt>
      <trkpt lat="45.34195" lon="4.68736">
        <ele>377</ele>
        <time>2021-09-11T21:08:08Z</time>
      </trkpt>
      <trkpt lat="45.34194" lon="4.68748">
        <ele>377</ele>
        <time>2021-09-11T21:08:09Z</time>
      </trkpt>
      <trkpt lat="45.34196" lon="4.68783">
        <ele>378</ele>
        <time>2021-09-11T21:08:13Z</time>
      </trkpt>
      <trkpt lat="45.34197" lon="4.68838">
        <ele>380</ele>
        <time>2021-09-11T21:08:20Z</time>
      </trkpt>
      <trkpt lat="45.342" lon="4.68857">
        <ele>380</ele>
        <time>2021-09-11T21:08:23Z</time>
      </trkpt>
      <trkpt lat="45.34209" lon="4.68888">
        <ele>379</ele>
        <time>2021-09-11T21:08:27Z</time>
      </trkpt>
      <trkpt lat="45.34225" lon="4.68937">
        <ele>375</ele>
        <time>2021-09-11T21:08:34Z</time>
      </trkpt>
      <trkpt lat="45.34255" lon="4.69009">
        <ele>369</ele>
        <time>2021-09-11T21:08:44Z</time>
      </trkpt>
      <trkpt lat="45.34272" lon="4.69062">
        <ele>368</ele>
        <time>2021-09-11T21:08:51Z</time>
      </trkpt>
      <trkpt lat="45.34304" lon="4.69168">
        <ele>370</ele>
        <time>2021-09-11T21:09:06Z</time>
      </trkpt>
      <trkpt lat="45.34308" lon="4.69196">
        <ele>370</ele>
        <time>2021-09-11T21:09:09Z</time>
      </trkpt>
      <trkpt lat="45.3431" lon="4.6924">
        <ele>372</ele>
        <time>2021-09-11T21:09:15Z</time>
      </trkpt>
      <trkpt lat="45.34307" lon="4.69342">
        <ele>373</ele>
        <time>2021-09-11T21:09:28Z</time>
      </trkpt>
      <trkpt lat="45.34309" lon="4.69441">
        <ele>374</ele>
        <time>2021-09-11T21:09:40Z</time>
      </trkpt>
      <trkpt lat="45.34306" lon="4.69492">
        <ele>376</ele>
        <time>2021-09-11T21:09:47Z</time>
      </trkpt>
      <trkpt lat="45.34306" lon="4.69508">
        <ele>376</ele>
        <time>2021-09-11T21:09:49Z</time>
      </trkpt>
      <trkpt lat="45.34312" lon="4.69569">
        <ele>375</ele>
        <time>2021-09-11T21:09:56Z</time>
      </trkpt>
      <trkpt lat="45.34308" lon="4.69598">
        <ele>377</ele>
        <time>2021-09-11T21:10:00Z</time>
      </trkpt>
      <trkpt lat="45.34304" lon="4.69613">
        <ele>378</ele>
        <time>2021-09-11T21:10:02Z</time>
      </trkpt>
      <trkpt lat="45.34296" lon="4.69675">
        <ele>382</ele>
        <time>2021-09-11T21:10:10Z</time>
      </trkpt>
      <trkpt lat="45.34296" lon="4.69789">
        <ele>384</ele>
        <time>2021-09-11T21:10:24Z</time>
      </trkpt>
      <trkpt lat="45.34297" lon="4.69801">
        <ele>384</ele>
        <time>2021-09-11T21:10:26Z</time>
      </trkpt>
      <trkpt lat="45.34301" lon="4.69812">
        <ele>383</ele>
        <time>2021-09-11T21:10:27Z</time>
      </trkpt>
      <trkpt lat="45.34337" lon="4.69895">
        <ele>379</ele>
        <time>2021-09-11T21:10:39Z</time>
      </trkpt>
      <trkpt lat="45.3434" lon="4.69908">
        <ele>379</ele>
        <time>2021-09-11T21:10:41Z</time>
      </trkpt>
      <trkpt lat="45.34342" lon="4.69946">
        <ele>382</ele>
        <time>2021-09-11T21:10:46Z</time>
      </trkpt>
      <trkpt lat="45.34344" lon="4.69963">
        <ele>383</ele>
        <time>2021-09-11T21:10:48Z</time>
      </trkpt>
      <trkpt lat="45.34353" lon="4.69991">
        <ele>384</ele>
        <time>2021-09-11T21:10:52Z</time>
      </trkpt>
      <trkpt lat="45.34356" lon="4.70004">
        <ele>384</ele>
        <time>2021-09-11T21:10:53Z</time>
      </trkpt>
      <trkpt lat="45.34361" lon="4.70068">
        <ele>386</ele>
        <time>2021-09-11T21:11:02Z</time>
      </trkpt>
      <trkpt lat="45.34365" lon="4.70081">
        <ele>385</ele>
        <time>2021-09-11T21:11:03Z</time>
      </trkpt>
      <trkpt lat="45.34375" lon="4.70102">
        <ele>386</ele>
        <time>2021-09-11T21:11:06Z</time>
      </trkpt>
      <trkpt lat="45.34402" lon="4.70132">
        <ele>385</ele>
        <time>2021-09-11T21:11:13Z</time>
      </trkpt>
      <trkpt lat="45.34408" lon="4.70145">
        <ele>385</ele>
        <time>2021-09-11T21:11:15Z</time>
      </trkpt>
      <trkpt lat="45.34414" lon="4.70167">
        <ele>386</ele>
        <time>2021-09-11T21:11:17Z</time>
      </trkpt>
      <trkpt lat="45.3443" lon="4.70282">
        <ele>386</ele>
        <time>2021-09-11T21:11:32Z</time>
      </trkpt>
      <trkpt lat="45.34442" lon="4.70349">
        <ele>388</ele>
        <time>2021-09-11T21:11:41Z</time>
      </trkpt>
      <trkpt lat="45.34454" lon="4.70382">
        <ele>389</ele>
        <time>2021-09-11T21:11:45Z</time>
      </trkpt>
      <trkpt lat="45.34479" lon="4.70424">
        <ele>390</ele>
        <time>2021-09-11T21:11:52Z</time>
      </trkpt>
      <trkpt lat="45.34491" lon="4.70456">
        <ele>390</ele>
        <time>2021-09-11T21:11:57Z</time>
      </trkpt>
      <trkpt lat="45.34508" lon="4.70555">
        <ele>392</ele>
        <time>2021-09-11T21:12:10Z</time>
      </trkpt>
      <trkpt lat="45.34515" lon="4.7061">
        <ele>393</ele>
        <time>2021-09-11T21:12:17Z</time>
      </trkpt>
      <trkpt lat="45.3452" lon="4.70662">
        <ele>396</ele>
        <time>2021-09-11T21:12:23Z</time>
      </trkpt>
      <trkpt lat="45.34521" lon="4.70683">
        <ele>396</ele>
        <time>2021-09-11T21:12:26Z</time>
      </trkpt>
      <trkpt lat="45.34519" lon="4.70723">
        <ele>397</ele>
        <time>2021-09-11T21:12:31Z</time>
      </trkpt>
      <trkpt lat="45.34522" lon="4.7076">
        <ele>397</ele>
        <time>2021-09-11T21:12:35Z</time>
      </trkpt>
      <trkpt lat="45.34532" lon="4.7081">
        <ele>396</ele>
        <time>2021-09-11T21:12:42Z</time>
      </trkpt>
      <trkpt lat="45.34538" lon="4.70832">
        <ele>395</ele>
        <time>2021-09-11T21:12:45Z</time>
      </trkpt>
      <trkpt lat="45.34555" lon="4.70869">
        <ele>395</ele>
        <time>2021-09-11T21:12:50Z</time>
      </trkpt>
      <trkpt lat="45.34574" lon="4.709">
        <ele>394</ele>
        <time>2021-09-11T21:12:56Z</time>
      </trkpt>
      <trkpt lat="45.34592" lon="4.7095">
        <ele>393</ele>
        <time>2021-09-11T21:13:03Z</time>
      </trkpt>
      <trkpt lat="45.34605" lon="4.70995">
        <ele>393</ele>
        <time>2021-09-11T21:13:09Z</time>
      </trkpt>
      <trkpt lat="45.34607" lon="4.71023">
        <ele>392</ele>
        <time>2021-09-11T21:13:12Z</time>
      </trkpt>
      <trkpt lat="45.34605" lon="4.71044">
        <ele>391</ele>
        <time>2021-09-11T21:13:15Z</time>
      </trkpt>
      <trkpt lat="45.34601" lon="4.7106">
        <ele>391</ele>
        <time>2021-09-11T21:13:17Z</time>
      </trkpt>
      <trkpt lat="45.34514" lon="4.71328">
        <ele>387</ele>
        <time>2021-09-11T21:13:54Z</time>
      </trkpt>
      <trkpt lat="45.34499" lon="4.71363">
        <ele>385</ele>
        <time>2021-09-11T21:13:59Z</time>
      </trkpt>
      <trkpt lat="45.34477" lon="4.71398">
        <ele>385</ele>
        <time>2021-09-11T21:14:05Z</time>
      </trkpt>
      <trkpt lat="45.34414" lon="4.71491">
        <ele>382</ele>
        <time>2021-09-11T21:14:21Z</time>
      </trkpt>
      <trkpt lat="45.34403" lon="4.71501">
        <ele>381</ele>
        <time>2021-09-11T21:14:23Z</time>
      </trkpt>
      <trkpt lat="45.3439" lon="4.71509">
        <ele>381</ele>
        <time>2021-09-11T21:14:26Z</time>
      </trkpt>
      <trkpt lat="45.34235" lon="4.71588">
        <ele>376</ele>
        <time>2021-09-11T21:14:55Z</time>
      </trkpt>
      <trkpt lat="45.34222" lon="4.71597">
        <ele>375</ele>
        <time>2021-09-11T21:14:58Z</time>
      </trkpt>
      <trkpt lat="45.34103" lon="4.71724">
        <ele>368</ele>
        <time>2021-09-11T21:15:24Z</time>
      </trkpt>
      <trkpt lat="45.33974" lon="4.71858">
        <ele>359</ele>
        <time>2021-09-11T21:15:53Z</time>
      </trkpt>
      <trkpt lat="45.33949" lon="4.71886">
        <ele>360</ele>
        <time>2021-09-11T21:15:58Z</time>
      </trkpt>
      <trkpt lat="45.33937" lon="4.71901">
        <ele>360</ele>
        <time>2021-09-11T21:16:01Z</time>
      </trkpt>
      <trkpt lat="45.33924" lon="4.71922">
        <ele>359</ele>
        <time>2021-09-11T21:16:05Z</time>
      </trkpt>
      <trkpt lat="45.33676" lon="4.72366">
        <ele>354</ele>
        <time>2021-09-11T21:17:16Z</time>
      </trkpt>
      <trkpt lat="45.33613" lon="4.72485">
        <ele>356</ele>
        <time>2021-09-11T21:17:34Z</time>
      </trkpt>
      <trkpt lat="45.3349" lon="4.72701">
        <ele>356</ele>
        <time>2021-09-11T21:18:09Z</time>
      </trkpt>
      <trkpt lat="45.33421" lon="4.7282">
        <ele>355</ele>
        <time>2021-09-11T21:18:28Z</time>
      </trkpt>
      <trkpt lat="45.33369" lon="4.72903">
        <ele>353</ele>
        <time>2021-09-11T21:18:42Z</time>
      </trkpt>
      <trkpt lat="45.33357" lon="4.72917">
        <ele>352</ele>
        <time>2021-09-11T21:18:45Z</time>
      </trkpt>
      <trkpt lat="45.33214" lon="4.72984">
        <ele>344</ele>
        <time>2021-09-11T21:19:12Z</time>
      </trkpt>
      <trkpt lat="45.33171" lon="4.73">
        <ele>339</ele>
        <time>2021-09-11T21:19:20Z</time>
      </trkpt>
      <trkpt lat="45.33126" lon="4.73023">
        <ele>340</ele>
        <time>2021-09-11T21:19:28Z</time>
      </trkpt>
      <trkpt lat="45.33111" lon="4.73037">
        <ele>341</ele>
        <time>2021-09-11T21:19:31Z</time>
      </trkpt>
      <trkpt lat="45.331" lon="4.73062">
        <ele>342</ele>
        <time>2021-09-11T21:19:35Z</time>
      </trkpt>
      <trkpt lat="45.33081" lon="4.73261">
        <ele>345</ele>
        <time>2021-09-11T21:20:00Z</time>
      </trkpt>
      <trkpt lat="45.33081" lon="4.73285">
        <ele>346</ele>
        <time>2021-09-11T21:20:03Z</time>
      </trkpt>
      <trkpt lat="45.33053" lon="4.73319">
        <ele>348</ele>
        <time>2021-09-11T21:20:10Z</time>
      </trkpt>
      <trkpt lat="45.33039" lon="4.73327">
        <ele>349</ele>
        <time>2021-09-11T21:20:12Z</time>
      </trkpt>
      <trkpt lat="45.3302" lon="4.73333">
        <ele>350</ele>
        <time>2021-09-11T21:20:16Z</time>
      </trkpt>
      <trkpt lat="45.32614" lon="4.73363">
        <ele>375</ele>
        <time>2021-09-11T21:21:28Z</time>
      </trkpt>
      <trkpt lat="45.32534" lon="4.7336">
        <ele>379</ele>
        <time>2021-09-11T21:21:42Z</time>
      </trkpt>
      <trkpt lat="45.32503" lon="4.73354">
        <ele>381</ele>
        <time>2021-09-11T21:21:48Z</time>
      </trkpt>
      <trkpt lat="45.3247" lon="4.73343">
        <ele>381</ele>
        <time>2021-09-11T21:21:54Z</time>
      </trkpt>
      <trkpt lat="45.32373" lon="4.73273">
        <ele>382</ele>
        <time>2021-09-11T21:22:13Z</time>
      </trkpt>
      <trkpt lat="45.32307" lon="4.73244">
        <ele>384</ele>
        <time>2021-09-11T21:22:26Z</time>
      </trkpt>
      <trkpt lat="45.32284" lon="4.73241">
        <ele>384</ele>
        <time>2021-09-11T21:22:30Z</time>
      </trkpt>
      <trkpt lat="45.32173" lon="4.73237">
        <ele>386</ele>
        <time>2021-09-11T21:22:50Z</time>
      </trkpt>
      <trkpt lat="45.32153" lon="4.7323">
        <ele>386</ele>
        <time>2021-09-11T21:22:53Z</time>
      </trkpt>
      <trkpt lat="45.32134" lon="4.73217">
        <ele>387</ele>
        <time>2021-09-11T21:22:57Z</time>
      </trkpt>
      <trkpt lat="45.32095" lon="4.73187">
        <ele>388</ele>
        <time>2021-09-11T21:23:05Z</time>
      </trkpt>
      <trkpt lat="45.32074" lon="4.73174">
        <ele>388</ele>
        <time>2021-09-11T21:23:09Z</time>
      </trkpt>
      <trkpt lat="45.32049" lon="4.73166">
        <ele>388</ele>
        <time>2021-09-11T21:23:13Z</time>
      </trkpt>
      <trkpt lat="45.31924" lon="4.73166">
        <ele>388</ele>
        <time>2021-09-11T21:23:36Z</time>
      </trkpt>
      <trkpt lat="45.31895" lon="4.73152">
        <ele>389</ele>
        <time>2021-09-11T21:23:41Z</time>
      </trkpt>
      <trkpt lat="45.31831" lon="4.73109">
        <ele>392</ele>
        <time>2021-09-11T21:23:54Z</time>
      </trkpt>
      <trkpt lat="45.31808" lon="4.73081">
        <ele>393</ele>
        <time>2021-09-11T21:23:59Z</time>
      </trkpt>
      <trkpt lat="45.31761" lon="4.72929">
        <ele>400</ele>
        <time>2021-09-11T21:24:20Z</time>
      </trkpt>
      <trkpt lat="45.31708" lon="4.7287">
        <ele>402</ele>
        <time>2021-09-11T21:24:32Z</time>
      </trkpt>
      <trkpt lat="45.31717" lon="4.72836">
        <ele>404</ele>
        <time>2021-09-11T21:24:36Z</time>
      </trkpt>
      <trkpt lat="45.31713" lon="4.72827">
        <ele>404</ele>
        <time>2021-09-11T21:24:38Z</time>
      </trkpt>
      <trkpt lat="45.31723" lon="4.72824">
        <ele>405</ele>
        <time>2021-09-11T21:24:40Z</time>
      </trkpt>
      <trkpt lat="45.31737" lon="4.72812">
        <ele>406</ele>
        <time>2021-09-11T21:24:43Z</time>
      </trkpt>
      <trkpt lat="45.31734" lon="4.72801">
        <ele>406</ele>
        <time>2021-09-11T21:24:44Z</time>
      </trkpt>
      <trkpt lat="45.31737" lon="4.72812">
        <ele>406</ele>
        <time>2021-09-11T21:24:45Z</time>
      </trkpt>
      <trkpt lat="45.31723" lon="4.72824">
        <ele>405</ele>
        <time>2021-09-11T21:24:48Z</time>
      </trkpt>
      <trkpt lat="45.31713" lon="4.72827">
        <ele>404</ele>
        <time>2021-09-11T21:24:50Z</time>
      </trkpt>
      <trkpt lat="45.31717" lon="4.72836">
        <ele>404</ele>
        <time>2021-09-11T21:24:52Z</time>
      </trkpt>
      <trkpt lat="45.31708" lon="4.7287">
        <ele>402</ele>
        <time>2021-09-11T21:24:56Z</time>
      </trkpt>
      <trkpt lat="45.31687" lon="4.72846">
        <ele>402</ele>
        <time>2021-09-11T21:25:01Z</time>
      </trkpt>
      <trkpt lat="45.31678" lon="4.72842">
        <ele>401</ele>
        <time>2021-09-11T21:25:03Z</time>
      </trkpt>
      <trkpt lat="45.31654" lon="4.72879">
        <ele>399</ele>
        <time>2021-09-11T21:25:09Z</time>
      </trkpt>
      <trkpt lat="45.31649" lon="4.7288">
        <ele>398</ele>
        <time>2021-09-11T21:25:10Z</time>
      </trkpt>
      <trkpt lat="45.31656" lon="4.73637">
        <ele>365</ele>
        <time>2021-09-11T21:26:44Z</time>
      </trkpt>
      <trkpt lat="45.31651" lon="4.7367">
        <ele>364</ele>
        <time>2021-09-11T21:26:49Z</time>
      </trkpt>
      <trkpt lat="45.31643" lon="4.73699">
        <ele>364</ele>
        <time>2021-09-11T21:26:53Z</time>
      </trkpt>
      <trkpt lat="45.31631" lon="4.73717">
        <ele>364</ele>
        <time>2021-09-11T21:26:56Z</time>
      </trkpt>
      <trkpt lat="45.31614" lon="4.73733">
        <ele>363</ele>
        <time>2021-09-11T21:26:59Z</time>
      </trkpt>
      <trkpt lat="45.31601" lon="4.73739">
        <ele>363</ele>
        <time>2021-09-11T21:27:02Z</time>
      </trkpt>
      <trkpt lat="45.31549" lon="4.73753">
        <ele>359</ele>
        <time>2021-09-11T21:27:11Z</time>
      </trkpt>
      <trkpt lat="45.31532" lon="4.73762">
        <ele>357</ele>
        <time>2021-09-11T21:27:14Z</time>
      </trkpt>
      <trkpt lat="45.31513" lon="4.73785">
        <ele>355</ele>
        <time>2021-09-11T21:27:19Z</time>
      </trkpt>
      <trkpt lat="45.31478" lon="4.7384">
        <ele>353</ele>
        <time>2021-09-11T21:27:28Z</time>
      </trkpt>
      <trkpt lat="45.31464" lon="4.73854">
        <ele>353</ele>
        <time>2021-09-11T21:27:31Z</time>
      </trkpt>
      <trkpt lat="45.31448" lon="4.73862">
        <ele>353</ele>
        <time>2021-09-11T21:27:34Z</time>
      </trkpt>
      <trkpt lat="45.31424" lon="4.73866">
        <ele>352</ele>
        <time>2021-09-11T21:27:38Z</time>
      </trkpt>
      <trkpt lat="45.31274" lon="4.7386">
        <ele>345</ele>
        <time>2021-09-11T21:28:05Z</time>
      </trkpt>
      <trkpt lat="45.31256" lon="4.73868">
        <ele>345</ele>
        <time>2021-09-11T21:28:09Z</time>
      </trkpt>
      <trkpt lat="45.31239" lon="4.73888">
        <ele>344</ele>
        <time>2021-09-11T21:28:12Z</time>
      </trkpt>
      <trkpt lat="45.31208" lon="4.73972">
        <ele>343</ele>
        <time>2021-09-11T21:28:24Z</time>
      </trkpt>
      <trkpt lat="45.31197" lon="4.73993">
        <ele>343</ele>
        <time>2021-09-11T21:28:28Z</time>
      </trkpt>
      <trkpt lat="45.31189" lon="4.74">
        <ele>342</ele>
        <time>2021-09-11T21:28:29Z</time>
      </trkpt>
      <trkpt lat="45.31122" lon="4.74042">
        <ele>338</ele>
        <time>2021-09-11T21:28:42Z</time>
      </trkpt>
      <trkpt lat="45.30994" lon="4.74127">
        <ele>340</ele>
        <time>2021-09-11T21:29:07Z</time>
      </trkpt>
      <trkpt lat="45.30975" lon="4.74145">
        <ele>340</ele>
        <time>2021-09-11T21:29:11Z</time>
      </trkpt>
      <trkpt lat="45.30959" lon="4.74154">
        <ele>340</ele>
        <time>2021-09-11T21:29:15Z</time>
      </trkpt>
      <trkpt lat="45.3095" lon="4.74156">
        <ele>340</ele>
        <time>2021-09-11T21:29:16Z</time>
      </trkpt>
      <trkpt lat="45.30943" lon="4.74152">
        <ele>340</ele>
        <time>2021-09-11T21:29:18Z</time>
      </trkpt>
      <trkpt lat="45.30936" lon="4.74144">
        <ele>341</ele>
        <time>2021-09-11T21:29:19Z</time>
      </trkpt>
      <trkpt lat="45.30899" lon="4.74082">
        <ele>344</ele>
        <time>2021-09-11T21:29:29Z</time>
      </trkpt>
      <trkpt lat="45.30889" lon="4.74072">
        <ele>344</ele>
        <time>2021-09-11T21:29:31Z</time>
      </trkpt>
      <trkpt lat="45.30883" lon="4.74065">
        <ele>344</ele>
        <time>2021-09-11T21:29:33Z</time>
      </trkpt>
      <trkpt lat="45.30868" lon="4.74057">
        <ele>345</ele>
        <time>2021-09-11T21:29:36Z</time>
      </trkpt>
      <trkpt lat="45.30861" lon="4.74045">
        <ele>345</ele>
        <time>2021-09-11T21:29:38Z</time>
      </trkpt>
      <trkpt lat="45.3085" lon="4.74038">
        <ele>345</ele>
        <time>2021-09-11T21:29:40Z</time>
      </trkpt>
      <trkpt lat="45.30839" lon="4.74039">
        <ele>346</ele>
        <time>2021-09-11T21:29:42Z</time>
      </trkpt>
      <trkpt lat="45.30832" lon="4.74045">
        <ele>345</ele>
        <time>2021-09-11T21:29:43Z</time>
      </trkpt>
      <trkpt lat="45.30826" lon="4.74053">
        <ele>345</ele>
        <time>2021-09-11T21:29:45Z</time>
      </trkpt>
      <trkpt lat="45.30823" lon="4.74068">
        <ele>345</ele>
        <time>2021-09-11T21:29:47Z</time>
      </trkpt>
      <trkpt lat="45.30824" lon="4.74082">
        <ele>344</ele>
        <time>2021-09-11T21:29:48Z</time>
      </trkpt>
      <trkpt lat="45.30829" lon="4.74095">
        <ele>344</ele>
        <time>2021-09-11T21:29:50Z</time>
      </trkpt>
      <trkpt lat="45.30836" lon="4.74102">
        <ele>343</ele>
        <time>2021-09-11T21:29:52Z</time>
      </trkpt>
      <trkpt lat="45.30846" lon="4.74105">
        <ele>343</ele>
        <time>2021-09-11T21:29:54Z</time>
      </trkpt>
      <trkpt lat="45.30856" lon="4.74114">
        <ele>343</ele>
        <time>2021-09-11T21:29:56Z</time>
      </trkpt>
      <trkpt lat="45.30859" lon="4.7411">
        <ele>343</ele>
        <time>2021-09-11T21:29:56Z</time>
      </trkpt>
      <trkpt lat="45.30869" lon="4.74106">
        <ele>343</ele>
        <time>2021-09-11T21:29:58Z</time>
      </trkpt>
      <trkpt lat="45.30859" lon="4.7411">
        <ele>343</ele>
        <time>2021-09-11T21:30:00Z</time>
      </trkpt>
      <trkpt lat="45.30856" lon="4.74114">
        <ele>343</ele>
        <time>2021-09-11T21:30:01Z</time>
      </trkpt>
      <trkpt lat="45.30887" lon="4.74163">
        <ele>340</ele>
        <time>2021-09-11T21:30:09Z</time>
      </trkpt>
      <trkpt lat="45.30915" lon="4.74217">
        <ele>339</ele>
        <time>2021-09-11T21:30:17Z</time>
      </trkpt>
      <trkpt lat="45.30926" lon="4.74249">
        <ele>338</ele>
        <time>2021-09-11T21:30:22Z</time>
      </trkpt>
      <trkpt lat="45.30929" lon="4.74275">
        <ele>337</ele>
        <time>2021-09-11T21:30:25Z</time>
      </trkpt>
      <trkpt lat="45.30928" lon="4.74307">
        <ele>335</ele>
        <time>2021-09-11T21:30:29Z</time>
      </trkpt>
      <trkpt lat="45.30927" lon="4.74348">
        <ele>333</ele>
        <time>2021-09-11T21:30:34Z</time>
      </trkpt>
      <trkpt lat="45.30928" lon="4.74475">
        <ele>332</ele>
        <time>2021-09-11T21:30:50Z</time>
      </trkpt>
      <trkpt lat="45.30948" lon="4.74818">
        <ele>318</ele>
        <time>2021-09-11T21:31:33Z</time>
      </trkpt>
      <trkpt lat="45.30949" lon="4.74849">
        <ele>317</ele>
        <time>2021-09-11T21:31:37Z</time>
      </trkpt>
      <trkpt lat="45.30946" lon="4.749">
        <ele>315</ele>
        <time>2021-09-11T21:31:44Z</time>
      </trkpt>
      <trkpt lat="45.30947" lon="4.74921">
        <ele>314</ele>
        <time>2021-09-11T21:31:46Z</time>
      </trkpt>
      <trkpt lat="45.30933" lon="4.75051">
        <ele>311</ele>
        <time>2021-09-11T21:32:03Z</time>
      </trkpt>
      <trkpt lat="45.30935" lon="4.751">
        <ele>307</ele>
        <time>2021-09-11T21:32:09Z</time>
      </trkpt>
      <trkpt lat="45.30945" lon="4.75153">
        <ele>302</ele>
        <time>2021-09-11T21:32:16Z</time>
      </trkpt>
      <trkpt lat="45.30958" lon="4.752">
        <ele>297</ele>
        <time>2021-09-11T21:32:22Z</time>
      </trkpt>
      <trkpt lat="45.30991" lon="4.75271">
        <ele>295</ele>
        <time>2021-09-11T21:32:33Z</time>
      </trkpt>
      <trkpt lat="45.30997" lon="4.7531">
        <ele>292</ele>
        <time>2021-09-11T21:32:38Z</time>
      </trkpt>
      <trkpt lat="45.30993" lon="4.75348">
        <ele>287</ele>
        <time>2021-09-11T21:32:43Z</time>
      </trkpt>
      <trkpt lat="45.30972" lon="4.75407">
        <ele>278</ele>
        <time>2021-09-11T21:32:51Z</time>
      </trkpt>
      <trkpt lat="45.30963" lon="4.75426">
        <ele>273</ele>
        <time>2021-09-11T21:32:54Z</time>
      </trkpt>
      <trkpt lat="45.30959" lon="4.75447">
        <ele>269</ele>
        <time>2021-09-11T21:32:56Z</time>
      </trkpt>
      <trkpt lat="45.30963" lon="4.75472">
        <ele>266</ele>
        <time>2021-09-11T21:33:00Z</time>
      </trkpt>
      <trkpt lat="45.30969" lon="4.75484">
        <ele>265</ele>
        <time>2021-09-11T21:33:01Z</time>
      </trkpt>
      <trkpt lat="45.30979" lon="4.75491">
        <ele>266</ele>
        <time>2021-09-11T21:33:03Z</time>
      </trkpt>
      <trkpt lat="45.31016" lon="4.75508">
        <ele>271</ele>
        <time>2021-09-11T21:33:10Z</time>
      </trkpt>
      <trkpt lat="45.31036" lon="4.75524">
        <ele>272</ele>
        <time>2021-09-11T21:33:14Z</time>
      </trkpt>
      <trkpt lat="45.31106" lon="4.756">
        <ele>270</ele>
        <time>2021-09-11T21:33:30Z</time>
      </trkpt>
      <trkpt lat="45.31117" lon="4.75625">
        <ele>268</ele>
        <time>2021-09-11T21:33:34Z</time>
      </trkpt>
      <trkpt lat="45.31119" lon="4.75653">
        <ele>262</ele>
        <time>2021-09-11T21:33:37Z</time>
      </trkpt>
      <trkpt lat="45.31118" lon="4.75677">
        <ele>256</ele>
        <time>2021-09-11T21:33:40Z</time>
      </trkpt>
      <trkpt lat="45.31128" lon="4.75717">
        <ele>251</ele>
        <time>2021-09-11T21:33:46Z</time>
      </trkpt>
      <trkpt lat="45.31148" lon="4.75742">
        <ele>252</ele>
        <time>2021-09-11T21:33:50Z</time>
      </trkpt>
      <trkpt lat="45.31184" lon="4.75774">
        <ele>257</ele>
        <time>2021-09-11T21:33:58Z</time>
      </trkpt>
      <trkpt lat="45.31204" lon="4.75809">
        <ele>256</ele>
        <time>2021-09-11T21:34:04Z</time>
      </trkpt>
      <trkpt lat="45.3125" lon="4.75975">
        <ele>249</ele>
        <time>2021-09-11T21:34:26Z</time>
      </trkpt>
      <trkpt lat="45.31249" lon="4.76004">
        <ele>247</ele>
        <time>2021-09-11T21:34:29Z</time>
      </trkpt>
      <trkpt lat="45.31243" lon="4.76029">
        <ele>248</ele>
        <time>2021-09-11T21:34:33Z</time>
      </trkpt>
      <trkpt lat="45.31218" lon="4.76064">
        <ele>242</ele>
        <time>2021-09-11T21:34:39Z</time>
      </trkpt>
      <trkpt lat="45.31142" lon="4.76152">
        <ele>231</ele>
        <time>2021-09-11T21:34:56Z</time>
      </trkpt>
      <trkpt lat="45.31119" lon="4.76182">
        <ele>226</ele>
        <time>2021-09-11T21:35:02Z</time>
      </trkpt>
      <trkpt lat="45.31106" lon="4.76209">
        <ele>224</ele>
        <time>2021-09-11T21:35:06Z</time>
      </trkpt>
      <trkpt lat="45.31093" lon="4.76265">
        <ele>223</ele>
        <time>2021-09-11T21:35:14Z</time>
      </trkpt>
      <trkpt lat="45.31086" lon="4.7633">
        <ele>220</ele>
        <time>2021-09-11T21:35:22Z</time>
      </trkpt>
      <trkpt lat="45.31077" lon="4.76457">
        <ele>211</ele>
        <time>2021-09-11T21:35:38Z</time>
      </trkpt>
      <trkpt lat="45.31081" lon="4.765">
        <ele>207</ele>
        <time>2021-09-11T21:35:43Z</time>
      </trkpt>
      <trkpt lat="45.31097" lon="4.76545">
        <ele>202</ele>
        <time>2021-09-11T21:35:49Z</time>
      </trkpt>
      <trkpt lat="45.3114" lon="4.76594">
        <ele>206</ele>
        <time>2021-09-11T21:35:59Z</time>
      </trkpt>
      <trkpt lat="45.31157" lon="4.76636">
        <ele>198</ele>
        <time>2021-09-11T21:36:05Z</time>
      </trkpt>
      <trkpt lat="45.31164" lon="4.76648">
        <ele>195</ele>
        <time>2021-09-11T21:36:07Z</time>
      </trkpt>
      <trkpt lat="45.31188" lon="4.76654">
        <ele>198</ele>
        <time>2021-09-11T21:36:12Z</time>
      </trkpt>
      <trkpt lat="45.31206" lon="4.76667">
        <ele>196</ele>
        <time>2021-09-11T21:36:15Z</time>
      </trkpt>
      <trkpt lat="45.3122" lon="4.76683">
        <ele>193</ele>
        <time>2021-09-11T21:36:18Z</time>
      </trkpt>
      <trkpt lat="45.3125" lon="4.767">
        <ele>193</ele>
        <time>2021-09-11T21:36:24Z</time>
      </trkpt>
      <trkpt lat="45.31276" lon="4.76708">
        <ele>196</ele>
        <time>2021-09-11T21:36:29Z</time>
      </trkpt>
      <trkpt lat="45.31289" lon="4.76721">
        <ele>196</ele>
        <time>2021-09-11T21:36:32Z</time>
      </trkpt>
      <trkpt lat="45.31292" lon="4.7674">
        <ele>192</ele>
        <time>2021-09-11T21:36:34Z</time>
      </trkpt>
      <trkpt lat="45.31287" lon="4.768">
        <ele>178</ele>
        <time>2021-09-11T21:36:42Z</time>
      </trkpt>
      <trkpt lat="45.31306" lon="4.76839">
        <ele>175</ele>
        <time>2021-09-11T21:36:48Z</time>
      </trkpt>
      <trkpt lat="45.31321" lon="4.76863">
        <ele>171</ele>
        <time>2021-09-11T21:36:52Z</time>
      </trkpt>
      <trkpt lat="45.31331" lon="4.76872">
        <ele>171</ele>
        <time>2021-09-11T21:36:54Z</time>
      </trkpt>
      <trkpt lat="45.31343" lon="4.76876">
        <ele>168</ele>
        <time>2021-09-11T21:36:56Z</time>
      </trkpt>
      <trkpt lat="45.31353" lon="4.76873">
        <ele>168</ele>
        <time>2021-09-11T21:36:58Z</time>
      </trkpt>
      <trkpt lat="45.31366" lon="4.76867">
        <ele>169</ele>
        <time>2021-09-11T21:37:00Z</time>
      </trkpt>
      <trkpt lat="45.31401" lon="4.7684">
        <ele>174</ele>
        <time>2021-09-11T21:37:07Z</time>
      </trkpt>
      <trkpt lat="45.31423" lon="4.76837">
        <ele>171</ele>
        <time>2021-09-11T21:37:11Z</time>
      </trkpt>
      <trkpt lat="45.31448" lon="4.76826">
        <ele>167</ele>
        <time>2021-09-11T21:37:16Z</time>
      </trkpt>
      <trkpt lat="45.31472" lon="4.76803">
        <ele>166</ele>
        <time>2021-09-11T21:37:21Z</time>
      </trkpt>
      <trkpt lat="45.31511" lon="4.76759">
        <ele>165</ele>
        <time>2021-09-11T21:37:30Z</time>
      </trkpt>
      <trkpt lat="45.31568" lon="4.76657">
        <ele>165</ele>
        <time>2021-09-11T21:37:46Z</time>
      </trkpt>
      <trkpt lat="45.31599" lon="4.76592">
        <ele>166</ele>
        <time>2021-09-11T21:37:56Z</time>
      </trkpt>
      <trkpt lat="45.31669" lon="4.76493">
        <ele>155</ele>
        <time>2021-09-11T21:38:14Z</time>
      </trkpt>
      <trkpt lat="45.31689" lon="4.76475">
        <ele>154</ele>
        <time>2021-09-11T21:38:18Z</time>
      </trkpt>
      <trkpt lat="45.31707" lon="4.76463">
        <ele>152</ele>
        <time>2021-09-11T21:38:21Z</time>
      </trkpt>
      <trkpt lat="45.31714" lon="4.76466">
        <ele>151</ele>
        <time>2021-09-11T21:38:23Z</time>
      </trkpt>
      <trkpt lat="45.31724" lon="4.76478">
        <ele>148</ele>
        <time>2021-09-11T21:38:25Z</time>
      </trkpt>
      <trkpt lat="45.31731" lon="4.76489">
        <ele>146</ele>
        <time>2021-09-11T21:38:27Z</time>
      </trkpt>
      <trkpt lat="45.31765" lon="4.76551">
        <ele>140</ele>
        <time>2021-09-11T21:38:37Z</time>
      </trkpt>
      <trkpt lat="45.31771" lon="4.76583">
        <ele>140</ele>
        <time>2021-09-11T21:38:41Z</time>
      </trkpt>
      <trkpt lat="45.31769" lon="4.76594">
        <ele>139</ele>
        <time>2021-09-11T21:38:42Z</time>
      </trkpt>
      <trkpt lat="45.31772" lon="4.76604">
        <ele>139</ele>
        <time>2021-09-11T21:38:44Z</time>
      </trkpt>
      <trkpt lat="45.31781" lon="4.7661">
        <ele>139</ele>
        <time>2021-09-11T21:38:45Z</time>
      </trkpt>
      <trkpt lat="45.3179" lon="4.76615">
        <ele>138</ele>
        <time>2021-09-11T21:38:47Z</time>
      </trkpt>
      <trkpt lat="45.31834" lon="4.76712">
        <ele>136</ele>
        <time>2021-09-11T21:39:01Z</time>
      </trkpt>
      <trkpt lat="45.31894" lon="4.76838">
        <ele>137</ele>
        <time>2021-09-11T21:39:21Z</time>
      </trkpt>
      <trkpt lat="45.31872" lon="4.76863">
        <ele>138</ele>
        <time>2021-09-11T21:39:26Z</time>
      </trkpt>
      <trkpt lat="45.31859" lon="4.7687">
        <ele>138</ele>
        <time>2021-09-11T21:39:28Z</time>
      </trkpt>
      <trkpt lat="45.31841" lon="4.76886">
        <ele>139</ele>
        <time>2021-09-11T21:39:32Z</time>
      </trkpt>
      <trkpt lat="45.31832" lon="4.769">
        <ele>139</ele>
        <time>2021-09-11T21:39:34Z</time>
      </trkpt>
      <trkpt lat="45.31725" lon="4.771">
        <ele>137</ele>
        <time>2021-09-11T21:40:06Z</time>
      </trkpt>
      <trkpt lat="45.31687" lon="4.77157">
        <ele>137</ele>
        <time>2021-09-11T21:40:15Z</time>
      </trkpt>
      <trkpt lat="45.31669" lon="4.77206">
        <ele>138</ele>
        <time>2021-09-11T21:40:22Z</time>
      </trkpt>
      <trkpt lat="45.31523" lon="4.77455">
        <ele>138</ele>
        <time>2021-09-11T21:41:03Z</time>
      </trkpt>
      <trkpt lat="45.31417" lon="4.77641">
        <ele>137</ele>
        <time>2021-09-11T21:41:33Z</time>
      </trkpt>
      <trkpt lat="45.31388" lon="4.77739">
        <ele>137</ele>
        <time>2021-09-11T21:41:46Z</time>
      </trkpt>
      <trkpt lat="45.31366" lon="4.77796">
        <ele>137</ele>
        <time>2021-09-11T21:41:54Z</time>
      </trkpt>
      <trkpt lat="45.31365" lon="4.77806">
        <ele>137</ele>
        <time>2021-09-11T21:41:56Z</time>
      </trkpt>
      <trkpt lat="45.31347" lon="4.77834">
        <ele>137</ele>
        <time>2021-09-11T21:42:00Z</time>
      </trkpt>
      <trkpt lat="45.31301" lon="4.7787">
        <ele>137</ele>
        <time>2021-09-11T21:42:10Z</time>
      </trkpt>
      <trkpt lat="45.31295" lon="4.77879">
        <ele>137</ele>
        <time>2021-09-11T21:42:11Z</time>
      </trkpt>
      <trkpt lat="45.31294" lon="4.77885">
        <ele>137</ele>
        <time>2021-09-11T21:42:12Z</time>
      </trkpt>
      <trkpt lat="45.31302" lon="4.77914">
        <ele>137</ele>
        <time>2021-09-11T21:42:16Z</time>
      </trkpt>
      <trkpt lat="45.31293" lon="4.77938">
        <ele>137</ele>
        <time>2021-09-11T21:42:19Z</time>
      </trkpt>
      <trkpt lat="45.31274" lon="4.77958">
        <ele>137</ele>
        <time>2021-09-11T21:42:24Z</time>
      </trkpt>
      <trkpt lat="45.31223" lon="4.78033">
        <ele>137</ele>
        <time>2021-09-11T21:42:37Z</time>
      </trkpt>
      <trkpt lat="45.31204" lon="4.78067">
        <ele>137</ele>
        <time>2021-09-11T21:42:42Z</time>
      </trkpt>
      <trkpt lat="45.31173" lon="4.78169">
        <ele>138</ele>
        <time>2021-09-11T21:42:56Z</time>
      </trkpt>
      <trkpt lat="45.31149" lon="4.78234">
        <ele>136</ele>
        <time>2021-09-11T21:43:05Z</time>
      </trkpt>
      <trkpt lat="45.31138" lon="4.78266">
        <ele>135</ele>
        <time>2021-09-11T21:43:10Z</time>
      </trkpt>
      <trkpt lat="45.31105" lon="4.78377">
        <ele>136</ele>
        <time>2021-09-11T21:43:25Z</time>
      </trkpt>
      <trkpt lat="45.31099" lon="4.78406">
        <ele>136</ele>
        <time>2021-09-11T21:43:28Z</time>
      </trkpt>
      <trkpt lat="45.31099" lon="4.78449">
        <ele>135</ele>
        <time>2021-09-11T21:43:34Z</time>
      </trkpt>
      <trkpt lat="45.31105" lon="4.78477">
        <ele>135</ele>
        <time>2021-09-11T21:43:37Z</time>
      </trkpt>
      <trkpt lat="45.31102" lon="4.78485">
        <ele>135</ele>
        <time>2021-09-11T21:43:39Z</time>
      </trkpt>
      <trkpt lat="45.31048" lon="4.78554">
        <ele>136</ele>
        <time>2021-09-11T21:43:51Z</time>
      </trkpt>
      <trkpt lat="45.31036" lon="4.7858">
        <ele>138</ele>
        <time>2021-09-11T21:43:55Z</time>
      </trkpt>
      <trkpt lat="45.31032" lon="4.7861">
        <ele>137</ele>
        <time>2021-09-11T21:43:59Z</time>
      </trkpt>
      <trkpt lat="45.31016" lon="4.78598">
        <ele>140</ele>
        <time>2021-09-11T21:44:02Z</time>
      </trkpt>
      <trkpt lat="45.31013" lon="4.78598">
        <ele>140</ele>
        <time>2021-09-11T21:44:03Z</time>
      </trkpt>
      <trkpt lat="45.31008" lon="4.78603">
        <ele>140</ele>
        <time>2021-09-11T21:44:04Z</time>
      </trkpt>
      <trkpt lat="45.30925" lon="4.78726">
        <ele>133</ele>
        <time>2021-09-11T21:44:25Z</time>
      </trkpt>
      <trkpt lat="45.30879" lon="4.78791">
        <ele>134</ele>
        <time>2021-09-11T21:44:37Z</time>
      </trkpt>
      <trkpt lat="45.30869" lon="4.78814">
        <ele>135</ele>
        <time>2021-09-11T21:44:40Z</time>
      </trkpt>
      <trkpt lat="45.3086" lon="4.78837">
        <ele>135</ele>
        <time>2021-09-11T21:44:44Z</time>
      </trkpt>
      <trkpt lat="45.30836" lon="4.78892">
        <ele>136</ele>
        <time>2021-09-11T21:44:52Z</time>
      </trkpt>
      <trkpt lat="45.30782" lon="4.78967">
        <ele>137</ele>
        <time>2021-09-11T21:45:05Z</time>
      </trkpt>
      <trkpt lat="45.30766" lon="4.79002">
        <ele>137</ele>
        <time>2021-09-11T21:45:10Z</time>
      </trkpt>
      <trkpt lat="45.30761" lon="4.7902">
        <ele>138</ele>
        <time>2021-09-11T21:45:13Z</time>
      </trkpt>
      <trkpt lat="45.30742" lon="4.79135">
        <ele>138</ele>
        <time>2021-09-11T21:45:28Z</time>
      </trkpt>
      <trkpt lat="45.30733" lon="4.79184">
        <ele>138</ele>
        <time>2021-09-11T21:45:34Z</time>
      </trkpt>
      <trkpt lat="45.30732" lon="4.7921">
        <ele>138</ele>
        <time>2021-09-11T21:45:37Z</time>
      </trkpt>
      <trkpt lat="45.30738" lon="4.79256">
        <ele>137</ele>
        <time>2021-09-11T21:45:43Z</time>
      </trkpt>
      <trkpt lat="45.30736" lon="4.79352">
        <ele>137</ele>
        <time>2021-09-11T21:45:55Z</time>
      </trkpt>
      <trkpt lat="45.30739" lon="4.79372">
        <ele>138</ele>
        <time>2021-09-11T21:45:58Z</time>
      </trkpt>
      <trkpt lat="45.3075" lon="4.79424">
        <ele>138</ele>
        <time>2021-09-11T21:46:04Z</time>
      </trkpt>
      <trkpt lat="45.30665" lon="4.79486">
        <ele>143</ele>
        <time>2021-09-11T21:46:21Z</time>
      </trkpt>
      <trkpt lat="45.30651" lon="4.79499">
        <ele>142</ele>
        <time>2021-09-11T21:46:24Z</time>
      </trkpt>
      <trkpt lat="45.30638" lon="4.79514">
        <ele>142</ele>
        <time>2021-09-11T21:46:27Z</time>
      </trkpt>
      <trkpt lat="45.30629" lon="4.79532">
        <ele>141</ele>
        <time>2021-09-11T21:46:30Z</time>
      </trkpt>
      <trkpt lat="45.30622" lon="4.79555">
        <ele>141</ele>
        <time>2021-09-11T21:46:33Z</time>
      </trkpt>
      <trkpt lat="45.30621" lon="4.79567">
        <ele>141</ele>
        <time>2021-09-11T21:46:35Z</time>
      </trkpt>
      <trkpt lat="45.3062" lon="4.79591">
        <ele>140</ele>
        <time>2021-09-11T21:46:38Z</time>
      </trkpt>
      <trkpt lat="45.30622" lon="4.79604">
        <ele>140</ele>
        <time>2021-09-11T21:46:39Z</time>
      </trkpt>
      <trkpt lat="45.30631" lon="4.79633">
        <ele>139</ele>
        <time>2021-09-11T21:46:43Z</time>
      </trkpt>
      <trkpt lat="45.30693" lon="4.798">
        <ele>136</ele>
        <time>2021-09-11T21:47:07Z</time>
      </trkpt>
      <trkpt lat="45.30761" lon="4.79982">
        <ele>139</ele>
        <time>2021-09-11T21:47:33Z</time>
      </trkpt>
      <trkpt lat="45.30774" lon="4.80029">
        <ele>138</ele>
        <time>2021-09-11T21:47:39Z</time>
      </trkpt>
      <trkpt lat="45.30783" lon="4.80072">
        <ele>136</ele>
        <time>2021-09-11T21:47:45Z</time>
      </trkpt>
      <trkpt lat="45.30792" lon="4.80133">
        <ele>135</ele>
        <time>2021-09-11T21:47:53Z</time>
      </trkpt>
      <trkpt lat="45.30794" lon="4.80167">
        <ele>135</ele>
        <time>2021-09-11T21:47:57Z</time>
      </trkpt>
      <trkpt lat="45.30798" lon="4.8016">
        <ele>135</ele>
        <time>2021-09-11T21:47:58Z</time>
      </trkpt>
      <trkpt lat="45.30794" lon="4.80167">
        <ele>135</ele>
        <time>2021-09-11T21:47:59Z</time>
      </trkpt>
      <trkpt lat="45.3077" lon="4.80183">
        <ele>136</ele>
        <time>2021-09-11T21:48:04Z</time>
      </trkpt>
      <trkpt lat="45.30768" lon="4.80174">
        <ele>136</ele>
        <time>2021-09-11T21:48:05Z</time>
      </trkpt>
      <trkpt lat="45.30767" lon="4.80147">
        <ele>136</ele>
        <time>2021-09-11T21:48:08Z</time>
      </trkpt>
      <trkpt lat="45.30764" lon="4.80146">
        <ele>136</ele>
        <time>2021-09-11T21:48:09Z</time>
      </trkpt>
      <trkpt lat="45.30747" lon="4.80156">
        <ele>136</ele>
        <time>2021-09-11T21:48:12Z</time>
      </trkpt>
      <trkpt lat="45.30655" lon="4.80222">
        <ele>137</ele>
        <time>2021-09-11T21:48:30Z</time>
      </trkpt>
      <trkpt lat="45.30442" lon="4.80379">
        <ele>138</ele>
        <time>2021-09-11T21:49:13Z</time>
      </trkpt>
      <trkpt lat="45.30418" lon="4.80391">
        <ele>139</ele>
        <time>2021-09-11T21:49:18Z</time>
      </trkpt>
      <trkpt lat="45.30396" lon="4.80397">
        <ele>138</ele>
        <time>2021-09-11T21:49:22Z</time>
      </trkpt>
      <trkpt lat="45.30377" lon="4.80395">
        <ele>137</ele>
        <time>2021-09-11T21:49:25Z</time>
      </trkpt>
      <trkpt lat="45.30361" lon="4.80389">
        <ele>137</ele>
        <time>2021-09-11T21:49:28Z</time>
      </trkpt>
      <trkpt lat="45.30299" lon="4.80333">
        <ele>136</ele>
        <time>2021-09-11T21:49:41Z</time>
      </trkpt>
      <trkpt lat="45.30247" lon="4.80307">
        <ele>135</ele>
        <time>2021-09-11T21:49:51Z</time>
      </trkpt>
      <trkpt lat="45.30209" lon="4.80301">
        <ele>135</ele>
        <time>2021-09-11T21:49:58Z</time>
      </trkpt>
      <trkpt lat="45.30183" lon="4.80308">
        <ele>135</ele>
        <time>2021-09-11T21:50:02Z</time>
      </trkpt>
      <trkpt lat="45.30164" lon="4.80319">
        <ele>135</ele>
        <time>2021-09-11T21:50:06Z</time>
      </trkpt>
      <trkpt lat="45.30105" lon="4.80378">
        <ele>135</ele>
        <time>2021-09-11T21:50:19Z</time>
      </trkpt>
      <trkpt lat="45.29946" lon="4.8054">
        <ele>136</ele>
        <time>2021-09-11T21:50:54Z</time>
      </trkpt>
      <trkpt lat="45.29858" lon="4.80635">
        <ele>136</ele>
        <time>2021-09-11T21:51:13Z</time>
      </trkpt>
      <trkpt lat="45.29841" lon="4.80652">
        <ele>135</ele>
        <time>2021-09-11T21:51:17Z</time>
      </trkpt>
      <trkpt lat="45.29738" lon="4.80763">
        <ele>135</ele>
        <time>2021-09-11T21:51:40Z</time>
      </trkpt>
      <trkpt lat="45.29666" lon="4.8083">
        <ele>135</ele>
        <time>2021-09-11T21:51:55Z</time>
      </trkpt>
      <trkpt lat="45.2969" lon="4.80876">
        <ele>138</ele>
        <time>2021-09-11T21:52:03Z</time>
      </trkpt>
      <trkpt lat="45.29734" lon="4.80835">
        <ele>139</ele>
        <time>2021-09-11T21:52:12Z</time>
      </trkpt>
      <trkpt lat="45.29757" lon="4.80825">
        <ele>139</ele>
        <time>2021-09-11T21:52:16Z</time>
      </trkpt>
      <trkpt lat="45.29777" lon="4.80823">
        <ele>139</ele>
        <time>2021-09-11T21:52:20Z</time>
      </trkpt>
      <trkpt lat="45.29804" lon="4.8084">
        <ele>139</ele>
        <time>2021-09-11T21:52:25Z</time>
      </trkpt>
      <trkpt lat="45.29822" lon="4.80876">
        <ele>140</ele>
        <time>2021-09-11T21:52:31Z</time>
      </trkpt>
      <trkpt lat="45.29828" lon="4.80912">
        <ele>140</ele>
        <time>2021-09-11T21:52:35Z</time>
      </trkpt>
      <trkpt lat="45.29835" lon="4.80927">
        <ele>140</ele>
        <time>2021-09-11T21:52:37Z</time>
      </trkpt>
      <trkpt lat="45.29822" lon="4.80957">
        <ele>141</ele>
        <time>2021-09-11T21:52:42Z</time>
      </trkpt>
      <trkpt lat="45.29815" lon="4.80991">
        <ele>143</ele>
        <time>2021-09-11T21:52:46Z</time>
      </trkpt>
      <trkpt lat="45.29823" lon="4.81055">
        <ele>143</ele>
        <time>2021-09-11T21:52:54Z</time>
      </trkpt>
      <trkpt lat="45.29826" lon="4.81079">
        <ele>143</ele>
        <time>2021-09-11T21:52:57Z</time>
      </trkpt>
      <trkpt lat="45.29823" lon="4.81097">
        <ele>143</ele>
        <time>2021-09-11T21:53:00Z</time>
      </trkpt>
      <trkpt lat="45.2981" lon="4.81143">
        <ele>142</ele>
        <time>2021-09-11T21:53:06Z</time>
      </trkpt>
      <trkpt lat="45.29801" lon="4.81157">
        <ele>142</ele>
        <time>2021-09-11T21:53:08Z</time>
      </trkpt>
      <trkpt lat="45.29789" lon="4.81157">
        <ele>143</ele>
        <time>2021-09-11T21:53:10Z</time>
      </trkpt>
      <trkpt lat="45.29782" lon="4.81116">
        <ele>143</ele>
        <time>2021-09-11T21:53:16Z</time>
      </trkpt>
      <trkpt lat="45.29784" lon="4.81105">
        <ele>143</ele>
        <time>2021-09-11T21:53:17Z</time>
      </trkpt>
      <trkpt lat="45.29783" lon="4.81098">
        <ele>143</ele>
        <time>2021-09-11T21:53:18Z</time>
      </trkpt>
      <trkpt lat="45.29779" lon="4.81093">
        <ele>144</ele>
        <time>2021-09-11T21:53:19Z</time>
      </trkpt>
      <trkpt lat="45.29786" lon="4.81084">
        <ele>144</ele>
        <time>2021-09-11T21:53:21Z</time>
      </trkpt>
      <trkpt lat="45.29801" lon="4.8108">
        <ele>143</ele>
        <time>2021-09-11T21:53:23Z</time>
      </trkpt>
      <trkpt lat="45.29805" lon="4.81073">
        <ele>143</ele>
        <time>2021-09-11T21:53:25Z</time>
      </trkpt>
      <trkpt lat="45.29806" lon="4.81065">
        <ele>143</ele>
        <time>2021-09-11T21:53:26Z</time>
      </trkpt>
      <trkpt lat="45.29804" lon="4.81055">
        <ele>143</ele>
        <time>2021-09-11T21:53:27Z</time>
      </trkpt>
      <trkpt lat="45.29812" lon="4.81053">
        <ele>143</ele>
        <time>2021-09-11T21:53:28Z</time>
      </trkpt>
      <trkpt lat="45.29813" lon="4.8106">
        <ele>143</ele>
        <time>2021-09-11T21:53:29Z</time>
      </trkpt>
      <trkpt lat="45.2981" lon="4.81061">
        <ele>143</ele>
        <time>2021-09-11T21:53:30Z</time>
      </trkpt>
      <trkpt lat="45.29804" lon="4.81019">
        <ele>143</ele>
        <time>2021-09-11T21:53:35Z</time>
      </trkpt>
      <trkpt lat="45.29796" lon="4.81022">
        <ele>143</ele>
        <time>2021-09-11T21:53:37Z</time>
      </trkpt>
      <trkpt lat="45.29797" lon="4.81026">
        <ele>143</ele>
        <time>2021-09-11T21:53:37Z</time>
      </trkpt>
      <trkpt lat="45.29579" lon="4.81101">
        <ele>143</ele>
        <time>2021-09-11T21:54:17Z</time>
      </trkpt>
      <trkpt lat="45.29797" lon="4.81026">
        <ele>143</ele>
        <time>2021-09-11T21:54:57Z</time>
      </trkpt>
      <trkpt lat="45.29796" lon="4.81022">
        <ele>143</ele>
        <time>2021-09-11T21:54:57Z</time>
      </trkpt>
      <trkpt lat="45.29804" lon="4.81019">
        <ele>143</ele>
        <time>2021-09-11T21:54:59Z</time>
      </trkpt>
      <trkpt lat="45.2981" lon="4.81061">
        <ele>143</ele>
        <time>2021-09-11T21:55:04Z</time>
      </trkpt>
      <trkpt lat="45.29813" lon="4.8106">
        <ele>143</ele>
        <time>2021-09-11T21:55:05Z</time>
      </trkpt>
      <trkpt lat="45.29812" lon="4.81053">
        <ele>143</ele>
        <time>2021-09-11T21:55:06Z</time>
      </trkpt>
      <trkpt lat="45.29804" lon="4.81055">
        <ele>143</ele>
        <time>2021-09-11T21:55:07Z</time>
      </trkpt>
      <trkpt lat="45.29806" lon="4.81065">
        <ele>143</ele>
        <time>2021-09-11T21:55:08Z</time>
      </trkpt>
      <trkpt lat="45.29805" lon="4.81073">
        <ele>143</ele>
        <time>2021-09-11T21:55:10Z</time>
      </trkpt>
      <trkpt lat="45.29801" lon="4.8108">
        <ele>143</ele>
        <time>2021-09-11T21:55:11Z</time>
      </trkpt>
      <trkpt lat="45.29786" lon="4.81084">
        <ele>144</ele>
        <time>2021-09-11T21:55:13Z</time>
      </trkpt>
      <trkpt lat="45.29779" lon="4.81093">
        <ele>144</ele>
        <time>2021-09-11T21:55:15Z</time>
      </trkpt>
      <trkpt lat="45.29774" lon="4.81092">
        <ele>144</ele>
        <time>2021-09-11T21:55:16Z</time>
      </trkpt>
      <trkpt lat="45.29766" lon="4.81098">
        <ele>144</ele>
        <time>2021-09-11T21:55:18Z</time>
      </trkpt>
      <trkpt lat="45.29766" lon="4.81106">
        <ele>144</ele>
        <time>2021-09-11T21:55:19Z</time>
      </trkpt>
      <trkpt lat="45.29776" lon="4.81129">
        <ele>143</ele>
        <time>2021-09-11T21:55:22Z</time>
      </trkpt>
      <trkpt lat="45.29781" lon="4.81161">
        <ele>143</ele>
        <time>2021-09-11T21:55:26Z</time>
      </trkpt>
      <trkpt lat="45.29779" lon="4.81165">
        <ele>143</ele>
        <time>2021-09-11T21:55:27Z</time>
      </trkpt>
      <trkpt lat="45.29743" lon="4.81186">
        <ele>144</ele>
        <time>2021-09-11T21:55:34Z</time>
      </trkpt>
      <trkpt lat="45.29689" lon="4.81204">
        <ele>144</ele>
        <time>2021-09-11T21:55:43Z</time>
      </trkpt>
      <trkpt lat="45.29592" lon="4.81243">
        <ele>143</ele>
        <time>2021-09-11T21:56:01Z</time>
      </trkpt>
      <trkpt lat="45.29511" lon="4.81269">
        <ele>144</ele>
        <time>2021-09-11T21:56:16Z</time>
      </trkpt>
      <trkpt lat="45.29501" lon="4.81269">
        <ele>144</ele>
        <time>2021-09-11T21:56:18Z</time>
      </trkpt>
      <trkpt lat="45.29349" lon="4.81316">
        <ele>150</ele>
        <time>2021-09-11T21:56:46Z</time>
      </trkpt>
      <trkpt lat="45.29259" lon="4.81349">
        <ele>154</ele>
        <time>2021-09-11T21:57:02Z</time>
      </trkpt>
      <trkpt lat="45.29231" lon="4.81367">
        <ele>154</ele>
        <time>2021-09-11T21:57:08Z</time>
      </trkpt>
      <trkpt lat="45.29217" lon="4.81373">
        <ele>154</ele>
        <time>2021-09-11T21:57:10Z</time>
      </trkpt>
      <trkpt lat="45.29176" lon="4.81383">
        <ele>154</ele>
        <time>2021-09-11T21:57:18Z</time>
      </trkpt>
      <trkpt lat="45.2916" lon="4.81625">
        <ele>156</ele>
        <time>2021-09-11T21:57:48Z</time>
      </trkpt>
      <trkpt lat="45.29088" lon="4.81623">
        <ele>155</ele>
        <time>2021-09-11T21:58:01Z</time>
      </trkpt>
      <trkpt lat="45.29069" lon="4.81629">
        <ele>155</ele>
        <time>2021-09-11T21:58:04Z</time>
      </trkpt>
      <trkpt lat="45.29063" lon="4.81669">
        <ele>155</ele>
        <time>2021-09-11T21:58:09Z</time>
      </trkpt>
      <trkpt lat="45.29054" lon="4.81977">
        <ele>158</ele>
        <time>2021-09-11T21:58:48Z</time>
      </trkpt>
      <trkpt lat="45.29053" lon="4.82037">
        <ele>158</ele>
        <time>2021-09-11T21:58:56Z</time>
      </trkpt>
      <trkpt lat="45.2905" lon="4.82118">
        <ele>159</ele>
        <time>2021-09-11T21:59:06Z</time>
      </trkpt>
      <trkpt lat="45.29063" lon="4.82181">
        <ele>160</ele>
        <time>2021-09-11T21:59:14Z</time>
      </trkpt>
      <trkpt lat="45.29082" lon="4.82245">
        <ele>161</ele>
        <time>2021-09-11T21:59:23Z</time>
      </trkpt>
      <trkpt lat="45.29087" lon="4.82271">
        <ele>161</ele>
        <time>2021-09-11T21:59:26Z</time>
      </trkpt>
      <trkpt lat="45.29095" lon="4.82389">
        <ele>161</ele>
        <time>2021-09-11T21:59:41Z</time>
      </trkpt>
      <trkpt lat="45.29098" lon="4.82437">
        <ele>160</ele>
        <time>2021-09-11T21:59:47Z</time>
      </trkpt>
      <trkpt lat="45.29095" lon="4.82466">
        <ele>160</ele>
        <time>2021-09-11T21:59:51Z</time>
      </trkpt>
      <trkpt lat="45.29082" lon="4.82496">
        <ele>160</ele>
        <time>2021-09-11T21:59:55Z</time>
      </trkpt>
      <trkpt lat="45.29056" lon="4.82548">
        <ele>161</ele>
        <time>2021-09-11T22:00:03Z</time>
      </trkpt>
      <trkpt lat="45.29046" lon="4.82572">
        <ele>161</ele>
        <time>2021-09-11T22:00:06Z</time>
      </trkpt>
      <trkpt lat="45.29042" lon="4.82595">
        <ele>161</ele>
        <time>2021-09-11T22:00:09Z</time>
      </trkpt>
      <trkpt lat="45.29035" lon="4.82939">
        <ele>162</ele>
        <time>2021-09-11T22:00:52Z</time>
      </trkpt>
      <trkpt lat="45.29049" lon="4.8393">
        <ele>166</ele>
        <time>2021-09-11T22:02:57Z</time>
      </trkpt>
      <trkpt lat="45.29046" lon="4.84727">
        <ele>168</ele>
        <time>2021-09-11T22:04:36Z</time>
      </trkpt>
      <trkpt lat="45.29049" lon="4.84878">
        <ele>169</ele>
        <time>2021-09-11T22:04:55Z</time>
      </trkpt>
      <trkpt lat="45.29056" lon="4.8498">
        <ele>170</ele>
        <time>2021-09-11T22:05:08Z</time>
      </trkpt>
      <trkpt lat="45.29052" lon="4.85017">
        <ele>170</ele>
        <time>2021-09-11T22:05:13Z</time>
      </trkpt>
      <trkpt lat="45.29015" lon="4.85198">
        <ele>170</ele>
        <time>2021-09-11T22:05:36Z</time>
      </trkpt>
      <trkpt lat="45.29006" lon="4.85213">
        <ele>170</ele>
        <time>2021-09-11T22:05:39Z</time>
      </trkpt>
      <trkpt lat="45.29001" lon="4.85217">
        <ele>170</ele>
        <time>2021-09-11T22:05:40Z</time>
      </trkpt>
      <trkpt lat="45.28998" lon="4.85223">
        <ele>170</ele>
        <time>2021-09-11T22:05:41Z</time>
      </trkpt>
      <trkpt lat="45.28997" lon="4.85228">
        <ele>170</ele>
        <time>2021-09-11T22:05:41Z</time>
      </trkpt>
      <trkpt lat="45.29" lon="4.85237">
        <ele>170</ele>
        <time>2021-09-11T22:05:43Z</time>
      </trkpt>
      <trkpt lat="45.29001" lon="4.85258">
        <ele>170</ele>
        <time>2021-09-11T22:05:45Z</time>
      </trkpt>
      <trkpt lat="45.28967" lon="4.85411">
        <ele>169</ele>
        <time>2021-09-11T22:06:05Z</time>
      </trkpt>
      <trkpt lat="45.28915" lon="4.85393">
        <ele>170</ele>
        <time>2021-09-11T22:06:15Z</time>
      </trkpt>
      <trkpt lat="45.28967" lon="4.85411">
        <ele>169</ele>
        <time>2021-09-11T22:06:24Z</time>
      </trkpt>
      <trkpt lat="45.28959" lon="4.85461">
        <ele>170</ele>
        <time>2021-09-11T22:06:31Z</time>
      </trkpt>
      <trkpt lat="45.28899" lon="4.85741">
        <ele>173</ele>
        <time>2021-09-11T22:07:07Z</time>
      </trkpt>
      <trkpt lat="45.28896" lon="4.85781">
        <ele>173</ele>
        <time>2021-09-11T22:07:12Z</time>
      </trkpt>
      <trkpt lat="45.28903" lon="4.859">
        <ele>173</ele>
        <time>2021-09-11T22:07:27Z</time>
      </trkpt>
      <trkpt lat="45.28898" lon="4.85974">
        <ele>172</ele>
        <time>2021-09-11T22:07:37Z</time>
      </trkpt>
      <trkpt lat="45.2889" lon="4.8604">
        <ele>172</ele>
        <time>2021-09-11T22:07:45Z</time>
      </trkpt>
      <trkpt lat="45.28888" lon="4.86097">
        <ele>173</ele>
        <time>2021-09-11T22:07:52Z</time>
      </trkpt>
      <trkpt lat="45.28882" lon="4.86163">
        <ele>172</ele>
        <time>2021-09-11T22:08:01Z</time>
      </trkpt>
      <trkpt lat="45.28874" lon="4.86208">
        <ele>172</ele>
        <time>2021-09-11T22:08:06Z</time>
      </trkpt>
      <trkpt lat="45.28825" lon="4.86384">
        <ele>173</ele>
        <time>2021-09-11T22:08:30Z</time>
      </trkpt>
      <trkpt lat="45.28792" lon="4.86509">
        <ele>175</ele>
        <time>2021-09-11T22:08:47Z</time>
      </trkpt>
      <trkpt lat="45.28751" lon="4.86648">
        <ele>176</ele>
        <time>2021-09-11T22:09:06Z</time>
      </trkpt>
      <trkpt lat="45.28741" lon="4.86673">
        <ele>176</ele>
        <time>2021-09-11T22:09:09Z</time>
      </trkpt>
      <trkpt lat="45.28729" lon="4.86693">
        <ele>176</ele>
        <time>2021-09-11T22:09:13Z</time>
      </trkpt>
      <trkpt lat="45.28643" lon="4.86779">
        <ele>177</ele>
        <time>2021-09-11T22:09:31Z</time>
      </trkpt>
      <trkpt lat="45.28629" lon="4.86796">
        <ele>176</ele>
        <time>2021-09-11T22:09:35Z</time>
      </trkpt>
      <trkpt lat="45.28582" lon="4.86867">
        <ele>177</ele>
        <time>2021-09-11T22:09:47Z</time>
      </trkpt>
      <trkpt lat="45.28567" lon="4.86901">
        <ele>177</ele>
        <time>2021-09-11T22:09:52Z</time>
      </trkpt>
      <trkpt lat="45.28559" lon="4.86929">
        <ele>177</ele>
        <time>2021-09-11T22:09:56Z</time>
      </trkpt>
      <trkpt lat="45.28554" lon="4.86952">
        <ele>176</ele>
        <time>2021-09-11T22:09:59Z</time>
      </trkpt>
      <trkpt lat="45.28534" lon="4.87157">
        <ele>176</ele>
        <time>2021-09-11T22:10:24Z</time>
      </trkpt>
      <trkpt lat="45.28526" lon="4.87194">
        <ele>177</ele>
        <time>2021-09-11T22:10:29Z</time>
      </trkpt>
      <trkpt lat="45.28492" lon="4.87312">
        <ele>178</ele>
        <time>2021-09-11T22:10:45Z</time>
      </trkpt>
      <trkpt lat="45.28488" lon="4.87332">
        <ele>179</ele>
        <time>2021-09-11T22:10:48Z</time>
      </trkpt>
      <trkpt lat="45.2849" lon="4.87342">
        <ele>179</ele>
        <time>2021-09-11T22:10:49Z</time>
      </trkpt>
      <trkpt lat="45.28485" lon="4.87344">
        <ele>179</ele>
        <time>2021-09-11T22:10:50Z</time>
      </trkpt>
      <trkpt lat="45.28411" lon="4.87492">
        <ele>180</ele>
        <time>2021-09-11T22:11:13Z</time>
      </trkpt>
      <trkpt lat="45.28395" lon="4.87493">
        <ele>180</ele>
        <time>2021-09-11T22:11:16Z</time>
      </trkpt>
      <trkpt lat="45.28208" lon="4.87533">
        <ele>179</ele>
        <time>2021-09-11T22:11:49Z</time>
      </trkpt>
      <trkpt lat="45.28203" lon="4.87535">
        <ele>179</ele>
        <time>2021-09-11T22:11:50Z</time>
      </trkpt>
      <trkpt lat="45.28184" lon="4.87555">
        <ele>180</ele>
        <time>2021-09-11T22:11:54Z</time>
      </trkpt>
      <trkpt lat="45.28171" lon="4.87562">
        <ele>180</ele>
        <time>2021-09-11T22:11:57Z</time>
      </trkpt>
      <trkpt lat="45.28161" lon="4.87565">
        <ele>181</ele>
        <time>2021-09-11T22:11:59Z</time>
      </trkpt>
      <trkpt lat="45.28148" lon="4.87568">
        <ele>182</ele>
        <time>2021-09-11T22:12:01Z</time>
      </trkpt>
      <trkpt lat="45.28087" lon="4.87567">
        <ele>188</ele>
        <time>2021-09-11T22:12:12Z</time>
      </trkpt>
      <trkpt lat="45.28082" lon="4.87564">
        <ele>188</ele>
        <time>2021-09-11T22:12:13Z</time>
      </trkpt>
      <trkpt lat="45.27976" lon="4.87361">
        <ele>197</ele>
        <time>2021-09-11T22:12:45Z</time>
      </trkpt>
      <trkpt lat="45.27951" lon="4.87316">
        <ele>198</ele>
        <time>2021-09-11T22:12:52Z</time>
      </trkpt>
      <trkpt lat="45.27939" lon="4.87308">
        <ele>199</ele>
        <time>2021-09-11T22:12:54Z</time>
      </trkpt>
      <trkpt lat="45.27921" lon="4.87297">
        <ele>201</ele>
        <time>2021-09-11T22:12:58Z</time>
      </trkpt>
      <trkpt lat="45.27908" lon="4.87306">
        <ele>203</ele>
        <time>2021-09-11T22:13:00Z</time>
      </trkpt>
      <trkpt lat="45.27827" lon="4.87456">
        <ele>205</ele>
        <time>2021-09-11T22:13:24Z</time>
      </trkpt>
      <trkpt lat="45.27779" lon="4.87532">
        <ele>204</ele>
        <time>2021-09-11T22:13:37Z</time>
      </trkpt>
      <trkpt lat="45.27757" lon="4.87562">
        <ele>203</ele>
        <time>2021-09-11T22:13:42Z</time>
      </trkpt>
      <trkpt lat="45.27722" lon="4.8761">
        <ele>203</ele>
        <time>2021-09-11T22:13:51Z</time>
      </trkpt>
      <trkpt lat="45.27691" lon="4.87659">
        <ele>204</ele>
        <time>2021-09-11T22:13:59Z</time>
      </trkpt>
      <trkpt lat="45.27665" lon="4.87685">
        <ele>205</ele>
        <time>2021-09-11T22:14:05Z</time>
      </trkpt>
      <trkpt lat="45.27645" lon="4.877">
        <ele>205</ele>
        <time>2021-09-11T22:14:09Z</time>
      </trkpt>
      <trkpt lat="45.27553" lon="4.8774">
        <ele>206</ele>
        <time>2021-09-11T22:14:26Z</time>
      </trkpt>
      <trkpt lat="45.27434" lon="4.87785">
        <ele>207</ele>
        <time>2021-09-11T22:14:48Z</time>
      </trkpt>
      <trkpt lat="45.27329" lon="4.8782">
        <ele>206</ele>
        <time>2021-09-11T22:15:07Z</time>
      </trkpt>
      <trkpt lat="45.27324" lon="4.87817">
        <ele>206</ele>
        <time>2021-09-11T22:15:08Z</time>
      </trkpt>
      <trkpt lat="45.27313" lon="4.87815">
        <ele>206</ele>
        <time>2021-09-11T22:15:10Z</time>
      </trkpt>
      <trkpt lat="45.27139" lon="4.87862">
        <ele>207</ele>
        <time>2021-09-11T22:15:41Z</time>
      </trkpt>
      <trkpt lat="45.27139" lon="4.88049">
        <ele>206</ele>
        <time>2021-09-11T22:16:05Z</time>
      </trkpt>
      <trkpt lat="45.27142" lon="4.88271">
        <ele>208</ele>
        <time>2021-09-11T22:16:33Z</time>
      </trkpt>
      <trkpt lat="45.27143" lon="4.88306">
        <ele>208</ele>
        <time>2021-09-11T22:16:37Z</time>
      </trkpt>
      <trkpt lat="45.27162" lon="4.88486">
        <ele>208</ele>
        <time>2021-09-11T22:17:00Z</time>
      </trkpt>
      <trkpt lat="45.27168" lon="4.88521">
        <ele>208</ele>
        <time>2021-09-11T22:17:04Z</time>
      </trkpt>
      <trkpt lat="45.27165" lon="4.88621">
        <ele>208</ele>
        <time>2021-09-11T22:17:17Z</time>
      </trkpt>
      <trkpt lat="45.2716" lon="4.8872">
        <ele>208</ele>
        <time>2021-09-11T22:17:29Z</time>
      </trkpt>
      <trkpt lat="45.27159" lon="4.88768">
        <ele>208</ele>
        <time>2021-09-11T22:17:35Z</time>
      </trkpt>
      <trkpt lat="45.27164" lon="4.88867">
        <ele>210</ele>
        <time>2021-09-11T22:17:48Z</time>
      </trkpt>
      <trkpt lat="45.27165" lon="4.88923">
        <ele>211</ele>
        <time>2021-09-11T22:17:55Z</time>
      </trkpt>
      <trkpt lat="45.27165" lon="4.8897">
        <ele>211</ele>
        <time>2021-09-11T22:18:01Z</time>
      </trkpt>
      <trkpt lat="45.27149" lon="4.89071">
        <ele>210</ele>
        <time>2021-09-11T22:18:13Z</time>
      </trkpt>
      <trkpt lat="45.27141" lon="4.89139">
        <ele>211</ele>
        <time>2021-09-11T22:18:22Z</time>
      </trkpt>
      <trkpt lat="45.27143" lon="4.89157">
        <ele>212</ele>
        <time>2021-09-11T22:18:24Z</time>
      </trkpt>
      <trkpt lat="45.2716" lon="4.89217">
        <ele>211</ele>
        <time>2021-09-11T22:18:32Z</time>
      </trkpt>
      <trkpt lat="45.27178" lon="4.89267">
        <ele>211</ele>
        <time>2021-09-11T22:18:40Z</time>
      </trkpt>
      <trkpt lat="45.27112" lon="4.89314">
        <ele>210</ele>
        <time>2021-09-11T22:18:53Z</time>
      </trkpt>
      <trkpt lat="45.27081" lon="4.8933">
        <ele>209</ele>
        <time>2021-09-11T22:18:59Z</time>
      </trkpt>
      <trkpt lat="45.27005" lon="4.89355">
        <ele>203</ele>
        <time>2021-09-11T22:19:12Z</time>
      </trkpt>
      <trkpt lat="45.2693" lon="4.89365">
        <ele>197</ele>
        <time>2021-09-11T22:19:26Z</time>
      </trkpt>
      <trkpt lat="45.26923" lon="4.8937">
        <ele>197</ele>
        <time>2021-09-11T22:19:27Z</time>
      </trkpt>
      <trkpt lat="45.26897" lon="4.89404">
        <ele>195</ele>
        <time>2021-09-11T22:19:33Z</time>
      </trkpt>
      <trkpt lat="45.26885" lon="4.89414">
        <ele>195</ele>
        <time>2021-09-11T22:19:36Z</time>
      </trkpt>
      <trkpt lat="45.26674" lon="4.89529">
        <ele>203</ele>
        <time>2021-09-11T22:20:16Z</time>
      </trkpt>
      <trkpt lat="45.26651" lon="4.89546">
        <ele>204</ele>
        <time>2021-09-11T22:20:21Z</time>
      </trkpt>
      <trkpt lat="45.26643" lon="4.89556">
        <ele>205</ele>
        <time>2021-09-11T22:20:23Z</time>
      </trkpt>
      <trkpt lat="45.26632" lon="4.89579">
        <ele>205</ele>
        <time>2021-09-11T22:20:26Z</time>
      </trkpt>
      <trkpt lat="45.26624" lon="4.89613">
        <ele>207</ele>
        <time>2021-09-11T22:20:31Z</time>
      </trkpt>
      <trkpt lat="45.26616" lon="4.89633">
        <ele>207</ele>
        <time>2021-09-11T22:20:34Z</time>
      </trkpt>
      <trkpt lat="45.26605" lon="4.89654">
        <ele>208</ele>
        <time>2021-09-11T22:20:37Z</time>
      </trkpt>
      <trkpt lat="45.2659" lon="4.89677">
        <ele>209</ele>
        <time>2021-09-11T22:20:41Z</time>
      </trkpt>
      <trkpt lat="45.26573" lon="4.89697">
        <ele>211</ele>
        <time>2021-09-11T22:20:45Z</time>
      </trkpt>
      <trkpt lat="45.26556" lon="4.89708">
        <ele>211</ele>
        <time>2021-09-11T22:20:48Z</time>
      </trkpt>
      <trkpt lat="45.26534" lon="4.89715">
        <ele>212</ele>
        <time>2021-09-11T22:20:52Z</time>
      </trkpt>
      <trkpt lat="45.26441" lon="4.89727">
        <ele>217</ele>
        <time>2021-09-11T22:21:09Z</time>
      </trkpt>
      <trkpt lat="45.26346" lon="4.89754">
        <ele>222</ele>
        <time>2021-09-11T22:21:26Z</time>
      </trkpt>
      <trkpt lat="45.26315" lon="4.8977">
        <ele>225</ele>
        <time>2021-09-11T22:21:32Z</time>
      </trkpt>
      <trkpt lat="45.26262" lon="4.89806">
        <ele>231</ele>
        <time>2021-09-11T22:21:42Z</time>
      </trkpt>
      <trkpt lat="45.26257" lon="4.89823">
        <ele>232</ele>
        <time>2021-09-11T22:21:44Z</time>
      </trkpt>
      <trkpt lat="45.26248" lon="4.89871">
        <ele>234</ele>
        <time>2021-09-11T22:21:51Z</time>
      </trkpt>
      <trkpt lat="45.26244" lon="4.8988">
        <ele>235</ele>
        <time>2021-09-11T22:21:52Z</time>
      </trkpt>
      <trkpt lat="45.26225" lon="4.89903">
        <ele>237</ele>
        <time>2021-09-11T22:21:56Z</time>
      </trkpt>
      <trkpt lat="45.26216" lon="4.89907">
        <ele>238</ele>
        <time>2021-09-11T22:21:58Z</time>
      </trkpt>
      <trkpt lat="45.26208" lon="4.89905">
        <ele>239</ele>
        <time>2021-09-11T22:22:00Z</time>
      </trkpt>
      <trkpt lat="45.26181" lon="4.89873">
        <ele>241</ele>
        <time>2021-09-11T22:22:06Z</time>
      </trkpt>
      <trkpt lat="45.26161" lon="4.8986">
        <ele>244</ele>
        <time>2021-09-11T22:22:10Z</time>
      </trkpt>
      <trkpt lat="45.26145" lon="4.89841">
        <ele>246</ele>
        <time>2021-09-11T22:22:13Z</time>
      </trkpt>
      <trkpt lat="45.26136" lon="4.89823">
        <ele>247</ele>
        <time>2021-09-11T22:22:16Z</time>
      </trkpt>
      <trkpt lat="45.26117" lon="4.89775">
        <ele>248</ele>
        <time>2021-09-11T22:22:23Z</time>
      </trkpt>
      <trkpt lat="45.26107" lon="4.89753">
        <ele>249</ele>
        <time>2021-09-11T22:22:26Z</time>
      </trkpt>
      <trkpt lat="45.26065" lon="4.89678">
        <ele>254</ele>
        <time>2021-09-11T22:22:38Z</time>
      </trkpt>
      <trkpt lat="45.26047" lon="4.89649">
        <ele>257</ele>
        <time>2021-09-11T22:22:43Z</time>
      </trkpt>
      <trkpt lat="45.26012" lon="4.89607">
        <ele>261</ele>
        <time>2021-09-11T22:22:51Z</time>
      </trkpt>
      <trkpt lat="45.25973" lon="4.89566">
        <ele>263</ele>
        <time>2021-09-11T22:23:00Z</time>
      </trkpt>
      <trkpt lat="45.25955" lon="4.89552">
        <ele>263</ele>
        <time>2021-09-11T22:23:04Z</time>
      </trkpt>
      <trkpt lat="45.25939" lon="4.89545">
        <ele>264</ele>
        <time>2021-09-11T22:23:07Z</time>
      </trkpt>
      <trkpt lat="45.25896" lon="4.89542">
        <ele>270</ele>
        <time>2021-09-11T22:23:14Z</time>
      </trkpt>
      <trkpt lat="45.25873" lon="4.89536">
        <ele>273</ele>
        <time>2021-09-11T22:23:19Z</time>
      </trkpt>
      <trkpt lat="45.25843" lon="4.8952">
        <ele>277</ele>
        <time>2021-09-11T22:23:24Z</time>
      </trkpt>
      <trkpt lat="45.25816" lon="4.89499">
        <ele>280</ele>
        <time>2021-09-11T22:23:30Z</time>
      </trkpt>
      <trkpt lat="45.25808" lon="4.89462">
        <ele>282</ele>
        <time>2021-09-11T22:23:35Z</time>
      </trkpt>
      <trkpt lat="45.25794" lon="4.8942">
        <ele>286</ele>
        <time>2021-09-11T22:23:40Z</time>
      </trkpt>
      <trkpt lat="45.25787" lon="4.89382">
        <ele>287</ele>
        <time>2021-09-11T22:23:45Z</time>
      </trkpt>
      <trkpt lat="45.25783" lon="4.89375">
        <ele>287</ele>
        <time>2021-09-11T22:23:46Z</time>
      </trkpt>
      <trkpt lat="45.25778" lon="4.89372">
        <ele>288</ele>
        <time>2021-09-11T22:23:47Z</time>
      </trkpt>
      <trkpt lat="45.25775" lon="4.89379">
        <ele>289</ele>
        <time>2021-09-11T22:23:48Z</time>
      </trkpt>
      <trkpt lat="45.25774" lon="4.89387">
        <ele>289</ele>
        <time>2021-09-11T22:23:49Z</time>
      </trkpt>
      <trkpt lat="45.25778" lon="4.89415">
        <ele>289</ele>
        <time>2021-09-11T22:23:53Z</time>
      </trkpt>
      <trkpt lat="45.25778" lon="4.89452">
        <ele>289</ele>
        <time>2021-09-11T22:23:58Z</time>
      </trkpt>
      <trkpt lat="45.25772" lon="4.89474">
        <ele>289</ele>
        <time>2021-09-11T22:24:01Z</time>
      </trkpt>
      <trkpt lat="45.2576" lon="4.89492">
        <ele>291</ele>
        <time>2021-09-11T22:24:04Z</time>
      </trkpt>
      <trkpt lat="45.25727" lon="4.89524">
        <ele>302</ele>
        <time>2021-09-11T22:24:11Z</time>
      </trkpt>
      <trkpt lat="45.25722" lon="4.89534">
        <ele>304</ele>
        <time>2021-09-11T22:24:12Z</time>
      </trkpt>
      <trkpt lat="45.25721" lon="4.89546">
        <ele>305</ele>
        <time>2021-09-11T22:24:14Z</time>
      </trkpt>
      <trkpt lat="45.25724" lon="4.89557">
        <ele>304</ele>
        <time>2021-09-11T22:24:15Z</time>
      </trkpt>
      <trkpt lat="45.2573" lon="4.89565">
        <ele>303</ele>
        <time>2021-09-11T22:24:17Z</time>
      </trkpt>
      <trkpt lat="45.25769" lon="4.89592">
        <ele>296</ele>
        <time>2021-09-11T22:24:25Z</time>
      </trkpt>
      <trkpt lat="45.25773" lon="4.89598">
        <ele>295</ele>
        <time>2021-09-11T22:24:26Z</time>
      </trkpt>
      <trkpt lat="45.25776" lon="4.89604">
        <ele>295</ele>
        <time>2021-09-11T22:24:26Z</time>
      </trkpt>
      <trkpt lat="45.25779" lon="4.89615">
        <ele>295</ele>
        <time>2021-09-11T22:24:28Z</time>
      </trkpt>
      <trkpt lat="45.25778" lon="4.89626">
        <ele>296</ele>
        <time>2021-09-11T22:24:29Z</time>
      </trkpt>
      <trkpt lat="45.25768" lon="4.89665">
        <ele>302</ele>
        <time>2021-09-11T22:24:35Z</time>
      </trkpt>
      <trkpt lat="45.2574" lon="4.89753">
        <ele>311</ele>
        <time>2021-09-11T22:24:47Z</time>
      </trkpt>
      <trkpt lat="45.25726" lon="4.89789">
        <ele>313</ele>
        <time>2021-09-11T22:24:52Z</time>
      </trkpt>
      <trkpt lat="45.25715" lon="4.89816">
        <ele>315</ele>
        <time>2021-09-11T22:24:56Z</time>
      </trkpt>
      <trkpt lat="45.25658" lon="4.89919">
        <ele>322</ele>
        <time>2021-09-11T22:25:12Z</time>
      </trkpt>
      <trkpt lat="45.25638" lon="4.89974">
        <ele>323</ele>
        <time>2021-09-11T22:25:20Z</time>
      </trkpt>
      <trkpt lat="45.2563" lon="4.9">
        <ele>323</ele>
        <time>2021-09-11T22:25:23Z</time>
      </trkpt>
      <trkpt lat="45.25625" lon="4.90027">
        <ele>325</ele>
        <time>2021-09-11T22:25:27Z</time>
      </trkpt>
      <trkpt lat="45.25621" lon="4.90081">
        <ele>325</ele>
        <time>2021-09-11T22:25:34Z</time>
      </trkpt>
      <trkpt lat="45.25618" lon="4.90154">
        <ele>329</ele>
        <time>2021-09-11T22:25:43Z</time>
      </trkpt>
      <trkpt lat="45.2562" lon="4.90178">
        <ele>330</ele>
        <time>2021-09-11T22:25:46Z</time>
      </trkpt>
      <trkpt lat="45.2563" lon="4.90224">
        <ele>332</ele>
        <time>2021-09-11T22:25:52Z</time>
      </trkpt>
      <trkpt lat="45.25645" lon="4.90279">
        <ele>333</ele>
        <time>2021-09-11T22:25:59Z</time>
      </trkpt>
      <trkpt lat="45.25649" lon="4.90299">
        <ele>334</ele>
        <time>2021-09-11T22:26:02Z</time>
      </trkpt>
      <trkpt lat="45.25655" lon="4.90344">
        <ele>336</ele>
        <time>2021-09-11T22:26:08Z</time>
      </trkpt>
      <trkpt lat="45.25666" lon="4.90468">
        <ele>343</ele>
        <time>2021-09-11T22:26:23Z</time>
      </trkpt>
      <trkpt lat="45.25673" lon="4.90505">
        <ele>343</ele>
        <time>2021-09-11T22:26:28Z</time>
      </trkpt>
      <trkpt lat="45.25674" lon="4.90516">
        <ele>344</ele>
        <time>2021-09-11T22:26:29Z</time>
      </trkpt>
      <trkpt lat="45.2567" lon="4.90524">
        <ele>345</ele>
        <time>2021-09-11T22:26:31Z</time>
      </trkpt>
      <trkpt lat="45.25665" lon="4.90523">
        <ele>346</ele>
        <time>2021-09-11T22:26:32Z</time>
      </trkpt>
      <trkpt lat="45.25661" lon="4.90519">
        <ele>346</ele>
        <time>2021-09-11T22:26:32Z</time>
      </trkpt>
      <trkpt lat="45.2565" lon="4.90495">
        <ele>346</ele>
        <time>2021-09-11T22:26:36Z</time>
      </trkpt>
      <trkpt lat="45.25633" lon="4.90472">
        <ele>347</ele>
        <time>2021-09-11T22:26:40Z</time>
      </trkpt>
      <trkpt lat="45.25608" lon="4.90449">
        <ele>350</ele>
        <time>2021-09-11T22:26:46Z</time>
      </trkpt>
      <trkpt lat="45.25583" lon="4.90433">
        <ele>353</ele>
        <time>2021-09-11T22:26:50Z</time>
      </trkpt>
      <trkpt lat="45.25561" lon="4.90425">
        <ele>353</ele>
        <time>2021-09-11T22:26:54Z</time>
      </trkpt>
      <trkpt lat="45.25539" lon="4.9042">
        <ele>353</ele>
        <time>2021-09-11T22:26:58Z</time>
      </trkpt>
      <trkpt lat="45.25507" lon="4.90419">
        <ele>354</ele>
        <time>2021-09-11T22:27:04Z</time>
      </trkpt>
      <trkpt lat="45.25499" lon="4.9042">
        <ele>354</ele>
        <time>2021-09-11T22:27:06Z</time>
      </trkpt>
      <trkpt lat="45.25479" lon="4.90434">
        <ele>355</ele>
        <time>2021-09-11T22:27:10Z</time>
      </trkpt>
      <trkpt lat="45.2545" lon="4.90471">
        <ele>358</ele>
        <time>2021-09-11T22:27:16Z</time>
      </trkpt>
      <trkpt lat="45.25444" lon="4.90475">
        <ele>358</ele>
        <time>2021-09-11T22:27:18Z</time>
      </trkpt>
      <trkpt lat="45.25433" lon="4.90476">
        <ele>358</ele>
        <time>2021-09-11T22:27:20Z</time>
      </trkpt>
      <trkpt lat="45.25428" lon="4.90474">
        <ele>358</ele>
        <time>2021-09-11T22:27:21Z</time>
      </trkpt>
      <trkpt lat="45.25405" lon="4.90452">
        <ele>356</ele>
        <time>2021-09-11T22:27:25Z</time>
      </trkpt>
      <trkpt lat="45.2535" lon="4.90401">
        <ele>353</ele>
        <time>2021-09-11T22:27:37Z</time>
      </trkpt>
      <trkpt lat="45.25338" lon="4.90395">
        <ele>353</ele>
        <time>2021-09-11T22:27:39Z</time>
      </trkpt>
      <trkpt lat="45.25325" lon="4.90395">
        <ele>351</ele>
        <time>2021-09-11T22:27:42Z</time>
      </trkpt>
      <trkpt lat="45.25317" lon="4.90402">
        <ele>349</ele>
        <time>2021-09-11T22:27:43Z</time>
      </trkpt>
      <trkpt lat="45.25311" lon="4.90414">
        <ele>348</ele>
        <time>2021-09-11T22:27:45Z</time>
      </trkpt>
      <trkpt lat="45.25308" lon="4.90425">
        <ele>348</ele>
        <time>2021-09-11T22:27:47Z</time>
      </trkpt>
      <trkpt lat="45.25308" lon="4.90454">
        <ele>347</ele>
        <time>2021-09-11T22:27:50Z</time>
      </trkpt>
      <trkpt lat="45.25311" lon="4.90465">
        <ele>347</ele>
        <time>2021-09-11T22:27:52Z</time>
      </trkpt>
      <trkpt lat="45.25331" lon="4.90494">
        <ele>352</ele>
        <time>2021-09-11T22:27:57Z</time>
      </trkpt>
      <trkpt lat="45.2535" lon="4.90534">
        <ele>350</ele>
        <time>2021-09-11T22:28:03Z</time>
      </trkpt>
      <trkpt lat="45.25373" lon="4.9057">
        <ele>351</ele>
        <time>2021-09-11T22:28:09Z</time>
      </trkpt>
      <trkpt lat="45.25382" lon="4.90588">
        <ele>352</ele>
        <time>2021-09-11T22:28:12Z</time>
      </trkpt>
      <trkpt lat="45.25398" lon="4.9063">
        <ele>350</ele>
        <time>2021-09-11T22:28:18Z</time>
      </trkpt>
      <trkpt lat="45.25419" lon="4.90706">
        <ele>344</ele>
        <time>2021-09-11T22:28:28Z</time>
      </trkpt>
      <trkpt lat="45.25433" lon="4.90764">
        <ele>342</ele>
        <time>2021-09-11T22:28:36Z</time>
      </trkpt>
      <trkpt lat="45.25435" lon="4.90785">
        <ele>342</ele>
        <time>2021-09-11T22:28:38Z</time>
      </trkpt>
      <trkpt lat="45.25428" lon="4.90831">
        <ele>339</ele>
        <time>2021-09-11T22:28:44Z</time>
      </trkpt>
      <trkpt lat="45.25421" lon="4.90855">
        <ele>337</ele>
        <time>2021-09-11T22:28:48Z</time>
      </trkpt>
      <trkpt lat="45.25389" lon="4.90923">
        <ele>329</ele>
        <time>2021-09-11T22:28:58Z</time>
      </trkpt>
      <trkpt lat="45.25386" lon="4.90936">
        <ele>327</ele>
        <time>2021-09-11T22:28:59Z</time>
      </trkpt>
      <trkpt lat="45.25384" lon="4.90965">
        <ele>324</ele>
        <time>2021-09-11T22:29:03Z</time>
      </trkpt>
      <trkpt lat="45.25388" lon="4.9099">
        <ele>323</ele>
        <time>2021-09-11T22:29:06Z</time>
      </trkpt>
      <trkpt lat="45.25392" lon="4.91002">
        <ele>323</ele>
        <time>2021-09-11T22:29:08Z</time>
      </trkpt>
      <trkpt lat="45.25431" lon="4.91058">
        <ele>321</ele>
        <time>2021-09-11T22:29:18Z</time>
      </trkpt>
      <trkpt lat="45.25448" lon="4.91079">
        <ele>321</ele>
        <time>2021-09-11T22:29:22Z</time>
      </trkpt>
      <trkpt lat="45.25471" lon="4.91099">
        <ele>321</ele>
        <time>2021-09-11T22:29:27Z</time>
      </trkpt>
      <trkpt lat="45.25488" lon="4.91117">
        <ele>320</ele>
        <time>2021-09-11T22:29:30Z</time>
      </trkpt>
      <trkpt lat="45.255" lon="4.91137">
        <ele>319</ele>
        <time>2021-09-11T22:29:34Z</time>
      </trkpt>
      <trkpt lat="45.25506" lon="4.91151">
        <ele>318</ele>
        <time>2021-09-11T22:29:36Z</time>
      </trkpt>
      <trkpt lat="45.2551" lon="4.9117">
        <ele>317</ele>
        <time>2021-09-11T22:29:38Z</time>
      </trkpt>
      <trkpt lat="45.25516" lon="4.91223">
        <ele>316</ele>
        <time>2021-09-11T22:29:45Z</time>
      </trkpt>
      <trkpt lat="45.25511" lon="4.91246">
        <ele>314</ele>
        <time>2021-09-11T22:29:48Z</time>
      </trkpt>
      <trkpt lat="45.25504" lon="4.91253">
        <ele>312</ele>
        <time>2021-09-11T22:29:50Z</time>
      </trkpt>
      <trkpt lat="45.25497" lon="4.91253">
        <ele>311</ele>
        <time>2021-09-11T22:29:51Z</time>
      </trkpt>
      <trkpt lat="45.25479" lon="4.91244">
        <ele>309</ele>
        <time>2021-09-11T22:29:54Z</time>
      </trkpt>
      <trkpt lat="45.25449" lon="4.91224">
        <ele>305</ele>
        <time>2021-09-11T22:30:00Z</time>
      </trkpt>
      <trkpt lat="45.25435" lon="4.91218">
        <ele>303</ele>
        <time>2021-09-11T22:30:03Z</time>
      </trkpt>
      <trkpt lat="45.25417" lon="4.91216">
        <ele>300</ele>
        <time>2021-09-11T22:30:06Z</time>
      </trkpt>
      <trkpt lat="45.25397" lon="4.91224">
        <ele>297</ele>
        <time>2021-09-11T22:30:10Z</time>
      </trkpt>
      <trkpt lat="45.25379" lon="4.91239">
        <ele>293</ele>
        <time>2021-09-11T22:30:13Z</time>
      </trkpt>
      <trkpt lat="45.2537" lon="4.91251">
        <ele>291</ele>
        <time>2021-09-11T22:30:15Z</time>
      </trkpt>
      <trkpt lat="45.25342" lon="4.91273">
        <ele>288</ele>
        <time>2021-09-11T22:30:21Z</time>
      </trkpt>
      <trkpt lat="45.25324" lon="4.91305">
        <ele>288</ele>
        <time>2021-09-11T22:30:26Z</time>
      </trkpt>
      <trkpt lat="45.2532" lon="4.91311">
        <ele>287</ele>
        <time>2021-09-11T22:30:27Z</time>
      </trkpt>
      <trkpt lat="45.25303" lon="4.91322">
        <ele>283</ele>
        <time>2021-09-11T22:30:31Z</time>
      </trkpt>
      <trkpt lat="45.25277" lon="4.91335">
        <ele>276</ele>
        <time>2021-09-11T22:30:36Z</time>
      </trkpt>
      <trkpt lat="45.25261" lon="4.91346">
        <ele>271</ele>
        <time>2021-09-11T22:30:39Z</time>
      </trkpt>
      <trkpt lat="45.2525" lon="4.91362">
        <ele>268</ele>
        <time>2021-09-11T22:30:42Z</time>
      </trkpt>
      <trkpt lat="45.25246" lon="4.91374">
        <ele>267</ele>
        <time>2021-09-11T22:30:43Z</time>
      </trkpt>
      <trkpt lat="45.25245" lon="4.91393">
        <ele>268</ele>
        <time>2021-09-11T22:30:46Z</time>
      </trkpt>
      <trkpt lat="45.25256" lon="4.91427">
        <ele>272</ele>
        <time>2021-09-11T22:30:50Z</time>
      </trkpt>
      <trkpt lat="45.25261" lon="4.91439">
        <ele>272</ele>
        <time>2021-09-11T22:30:52Z</time>
      </trkpt>
      <trkpt lat="45.25288" lon="4.91474">
        <ele>277</ele>
        <time>2021-09-11T22:30:59Z</time>
      </trkpt>
      <trkpt lat="45.25302" lon="4.9151">
        <ele>277</ele>
        <time>2021-09-11T22:31:04Z</time>
      </trkpt>
      <trkpt lat="45.25311" lon="4.91543">
        <ele>276</ele>
        <time>2021-09-11T22:31:08Z</time>
      </trkpt>
      <trkpt lat="45.25312" lon="4.91559">
        <ele>275</ele>
        <time>2021-09-11T22:31:10Z</time>
      </trkpt>
      <trkpt lat="45.25299" lon="4.91617">
        <ele>263</ele>
        <time>2021-09-11T22:31:18Z</time>
      </trkpt>
      <trkpt lat="45.25299" lon="4.91637">
        <ele>260</ele>
        <time>2021-09-11T22:31:20Z</time>
      </trkpt>
      <trkpt lat="45.25301" lon="4.91647">
        <ele>259</ele>
        <time>2021-09-11T22:31:22Z</time>
      </trkpt>
      <trkpt lat="45.25306" lon="4.91656">
        <ele>259</ele>
        <time>2021-09-11T22:31:23Z</time>
      </trkpt>
      <trkpt lat="45.25334" lon="4.91688">
        <ele>259</ele>
        <time>2021-09-11T22:31:29Z</time>
      </trkpt>
      <trkpt lat="45.25369" lon="4.91724">
        <ele>257</ele>
        <time>2021-09-11T22:31:37Z</time>
      </trkpt>
      <trkpt lat="45.25375" lon="4.91734">
        <ele>257</ele>
        <time>2021-09-11T22:31:39Z</time>
      </trkpt>
      <trkpt lat="45.25387" lon="4.91773">
        <ele>255</ele>
        <time>2021-09-11T22:31:44Z</time>
      </trkpt>
      <trkpt lat="45.25402" lon="4.91827">
        <ele>256</ele>
        <time>2021-09-11T22:31:51Z</time>
      </trkpt>
      <trkpt lat="45.25407" lon="4.91855">
        <ele>256</ele>
        <time>2021-09-11T22:31:55Z</time>
      </trkpt>
      <trkpt lat="45.25411" lon="4.91962">
        <ele>253</ele>
        <time>2021-09-11T22:32:08Z</time>
      </trkpt>
      <trkpt lat="45.25408" lon="4.91988">
        <ele>252</ele>
        <time>2021-09-11T22:32:12Z</time>
      </trkpt>
      <trkpt lat="45.25401" lon="4.92008">
        <ele>250</ele>
        <time>2021-09-11T22:32:14Z</time>
      </trkpt>
      <trkpt lat="45.25389" lon="4.92029">
        <ele>247</ele>
        <time>2021-09-11T22:32:18Z</time>
      </trkpt>
      <trkpt lat="45.2537" lon="4.92047">
        <ele>245</ele>
        <time>2021-09-11T22:32:22Z</time>
      </trkpt>
      <trkpt lat="45.25357" lon="4.92057">
        <ele>244</ele>
        <time>2021-09-11T22:32:25Z</time>
      </trkpt>
      <trkpt lat="45.25344" lon="4.92065">
        <ele>243</ele>
        <time>2021-09-11T22:32:27Z</time>
      </trkpt>
      <trkpt lat="45.25157" lon="4.92196">
        <ele>250</ele>
        <time>2021-09-11T22:33:04Z</time>
      </trkpt>
      <trkpt lat="45.25144" lon="4.92202">
        <ele>251</ele>
        <time>2021-09-11T22:33:07Z</time>
      </trkpt>
      <trkpt lat="45.25122" lon="4.92204">
        <ele>251</ele>
        <time>2021-09-11T22:33:11Z</time>
      </trkpt>
      <trkpt lat="45.25112" lon="4.92135">
        <ele>249</ele>
        <time>2021-09-11T22:33:19Z</time>
      </trkpt>
      <trkpt lat="45.25106" lon="4.92105">
        <ele>248</ele>
        <time>2021-09-11T22:33:23Z</time>
      </trkpt>
      <trkpt lat="45.25102" lon="4.92092">
        <ele>247</ele>
        <time>2021-09-11T22:33:25Z</time>
      </trkpt>
      <trkpt lat="45.25097" lon="4.92081">
        <ele>247</ele>
        <time>2021-09-11T22:33:27Z</time>
      </trkpt>
      <trkpt lat="45.25069" lon="4.92049">
        <ele>247</ele>
        <time>2021-09-11T22:33:33Z</time>
      </trkpt>
      <trkpt lat="45.25054" lon="4.9203">
        <ele>247</ele>
        <time>2021-09-11T22:33:37Z</time>
      </trkpt>
      <trkpt lat="45.25043" lon="4.92001">
        <ele>247</ele>
        <time>2021-09-11T22:33:41Z</time>
      </trkpt>
      <trkpt lat="45.25026" lon="4.91925">
        <ele>247</ele>
        <time>2021-09-11T22:33:51Z</time>
      </trkpt>
      <trkpt lat="45.25006" lon="4.91849">
        <ele>245</ele>
        <time>2021-09-11T22:34:01Z</time>
      </trkpt>
      <trkpt lat="45.24919" lon="4.9162">
        <ele>245</ele>
        <time>2021-09-11T22:34:33Z</time>
      </trkpt>
      <trkpt lat="45.24905" lon="4.91575">
        <ele>244</ele>
        <time>2021-09-11T22:34:40Z</time>
      </trkpt>
      <trkpt lat="45.24901" lon="4.91553">
        <ele>243</ele>
        <time>2021-09-11T22:34:43Z</time>
      </trkpt>
      <trkpt lat="45.24755" lon="4.90688">
        <ele>232</ele>
        <time>2021-09-11T22:36:34Z</time>
      </trkpt>
      <trkpt lat="45.2475" lon="4.9066">
        <ele>232</ele>
        <time>2021-09-11T22:36:38Z</time>
      </trkpt>
      <trkpt lat="45.24742" lon="4.90632">
        <ele>231</ele>
        <time>2021-09-11T22:36:41Z</time>
      </trkpt>
      <trkpt lat="45.24727" lon="4.90604">
        <ele>230</ele>
        <time>2021-09-11T22:36:46Z</time>
      </trkpt>
      <trkpt lat="45.24708" lon="4.90577">
        <ele>230</ele>
        <time>2021-09-11T22:36:51Z</time>
      </trkpt>
      <trkpt lat="45.24518" lon="4.9032">
        <ele>226</ele>
        <time>2021-09-11T22:37:37Z</time>
      </trkpt>
      <trkpt lat="45.24463" lon="4.9025">
        <ele>224</ele>
        <time>2021-09-11T22:37:50Z</time>
      </trkpt>
      <trkpt lat="45.24423" lon="4.90189">
        <ele>222</ele>
        <time>2021-09-11T22:38:01Z</time>
      </trkpt>
      <trkpt lat="45.24358" lon="4.90069">
        <ele>220</ele>
        <time>2021-09-11T22:38:20Z</time>
      </trkpt>
      <trkpt lat="45.24345" lon="4.90043">
        <ele>220</ele>
        <time>2021-09-11T22:38:24Z</time>
      </trkpt>
      <trkpt lat="45.24334" lon="4.90008">
        <ele>220</ele>
        <time>2021-09-11T22:38:29Z</time>
      </trkpt>
      <trkpt lat="45.24316" lon="4.89908">
        <ele>219</ele>
        <time>2021-09-11T22:38:41Z</time>
      </trkpt>
      <trkpt lat="45.24318" lon="4.89834">
        <ele>218</ele>
        <time>2021-09-11T22:38:51Z</time>
      </trkpt>
      <trkpt lat="45.24358" lon="4.8952">
        <ele>216</ele>
        <time>2021-09-11T22:39:31Z</time>
      </trkpt>
      <trkpt lat="45.24361" lon="4.89481">
        <ele>215</ele>
        <time>2021-09-11T22:39:36Z</time>
      </trkpt>
      <trkpt lat="45.24356" lon="4.89444">
        <ele>213</ele>
        <time>2021-09-11T22:39:40Z</time>
      </trkpt>
      <trkpt lat="45.24349" lon="4.89426">
        <ele>211</ele>
        <time>2021-09-11T22:39:43Z</time>
      </trkpt>
      <trkpt lat="45.24327" lon="4.89382">
        <ele>209</ele>
        <time>2021-09-11T22:39:50Z</time>
      </trkpt>
      <trkpt lat="45.24205" lon="4.89175">
        <ele>212</ele>
        <time>2021-09-11T22:40:24Z</time>
      </trkpt>
      <trkpt lat="45.24187" lon="4.89136">
        <ele>210</ele>
        <time>2021-09-11T22:40:29Z</time>
      </trkpt>
      <trkpt lat="45.24105" lon="4.88918">
        <ele>209</ele>
        <time>2021-09-11T22:41:00Z</time>
      </trkpt>
      <trkpt lat="45.24091" lon="4.88877">
        <ele>208</ele>
        <time>2021-09-11T22:41:06Z</time>
      </trkpt>
      <trkpt lat="45.24078" lon="4.88827">
        <ele>207</ele>
        <time>2021-09-11T22:41:13Z</time>
      </trkpt>
      <trkpt lat="45.24071" lon="4.88805">
        <ele>206</ele>
        <time>2021-09-11T22:41:16Z</time>
      </trkpt>
      <trkpt lat="45.2405" lon="4.88761">
        <ele>207</ele>
        <time>2021-09-11T22:41:22Z</time>
      </trkpt>
      <trkpt lat="45.24007" lon="4.88679">
        <ele>202</ele>
        <time>2021-09-11T22:41:35Z</time>
      </trkpt>
      <trkpt lat="45.23995" lon="4.88652">
        <ele>201</ele>
        <time>2021-09-11T22:41:39Z</time>
      </trkpt>
      <trkpt lat="45.23985" lon="4.88611">
        <ele>202</ele>
        <time>2021-09-11T22:41:45Z</time>
      </trkpt>
      <trkpt lat="45.23983" lon="4.88527">
        <ele>200</ele>
        <time>2021-09-11T22:41:55Z</time>
      </trkpt>
      <trkpt lat="45.2397" lon="4.88474">
        <ele>200</ele>
        <time>2021-09-11T22:42:02Z</time>
      </trkpt>
      <trkpt lat="45.2389" lon="4.88255">
        <ele>198</ele>
        <time>2021-09-11T22:42:33Z</time>
      </trkpt>
      <trkpt lat="45.23824" lon="4.88124">
        <ele>201</ele>
        <time>2021-09-11T22:42:53Z</time>
      </trkpt>
      <trkpt lat="45.23808" lon="4.88086">
        <ele>201</ele>
        <time>2021-09-11T22:42:59Z</time>
      </trkpt>
      <trkpt lat="45.23806" lon="4.88067">
        <ele>200</ele>
        <time>2021-09-11T22:43:01Z</time>
      </trkpt>
      <trkpt lat="45.23795" lon="4.88014">
        <ele>200</ele>
        <time>2021-09-11T22:43:08Z</time>
      </trkpt>
      <trkpt lat="45.23741" lon="4.87787">
        <ele>200</ele>
        <time>2021-09-11T22:43:38Z</time>
      </trkpt>
      <trkpt lat="45.23751" lon="4.87783">
        <ele>199</ele>
        <time>2021-09-11T22:43:40Z</time>
      </trkpt>
      <trkpt lat="45.23741" lon="4.87787">
        <ele>200</ele>
        <time>2021-09-11T22:43:42Z</time>
      </trkpt>
      <trkpt lat="45.23714" lon="4.87612">
        <ele>199</ele>
        <time>2021-09-11T22:44:04Z</time>
      </trkpt>
      <trkpt lat="45.23714" lon="4.87602">
        <ele>198</ele>
        <time>2021-09-11T22:44:06Z</time>
      </trkpt>
      <trkpt lat="45.23716" lon="4.8753">
        <ele>196</ele>
        <time>2021-09-11T22:44:15Z</time>
      </trkpt>
      <trkpt lat="45.23753" lon="4.87146">
        <ele>191</ele>
        <time>2021-09-11T22:45:03Z</time>
      </trkpt>
      <trkpt lat="45.23759" lon="4.86632">
        <ele>192</ele>
        <time>2021-09-11T22:46:08Z</time>
      </trkpt>
      <trkpt lat="45.23761" lon="4.86597">
        <ele>191</ele>
        <time>2021-09-11T22:46:12Z</time>
      </trkpt>
      <trkpt lat="45.23787" lon="4.86509">
        <ele>190</ele>
        <time>2021-09-11T22:46:24Z</time>
      </trkpt>
      <trkpt lat="45.23831" lon="4.86374">
        <ele>186</ele>
        <time>2021-09-11T22:46:43Z</time>
      </trkpt>
      <trkpt lat="45.23846" lon="4.86317">
        <ele>184</ele>
        <time>2021-09-11T22:46:50Z</time>
      </trkpt>
      <trkpt lat="45.23883" lon="4.86157">
        <ele>184</ele>
        <time>2021-09-11T22:47:11Z</time>
      </trkpt>
      <trkpt lat="45.23901" lon="4.86049">
        <ele>181</ele>
        <time>2021-09-11T22:47:25Z</time>
      </trkpt>
      <trkpt lat="45.23907" lon="4.85993">
        <ele>179</ele>
        <time>2021-09-11T22:47:32Z</time>
      </trkpt>
      <trkpt lat="45.23907" lon="4.8596">
        <ele>179</ele>
        <time>2021-09-11T22:47:36Z</time>
      </trkpt>
      <trkpt lat="45.23905" lon="4.85934">
        <ele>178</ele>
        <time>2021-09-11T22:47:40Z</time>
      </trkpt>
      <trkpt lat="45.23895" lon="4.85848">
        <ele>179</ele>
        <time>2021-09-11T22:47:51Z</time>
      </trkpt>
      <trkpt lat="45.23887" lon="4.85547">
        <ele>177</ele>
        <time>2021-09-11T22:48:28Z</time>
      </trkpt>
      <trkpt lat="45.23871" lon="4.85438">
        <ele>179</ele>
        <time>2021-09-11T22:48:42Z</time>
      </trkpt>
      <trkpt lat="45.23868" lon="4.85428">
        <ele>179</ele>
        <time>2021-09-11T22:48:44Z</time>
      </trkpt>
      <trkpt lat="45.23834" lon="4.85262">
        <ele>180</ele>
        <time>2021-09-11T22:49:05Z</time>
      </trkpt>
      <trkpt lat="45.23829" lon="4.85206">
        <ele>181</ele>
        <time>2021-09-11T22:49:12Z</time>
      </trkpt>
      <trkpt lat="45.23834" lon="4.85094">
        <ele>179</ele>
        <time>2021-09-11T22:49:27Z</time>
      </trkpt>
      <trkpt lat="45.23831" lon="4.8501">
        <ele>174</ele>
        <time>2021-09-11T22:49:37Z</time>
      </trkpt>
      <trkpt lat="45.23834" lon="4.84963">
        <ele>173</ele>
        <time>2021-09-11T22:49:43Z</time>
      </trkpt>
      <trkpt lat="45.23841" lon="4.8492">
        <ele>173</ele>
        <time>2021-09-11T22:49:48Z</time>
      </trkpt>
      <trkpt lat="45.23851" lon="4.84875">
        <ele>173</ele>
        <time>2021-09-11T22:49:54Z</time>
      </trkpt>
      <trkpt lat="45.23857" lon="4.8483">
        <ele>173</ele>
        <time>2021-09-11T22:50:00Z</time>
      </trkpt>
      <trkpt lat="45.23859" lon="4.84792">
        <ele>172</ele>
        <time>2021-09-11T22:50:05Z</time>
      </trkpt>
      <trkpt lat="45.23855" lon="4.84725">
        <ele>171</ele>
        <time>2021-09-11T22:50:13Z</time>
      </trkpt>
      <trkpt lat="45.23821" lon="4.84435">
        <ele>172</ele>
        <time>2021-09-11T22:50:50Z</time>
      </trkpt>
      <trkpt lat="45.23791" lon="4.84316">
        <ele>171</ele>
        <time>2021-09-11T22:51:06Z</time>
      </trkpt>
      <trkpt lat="45.23791" lon="4.84295">
        <ele>171</ele>
        <time>2021-09-11T22:51:09Z</time>
      </trkpt>
      <trkpt lat="45.23795" lon="4.84269">
        <ele>170</ele>
        <time>2021-09-11T22:51:12Z</time>
      </trkpt>
      <trkpt lat="45.23831" lon="4.84119">
        <ele>163</ele>
        <time>2021-09-11T22:51:32Z</time>
      </trkpt>
      <trkpt lat="45.23837" lon="4.84073">
        <ele>160</ele>
        <time>2021-09-11T22:51:38Z</time>
      </trkpt>
      <trkpt lat="45.23845" lon="4.83912">
        <ele>160</ele>
        <time>2021-09-11T22:51:58Z</time>
      </trkpt>
      <trkpt lat="45.23845" lon="4.83858">
        <ele>158</ele>
        <time>2021-09-11T22:52:05Z</time>
      </trkpt>
      <trkpt lat="45.23839" lon="4.83854">
        <ele>159</ele>
        <time>2021-09-11T22:52:06Z</time>
      </trkpt>
      <trkpt lat="45.23826" lon="4.83848">
        <ele>159</ele>
        <time>2021-09-11T22:52:08Z</time>
      </trkpt>
      <trkpt lat="45.2381" lon="4.83839">
        <ele>159</ele>
        <time>2021-09-11T22:52:11Z</time>
      </trkpt>
      <trkpt lat="45.23762" lon="4.83834">
        <ele>160</ele>
        <time>2021-09-11T22:52:20Z</time>
      </trkpt>
      <trkpt lat="45.23556" lon="4.83823">
        <ele>154</ele>
        <time>2021-09-11T22:52:57Z</time>
      </trkpt>
      <trkpt lat="45.23405" lon="4.83829">
        <ele>148</ele>
        <time>2021-09-11T22:53:23Z</time>
      </trkpt>
      <trkpt lat="45.23188" lon="4.83841">
        <ele>146</ele>
        <time>2021-09-11T22:54:02Z</time>
      </trkpt>
      <trkpt lat="45.23141" lon="4.83839">
        <ele>146</ele>
        <time>2021-09-11T22:54:10Z</time>
      </trkpt>
      <trkpt lat="45.2293" lon="4.83807">
        <ele>146</ele>
        <time>2021-09-11T22:54:48Z</time>
      </trkpt>
      <trkpt lat="45.228" lon="4.83772">
        <ele>147</ele>
        <time>2021-09-11T22:55:12Z</time>
      </trkpt>
      <trkpt lat="45.2275" lon="4.8375">
        <ele>148</ele>
        <time>2021-09-11T22:55:21Z</time>
      </trkpt>
      <trkpt lat="45.22595" lon="4.83675">
        <ele>147</ele>
        <time>2021-09-11T22:55:50Z</time>
      </trkpt>
      <trkpt lat="45.22509" lon="4.83627">
        <ele>146</ele>
        <time>2021-09-11T22:56:07Z</time>
      </trkpt>
      <trkpt lat="45.22399" lon="4.83593">
        <ele>145</ele>
        <time>2021-09-11T22:56:27Z</time>
      </trkpt>
      <trkpt lat="45.22319" lon="4.83557">
        <ele>146</ele>
        <time>2021-09-11T22:56:42Z</time>
      </trkpt>
      <trkpt lat="45.22269" lon="4.83525">
        <ele>146</ele>
        <time>2021-09-11T22:56:51Z</time>
      </trkpt>
      <trkpt lat="45.22239" lon="4.83501">
        <ele>145</ele>
        <time>2021-09-11T22:56:58Z</time>
      </trkpt>
      <trkpt lat="45.22166" lon="4.83432">
        <ele>146</ele>
        <time>2021-09-11T22:57:13Z</time>
      </trkpt>
      <trkpt lat="45.21977" lon="4.83273">
        <ele>147</ele>
        <time>2021-09-11T22:57:52Z</time>
      </trkpt>
      <trkpt lat="45.21951" lon="4.83255">
        <ele>147</ele>
        <time>2021-09-11T22:57:57Z</time>
      </trkpt>
      <trkpt lat="45.21936" lon="4.83252">
        <ele>147</ele>
        <time>2021-09-11T22:58:00Z</time>
      </trkpt>
      <trkpt lat="45.21922" lon="4.83251">
        <ele>147</ele>
        <time>2021-09-11T22:58:03Z</time>
      </trkpt>
      <trkpt lat="45.21845" lon="4.83218">
        <ele>148</ele>
        <time>2021-09-11T22:58:17Z</time>
      </trkpt>
      <trkpt lat="45.218" lon="4.83194">
        <ele>149</ele>
        <time>2021-09-11T22:58:25Z</time>
      </trkpt>
      <trkpt lat="45.21764" lon="4.83165">
        <ele>150</ele>
        <time>2021-09-11T22:58:33Z</time>
      </trkpt>
      <trkpt lat="45.21732" lon="4.8313">
        <ele>150</ele>
        <time>2021-09-11T22:58:40Z</time>
      </trkpt>
      <trkpt lat="45.21728" lon="4.83136">
        <ele>150</ele>
        <time>2021-09-11T22:58:41Z</time>
      </trkpt>
      <trkpt lat="45.21732" lon="4.8313">
        <ele>150</ele>
        <time>2021-09-11T22:58:42Z</time>
      </trkpt>
      <trkpt lat="45.21764" lon="4.83165">
        <ele>150</ele>
        <time>2021-09-11T22:58:49Z</time>
      </trkpt>
      <trkpt lat="45.21747" lon="4.83188">
        <ele>150</ele>
        <time>2021-09-11T22:58:53Z</time>
      </trkpt>
      <trkpt lat="45.21741" lon="4.83211">
        <ele>151</ele>
        <time>2021-09-11T22:58:56Z</time>
      </trkpt>
      <trkpt lat="45.21734" lon="4.83228">
        <ele>151</ele>
        <time>2021-09-11T22:58:59Z</time>
      </trkpt>
      <trkpt lat="45.21714" lon="4.83256">
        <ele>152</ele>
        <time>2021-09-11T22:59:04Z</time>
      </trkpt>
      <trkpt lat="45.21624" lon="4.83345">
        <ele>159</ele>
        <time>2021-09-11T22:59:23Z</time>
      </trkpt>
      <trkpt lat="45.21538" lon="4.83455">
        <ele>167</ele>
        <time>2021-09-11T22:59:44Z</time>
      </trkpt>
      <trkpt lat="45.21535" lon="4.8346">
        <ele>167</ele>
        <time>2021-09-11T22:59:45Z</time>
      </trkpt>
      <trkpt lat="45.21512" lon="4.8353">
        <ele>170</ele>
        <time>2021-09-11T22:59:55Z</time>
      </trkpt>
      <trkpt lat="45.21457" lon="4.83681">
        <ele>186</ele>
        <time>2021-09-11T23:00:16Z</time>
      </trkpt>
      <trkpt lat="45.21445" lon="4.83704">
        <ele>191</ele>
        <time>2021-09-11T23:00:19Z</time>
      </trkpt>
      <trkpt lat="45.21396" lon="4.83731">
        <ele>196</ele>
        <time>2021-09-11T23:00:29Z</time>
      </trkpt>
      <trkpt lat="45.21366" lon="4.83754">
        <ele>198</ele>
        <time>2021-09-11T23:00:35Z</time>
      </trkpt>
      <trkpt lat="45.21346" lon="4.83777">
        <ele>200</ele>
        <time>2021-09-11T23:00:39Z</time>
      </trkpt>
      <trkpt lat="45.21329" lon="4.83786">
        <ele>200</ele>
        <time>2021-09-11T23:00:43Z</time>
      </trkpt>
      <trkpt lat="45.21307" lon="4.83789">
        <ele>202</ele>
        <time>2021-09-11T23:00:47Z</time>
      </trkpt>
      <trkpt lat="45.21276" lon="4.83817">
        <ele>204</ele>
        <time>2021-09-11T23:00:53Z</time>
      </trkpt>
      <trkpt lat="45.21246" lon="4.8383">
        <ele>204</ele>
        <time>2021-09-11T23:00:59Z</time>
      </trkpt>
      <trkpt lat="45.21161" lon="4.83933">
        <ele>220</ele>
        <time>2021-09-11T23:01:19Z</time>
      </trkpt>
      <trkpt lat="45.21135" lon="4.83984">
        <ele>227</ele>
        <time>2021-09-11T23:01:26Z</time>
      </trkpt>
      <trkpt lat="45.21116" lon="4.84029">
        <ele>232</ele>
        <time>2021-09-11T23:01:33Z</time>
      </trkpt>
      <trkpt lat="45.21104" lon="4.84032">
        <ele>233</ele>
        <time>2021-09-11T23:01:35Z</time>
      </trkpt>
      <trkpt lat="45.21086" lon="4.84025">
        <ele>233</ele>
        <time>2021-09-11T23:01:39Z</time>
      </trkpt>
      <trkpt lat="45.21074" lon="4.84017">
        <ele>234</ele>
        <time>2021-09-11T23:01:41Z</time>
      </trkpt>
      <trkpt lat="45.21066" lon="4.83998">
        <ele>234</ele>
        <time>2021-09-11T23:01:44Z</time>
      </trkpt>
      <trkpt lat="45.21069" lon="4.83953">
        <ele>234</ele>
        <time>2021-09-11T23:01:49Z</time>
      </trkpt>
      <trkpt lat="45.21073" lon="4.83923">
        <ele>233</ele>
        <time>2021-09-11T23:01:53Z</time>
      </trkpt>
      <trkpt lat="45.21091" lon="4.83881">
        <ele>230</ele>
        <time>2021-09-11T23:01:59Z</time>
      </trkpt>
      <trkpt lat="45.21092" lon="4.83857">
        <ele>230</ele>
        <time>2021-09-11T23:02:02Z</time>
      </trkpt>
      <trkpt lat="45.21084" lon="4.83838">
        <ele>232</ele>
        <time>2021-09-11T23:02:05Z</time>
      </trkpt>
      <trkpt lat="45.21062" lon="4.83815">
        <ele>232</ele>
        <time>2021-09-11T23:02:10Z</time>
      </trkpt>
      <trkpt lat="45.21046" lon="4.83808">
        <ele>232</ele>
        <time>2021-09-11T23:02:13Z</time>
      </trkpt>
      <trkpt lat="45.21018" lon="4.83808">
        <ele>234</ele>
        <time>2021-09-11T23:02:18Z</time>
      </trkpt>
      <trkpt lat="45.21002" lon="4.83821">
        <ele>237</ele>
        <time>2021-09-11T23:02:21Z</time>
      </trkpt>
      <trkpt lat="45.20983" lon="4.83851">
        <ele>240</ele>
        <time>2021-09-11T23:02:26Z</time>
      </trkpt>
      <trkpt lat="45.20961" lon="4.83874">
        <ele>243</ele>
        <time>2021-09-11T23:02:31Z</time>
      </trkpt>
      <trkpt lat="45.20911" lon="4.83906">
        <ele>248</ele>
        <time>2021-09-11T23:02:41Z</time>
      </trkpt>
      <trkpt lat="45.20824" lon="4.83932">
        <ele>254</ele>
        <time>2021-09-11T23:02:57Z</time>
      </trkpt>
      <trkpt lat="45.20787" lon="4.83938">
        <ele>258</ele>
        <time>2021-09-11T23:03:03Z</time>
      </trkpt>
      <trkpt lat="45.20744" lon="4.83935">
        <ele>261</ele>
        <time>2021-09-11T23:03:11Z</time>
      </trkpt>
      <trkpt lat="45.20703" lon="4.83922">
        <ele>263</ele>
        <time>2021-09-11T23:03:19Z</time>
      </trkpt>
      <trkpt lat="45.20681" lon="4.83911">
        <ele>264</ele>
        <time>2021-09-11T23:03:23Z</time>
      </trkpt>
      <trkpt lat="45.20669" lon="4.83909">
        <ele>265</ele>
        <time>2021-09-11T23:03:25Z</time>
      </trkpt>
      <trkpt lat="45.20658" lon="4.83914">
        <ele>266</ele>
        <time>2021-09-11T23:03:27Z</time>
      </trkpt>
      <trkpt lat="45.20641" lon="4.83943">
        <ele>270</ele>
        <time>2021-09-11T23:03:32Z</time>
      </trkpt>
      <trkpt lat="45.20615" lon="4.8397">
        <ele>274</ele>
        <time>2021-09-11T23:03:37Z</time>
      </trkpt>
      <trkpt lat="45.20577" lon="4.83986">
        <ele>277</ele>
        <time>2021-09-11T23:03:44Z</time>
      </trkpt>
      <trkpt lat="45.20539" lon="4.83998">
        <ele>280</ele>
        <time>2021-09-11T23:03:51Z</time>
      </trkpt>
      <trkpt lat="45.2052" lon="4.83998">
        <ele>282</ele>
        <time>2021-09-11T23:03:55Z</time>
      </trkpt>
      <trkpt lat="45.20491" lon="4.8399">
        <ele>282</ele>
        <time>2021-09-11T23:04:00Z</time>
      </trkpt>
      <trkpt lat="45.20414" lon="4.83988">
        <ele>287</ele>
        <time>2021-09-11T23:04:14Z</time>
      </trkpt>
      <trkpt lat="45.20392" lon="4.83985">
        <ele>288</ele>
        <time>2021-09-11T23:04:18Z</time>
      </trkpt>
      <trkpt lat="45.20272" lon="4.83924">
        <ele>297</ele>
        <time>2021-09-11T23:04:40Z</time>
      </trkpt>
      <trkpt lat="45.20207" lon="4.83878">
        <ele>305</ele>
        <time>2021-09-11T23:04:53Z</time>
      </trkpt>
      <trkpt lat="45.20035" lon="4.83742">
        <ele>316</ele>
        <time>2021-09-11T23:05:28Z</time>
      </trkpt>
      <trkpt lat="45.20005" lon="4.83717">
        <ele>320</ele>
        <time>2021-09-11T23:05:34Z</time>
      </trkpt>
      <trkpt lat="45.19921" lon="4.8359">
        <ele>334</ele>
        <time>2021-09-11T23:05:56Z</time>
      </trkpt>
      <trkpt lat="45.19908" lon="4.83581">
        <ele>335</ele>
        <time>2021-09-11T23:05:59Z</time>
      </trkpt>
      <trkpt lat="45.19893" lon="4.83584">
        <ele>337</ele>
        <time>2021-09-11T23:06:02Z</time>
      </trkpt>
      <trkpt lat="45.19881" lon="4.83595">
        <ele>338</ele>
        <time>2021-09-11T23:06:04Z</time>
      </trkpt>
      <trkpt lat="45.19876" lon="4.83614">
        <ele>338</ele>
        <time>2021-09-11T23:06:07Z</time>
      </trkpt>
      <trkpt lat="45.19876" lon="4.83688">
        <ele>338</ele>
        <time>2021-09-11T23:06:16Z</time>
      </trkpt>
      <trkpt lat="45.19887" lon="4.8381">
        <ele>338</ele>
        <time>2021-09-11T23:06:31Z</time>
      </trkpt>
      <trkpt lat="45.19889" lon="4.83843">
        <ele>337</ele>
        <time>2021-09-11T23:06:35Z</time>
      </trkpt>
      <trkpt lat="45.19885" lon="4.83873">
        <ele>336</ele>
        <time>2021-09-11T23:06:39Z</time>
      </trkpt>
      <trkpt lat="45.19868" lon="4.83958">
        <ele>334</ele>
        <time>2021-09-11T23:06:50Z</time>
      </trkpt>
      <trkpt lat="45.19868" lon="4.83978">
        <ele>333</ele>
        <time>2021-09-11T23:06:53Z</time>
      </trkpt>
      <trkpt lat="45.19872" lon="4.83997">
        <ele>333</ele>
        <time>2021-09-11T23:06:55Z</time>
      </trkpt>
      <trkpt lat="45.19882" lon="4.84022">
        <ele>333</ele>
        <time>2021-09-11T23:06:59Z</time>
      </trkpt>
      <trkpt lat="45.20014" lon="4.84237">
        <ele>332</ele>
        <time>2021-09-11T23:07:35Z</time>
      </trkpt>
      <trkpt lat="45.20027" lon="4.8427">
        <ele>332</ele>
        <time>2021-09-11T23:07:39Z</time>
      </trkpt>
      <trkpt lat="45.20033" lon="4.84297">
        <ele>331</ele>
        <time>2021-09-11T23:07:43Z</time>
      </trkpt>
      <trkpt lat="45.20033" lon="4.84336">
        <ele>329</ele>
        <time>2021-09-11T23:07:48Z</time>
      </trkpt>
      <trkpt lat="45.19996" lon="4.84649">
        <ele>342</ele>
        <time>2021-09-11T23:08:28Z</time>
      </trkpt>
      <trkpt lat="45.19989" lon="4.8468">
        <ele>343</ele>
        <time>2021-09-11T23:08:32Z</time>
      </trkpt>
      <trkpt lat="45.19979" lon="4.84706">
        <ele>344</ele>
        <time>2021-09-11T23:08:35Z</time>
      </trkpt>
      <trkpt lat="45.19904" lon="4.84839">
        <ele>344</ele>
        <time>2021-09-11T23:08:57Z</time>
      </trkpt>
      <trkpt lat="45.19888" lon="4.8486">
        <ele>344</ele>
        <time>2021-09-11T23:09:01Z</time>
      </trkpt>
      <trkpt lat="45.1987" lon="4.84876">
        <ele>345</ele>
        <time>2021-09-11T23:09:04Z</time>
      </trkpt>
      <trkpt lat="45.1973" lon="4.84947">
        <ele>342</ele>
        <time>2021-09-11T23:09:31Z</time>
      </trkpt>
      <trkpt lat="45.19723" lon="4.84952">
        <ele>341</ele>
        <time>2021-09-11T23:09:32Z</time>
      </trkpt>
      <trkpt lat="45.19714" lon="4.84968">
        <ele>339</ele>
        <time>2021-09-11T23:09:35Z</time>
      </trkpt>
      <trkpt lat="45.19706" lon="4.84998">
        <ele>336</ele>
        <time>2021-09-11T23:09:39Z</time>
      </trkpt>
      <trkpt lat="45.19669" lon="4.85252">
        <ele>327</ele>
        <time>2021-09-11T23:10:11Z</time>
      </trkpt>
      <trkpt lat="45.19658" lon="4.85288">
        <ele>326</ele>
        <time>2021-09-11T23:10:16Z</time>
      </trkpt>
      <trkpt lat="45.19575" lon="4.8544">
        <ele>315</ele>
        <time>2021-09-11T23:10:40Z</time>
      </trkpt>
      <trkpt lat="45.19564" lon="4.85453">
        <ele>313</ele>
        <time>2021-09-11T23:10:43Z</time>
      </trkpt>
      <trkpt lat="45.19549" lon="4.85459">
        <ele>311</ele>
        <time>2021-09-11T23:10:46Z</time>
      </trkpt>
      <trkpt lat="45.19538" lon="4.85458">
        <ele>310</ele>
        <time>2021-09-11T23:10:48Z</time>
      </trkpt>
      <trkpt lat="45.19423" lon="4.85381">
        <ele>297</ele>
        <time>2021-09-11T23:11:10Z</time>
      </trkpt>
      <trkpt lat="45.19405" lon="4.85374">
        <ele>294</ele>
        <time>2021-09-11T23:11:14Z</time>
      </trkpt>
      <trkpt lat="45.19388" lon="4.85371">
        <ele>292</ele>
        <time>2021-09-11T23:11:17Z</time>
      </trkpt>
      <trkpt lat="45.19371" lon="4.85374">
        <ele>290</ele>
        <time>2021-09-11T23:11:20Z</time>
      </trkpt>
      <trkpt lat="45.19353" lon="4.8538">
        <ele>289</ele>
        <time>2021-09-11T23:11:23Z</time>
      </trkpt>
      <trkpt lat="45.19278" lon="4.85433">
        <ele>280</ele>
        <time>2021-09-11T23:11:38Z</time>
      </trkpt>
      <trkpt lat="45.19263" lon="4.85453">
        <ele>277</ele>
        <time>2021-09-11T23:11:42Z</time>
      </trkpt>
      <trkpt lat="45.19256" lon="4.85476">
        <ele>277</ele>
        <time>2021-09-11T23:11:45Z</time>
      </trkpt>
      <trkpt lat="45.19254" lon="4.85562">
        <ele>279</ele>
        <time>2021-09-11T23:11:56Z</time>
      </trkpt>
      <trkpt lat="45.19252" lon="4.85573">
        <ele>279</ele>
        <time>2021-09-11T23:11:57Z</time>
      </trkpt>
      <trkpt lat="45.19248" lon="4.85581">
        <ele>279</ele>
        <time>2021-09-11T23:11:58Z</time>
      </trkpt>
      <trkpt lat="45.19243" lon="4.85588">
        <ele>278</ele>
        <time>2021-09-11T23:11:59Z</time>
      </trkpt>
      <trkpt lat="45.19228" lon="4.85599">
        <ele>275</ele>
        <time>2021-09-11T23:12:02Z</time>
      </trkpt>
      <trkpt lat="45.19219" lon="4.85602">
        <ele>274</ele>
        <time>2021-09-11T23:12:04Z</time>
      </trkpt>
      <trkpt lat="45.19163" lon="4.8562">
        <ele>268</ele>
        <time>2021-09-11T23:12:14Z</time>
      </trkpt>
      <trkpt lat="45.19147" lon="4.85632">
        <ele>265</ele>
        <time>2021-09-11T23:12:18Z</time>
      </trkpt>
      <trkpt lat="45.19139" lon="4.85641">
        <ele>265</ele>
        <time>2021-09-11T23:12:19Z</time>
      </trkpt>
      <trkpt lat="45.19132" lon="4.85654">
        <ele>265</ele>
        <time>2021-09-11T23:12:21Z</time>
      </trkpt>
      <trkpt lat="45.19109" lon="4.85724">
        <ele>261</ele>
        <time>2021-09-11T23:12:31Z</time>
      </trkpt>
      <trkpt lat="45.19105" lon="4.85734">
        <ele>260</ele>
        <time>2021-09-11T23:12:33Z</time>
      </trkpt>
      <trkpt lat="45.1902" lon="4.85844">
        <ele>247</ele>
        <time>2021-09-11T23:12:53Z</time>
      </trkpt>
      <trkpt lat="45.18991" lon="4.85863">
        <ele>245</ele>
        <time>2021-09-11T23:12:59Z</time>
      </trkpt>
      <trkpt lat="45.18913" lon="4.859">
        <ele>245</ele>
        <time>2021-09-11T23:13:13Z</time>
      </trkpt>
      <trkpt lat="45.18904" lon="4.85909">
        <ele>243</ele>
        <time>2021-09-11T23:13:15Z</time>
      </trkpt>
      <trkpt lat="45.189" lon="4.85922">
        <ele>242</ele>
        <time>2021-09-11T23:13:17Z</time>
      </trkpt>
      <trkpt lat="45.189" lon="4.85939">
        <ele>239</ele>
        <time>2021-09-11T23:13:19Z</time>
      </trkpt>
      <trkpt lat="45.18911" lon="4.85956">
        <ele>237</ele>
        <time>2021-09-11T23:13:22Z</time>
      </trkpt>
      <trkpt lat="45.18925" lon="4.85959">
        <ele>236</ele>
        <time>2021-09-11T23:13:25Z</time>
      </trkpt>
      <trkpt lat="45.1897" lon="4.85937">
        <ele>238</ele>
        <time>2021-09-11T23:13:33Z</time>
      </trkpt>
      <trkpt lat="45.18997" lon="4.85932">
        <ele>237</ele>
        <time>2021-09-11T23:13:38Z</time>
      </trkpt>
      <trkpt lat="45.19095" lon="4.85919">
        <ele>235</ele>
        <time>2021-09-11T23:13:55Z</time>
      </trkpt>
      <trkpt lat="45.19106" lon="4.85921">
        <ele>235</ele>
        <time>2021-09-11T23:13:57Z</time>
      </trkpt>
      <trkpt lat="45.19116" lon="4.8593">
        <ele>234</ele>
        <time>2021-09-11T23:14:00Z</time>
      </trkpt>
      <trkpt lat="45.19121" lon="4.85944">
        <ele>233</ele>
        <time>2021-09-11T23:14:02Z</time>
      </trkpt>
      <trkpt lat="45.1912" lon="4.8596">
        <ele>231</ele>
        <time>2021-09-11T23:14:04Z</time>
      </trkpt>
      <trkpt lat="45.19116" lon="4.85972">
        <ele>229</ele>
        <time>2021-09-11T23:14:05Z</time>
      </trkpt>
      <trkpt lat="45.19108" lon="4.85981">
        <ele>228</ele>
        <time>2021-09-11T23:14:07Z</time>
      </trkpt>
      <trkpt lat="45.19096" lon="4.85984">
        <ele>226</ele>
        <time>2021-09-11T23:14:09Z</time>
      </trkpt>
      <trkpt lat="45.19075" lon="4.85985">
        <ele>225</ele>
        <time>2021-09-11T23:14:13Z</time>
      </trkpt>
      <trkpt lat="45.19054" lon="4.85994">
        <ele>224</ele>
        <time>2021-09-11T23:14:17Z</time>
      </trkpt>
      <trkpt lat="45.18968" lon="4.86068">
        <ele>215</ele>
        <time>2021-09-11T23:14:35Z</time>
      </trkpt>
      <trkpt lat="45.18892" lon="4.86122">
        <ele>208</ele>
        <time>2021-09-11T23:14:50Z</time>
      </trkpt>
      <trkpt lat="45.18847" lon="4.8615">
        <ele>204</ele>
        <time>2021-09-11T23:14:59Z</time>
      </trkpt>
      <trkpt lat="45.18816" lon="4.86171">
        <ele>200</ele>
        <time>2021-09-11T23:15:05Z</time>
      </trkpt>
      <trkpt lat="45.18794" lon="4.86182">
        <ele>199</ele>
        <time>2021-09-11T23:15:09Z</time>
      </trkpt>
      <trkpt lat="45.18776" lon="4.86185">
        <ele>199</ele>
        <time>2021-09-11T23:15:12Z</time>
      </trkpt>
      <trkpt lat="45.1873" lon="4.8617">
        <ele>197</ele>
        <time>2021-09-11T23:15:20Z</time>
      </trkpt>
      <trkpt lat="45.18652" lon="4.86176">
        <ele>190</ele>
        <time>2021-09-11T23:15:34Z</time>
      </trkpt>
      <trkpt lat="45.1865" lon="4.86167">
        <ele>189</ele>
        <time>2021-09-11T23:15:36Z</time>
      </trkpt>
      <trkpt lat="45.18642" lon="4.86163">
        <ele>189</ele>
        <time>2021-09-11T23:15:37Z</time>
      </trkpt>
      <trkpt lat="45.18637" lon="4.86167">
        <ele>188</ele>
        <time>2021-09-11T23:15:38Z</time>
      </trkpt>
      <trkpt lat="45.18634" lon="4.86175">
        <ele>188</ele>
        <time>2021-09-11T23:15:39Z</time>
      </trkpt>
      <trkpt lat="45.18638" lon="4.86185">
        <ele>189</ele>
        <time>2021-09-11T23:15:41Z</time>
      </trkpt>
      <trkpt lat="45.18633" lon="4.86208">
        <ele>190</ele>
        <time>2021-09-11T23:15:44Z</time>
      </trkpt>
      <trkpt lat="45.18635" lon="4.86271">
        <ele>193</ele>
        <time>2021-09-11T23:15:52Z</time>
      </trkpt>
      <trkpt lat="45.18629" lon="4.86272">
        <ele>193</ele>
        <time>2021-09-11T23:15:53Z</time>
      </trkpt>
      <trkpt lat="45.1858" lon="4.86246">
        <ele>190</ele>
        <time>2021-09-11T23:16:02Z</time>
      </trkpt>
      <trkpt lat="45.18565" lon="4.86246">
        <ele>189</ele>
        <time>2021-09-11T23:16:05Z</time>
      </trkpt>
      <trkpt lat="45.18475" lon="4.86255">
        <ele>182</ele>
        <time>2021-09-11T23:16:21Z</time>
      </trkpt>
      <trkpt lat="45.18473" lon="4.86236">
        <ele>182</ele>
        <time>2021-09-11T23:16:23Z</time>
      </trkpt>
      <trkpt lat="45.18455" lon="4.86136">
        <ele>179</ele>
        <time>2021-09-11T23:16:36Z</time>
      </trkpt>
      <trkpt lat="45.18448" lon="4.86114">
        <ele>179</ele>
        <time>2021-09-11T23:16:39Z</time>
      </trkpt>
      <trkpt lat="45.18403" lon="4.86116">
        <ele>178</ele>
        <time>2021-09-11T23:16:47Z</time>
      </trkpt>
      <trkpt lat="45.18411" lon="4.86228">
        <ele>178</ele>
        <time>2021-09-11T23:17:01Z</time>
      </trkpt>
      <trkpt lat="45.1842" lon="4.86243">
        <ele>179</ele>
        <time>2021-09-11T23:17:04Z</time>
      </trkpt>
      <trkpt lat="45.18476" lon="4.8637">
        <ele>181</ele>
        <time>2021-09-11T23:17:22Z</time>
      </trkpt>
      <trkpt lat="45.18477" lon="4.86294">
        <ele>182</ele>
        <time>2021-09-11T23:17:32Z</time>
      </trkpt>
      <trkpt lat="45.18476" lon="4.86261">
        <ele>182</ele>
        <time>2021-09-11T23:17:36Z</time>
      </trkpt>
      <trkpt lat="45.18426" lon="4.86242">
        <ele>179</ele>
        <time>2021-09-11T23:17:45Z</time>
      </trkpt>
      <trkpt lat="45.1842" lon="4.86243">
        <ele>179</ele>
        <time>2021-09-11T23:17:46Z</time>
      </trkpt>
      <trkpt lat="45.18288" lon="4.86282">
        <ele>171</ele>
        <time>2021-09-11T23:18:10Z</time>
      </trkpt>
      <trkpt lat="45.18139" lon="4.86302">
        <ele>169</ele>
        <time>2021-09-11T23:18:37Z</time>
      </trkpt>
      <trkpt lat="45.1802" lon="4.86301">
        <ele>167</ele>
        <time>2021-09-11T23:18:58Z</time>
      </trkpt>
      <trkpt lat="45.17956" lon="4.86289">
        <ele>166</ele>
        <time>2021-09-11T23:19:10Z</time>
      </trkpt>
      <trkpt lat="45.17894" lon="4.86264">
        <ele>166</ele>
        <time>2021-09-11T23:19:21Z</time>
      </trkpt>
      <trkpt lat="45.17881" lon="4.86261">
        <ele>166</ele>
        <time>2021-09-11T23:19:23Z</time>
      </trkpt>
      <trkpt lat="45.17849" lon="4.8626">
        <ele>166</ele>
        <time>2021-09-11T23:19:29Z</time>
      </trkpt>
      <trkpt lat="45.17829" lon="4.86264">
        <ele>167</ele>
        <time>2021-09-11T23:19:33Z</time>
      </trkpt>
      <trkpt lat="45.17818" lon="4.86277">
        <ele>166</ele>
        <time>2021-09-11T23:19:35Z</time>
      </trkpt>
      <trkpt lat="45.17795" lon="4.86312">
        <ele>165</ele>
        <time>2021-09-11T23:19:41Z</time>
      </trkpt>
      <trkpt lat="45.17789" lon="4.86318">
        <ele>165</ele>
        <time>2021-09-11T23:19:43Z</time>
      </trkpt>
      <trkpt lat="45.17772" lon="4.86327">
        <ele>166</ele>
        <time>2021-09-11T23:19:46Z</time>
      </trkpt>
      <trkpt lat="45.17738" lon="4.86334">
        <ele>166</ele>
        <time>2021-09-11T23:19:52Z</time>
      </trkpt>
      <trkpt lat="45.17706" lon="4.86318">
        <ele>166</ele>
        <time>2021-09-11T23:19:58Z</time>
      </trkpt>
      <trkpt lat="45.17674" lon="4.86276">
        <ele>165</ele>
        <time>2021-09-11T23:20:06Z</time>
      </trkpt>
      <trkpt lat="45.1766" lon="4.86257">
        <ele>165</ele>
        <time>2021-09-11T23:20:09Z</time>
      </trkpt>
      <trkpt lat="45.17626" lon="4.86213">
        <ele>165</ele>
        <time>2021-09-11T23:20:17Z</time>
      </trkpt>
      <trkpt lat="45.17615" lon="4.86204">
        <ele>166</ele>
        <time>2021-09-11T23:20:20Z</time>
      </trkpt>
      <trkpt lat="45.17565" lon="4.86178">
        <ele>166</ele>
        <time>2021-09-11T23:20:29Z</time>
      </trkpt>
      <trkpt lat="45.17467" lon="4.86121">
        <ele>168</ele>
        <time>2021-09-11T23:20:48Z</time>
      </trkpt>
      <trkpt lat="45.17421" lon="4.86193">
        <ele>170</ele>
        <time>2021-09-11T23:21:00Z</time>
      </trkpt>
      <trkpt lat="45.17394" lon="4.86246">
        <ele>170</ele>
        <time>2021-09-11T23:21:08Z</time>
      </trkpt>
      <trkpt lat="45.1734" lon="4.86383">
        <ele>169</ele>
        <time>2021-09-11T23:21:28Z</time>
      </trkpt>
      <trkpt lat="45.17234" lon="4.86638">
        <ele>172</ele>
        <time>2021-09-11T23:22:05Z</time>
      </trkpt>
      <trkpt lat="45.17019" lon="4.87149">
        <ele>174</ele>
        <time>2021-09-11T23:23:20Z</time>
      </trkpt>
      <trkpt lat="45.17007" lon="4.87181">
        <ele>174</ele>
        <time>2021-09-11T23:23:24Z</time>
      </trkpt>
      <trkpt lat="45.17" lon="4.87206">
        <ele>173</ele>
        <time>2021-09-11T23:23:28Z</time>
      </trkpt>
      <trkpt lat="45.17" lon="4.8722">
        <ele>173</ele>
        <time>2021-09-11T23:23:30Z</time>
      </trkpt>
      <trkpt lat="45.17014" lon="4.87389">
        <ele>172</ele>
        <time>2021-09-11T23:23:51Z</time>
      </trkpt>
      <trkpt lat="45.17023" lon="4.87517">
        <ele>171</ele>
        <time>2021-09-11T23:24:07Z</time>
      </trkpt>
      <trkpt lat="45.17027" lon="4.8759">
        <ele>172</ele>
        <time>2021-09-11T23:24:16Z</time>
      </trkpt>
      <trkpt lat="45.17024" lon="4.87621">
        <ele>172</ele>
        <time>2021-09-11T23:24:20Z</time>
      </trkpt>
      <trkpt lat="45.1701" lon="4.87706">
        <ele>172</ele>
        <time>2021-09-11T23:24:31Z</time>
      </trkpt>
      <trkpt lat="45.17001" lon="4.87719">
        <ele>172</ele>
        <time>2021-09-11T23:24:33Z</time>
      </trkpt>
      <trkpt lat="45.16993" lon="4.87723">
        <ele>172</ele>
        <time>2021-09-11T23:24:35Z</time>
      </trkpt>
      <trkpt lat="45.16988" lon="4.87733">
        <ele>172</ele>
        <time>2021-09-11T23:24:36Z</time>
      </trkpt>
      <trkpt lat="45.16989" lon="4.87743">
        <ele>172</ele>
        <time>2021-09-11T23:24:38Z</time>
      </trkpt>
      <trkpt lat="45.16994" lon="4.87752">
        <ele>172</ele>
        <time>2021-09-11T23:24:39Z</time>
      </trkpt>
      <trkpt lat="45.16994" lon="4.87773">
        <ele>172</ele>
        <time>2021-09-11T23:24:42Z</time>
      </trkpt>
      <trkpt lat="45.16992" lon="4.87794">
        <ele>172</ele>
        <time>2021-09-11T23:24:44Z</time>
      </trkpt>
      <trkpt lat="45.16973" lon="4.879">
        <ele>174</ele>
        <time>2021-09-11T23:24:58Z</time>
      </trkpt>
      <trkpt lat="45.16967" lon="4.87969">
        <ele>176</ele>
        <time>2021-09-11T23:25:07Z</time>
      </trkpt>
      <trkpt lat="45.16967" lon="4.87987">
        <ele>176</ele>
        <time>2021-09-11T23:25:09Z</time>
      </trkpt>
      <trkpt lat="45.16986" lon="4.88213">
        <ele>177</ele>
        <time>2021-09-11T23:25:38Z</time>
      </trkpt>
      <trkpt lat="45.16986" lon="4.8825">
        <ele>177</ele>
        <time>2021-09-11T23:25:42Z</time>
      </trkpt>
      <trkpt lat="45.16984" lon="4.88279">
        <ele>177</ele>
        <time>2021-09-11T23:25:46Z</time>
      </trkpt>
      <trkpt lat="45.16878" lon="4.88874">
        <ele>191</ele>
        <time>2021-09-11T23:27:03Z</time>
      </trkpt>
      <trkpt lat="45.16865" lon="4.88947">
        <ele>190</ele>
        <time>2021-09-11T23:27:12Z</time>
      </trkpt>
      <trkpt lat="45.16854" lon="4.8901">
        <ele>191</ele>
        <time>2021-09-11T23:27:21Z</time>
      </trkpt>
      <trkpt lat="45.16843" lon="4.89036">
        <ele>191</ele>
        <time>2021-09-11T23:27:24Z</time>
      </trkpt>
      <trkpt lat="45.16835" lon="4.89041">
        <ele>191</ele>
        <time>2021-09-11T23:27:26Z</time>
      </trkpt>
      <trkpt lat="45.16831" lon="4.89049">
        <ele>191</ele>
        <time>2021-09-11T23:27:27Z</time>
      </trkpt>
      <trkpt lat="45.1683" lon="4.89059">
        <ele>191</ele>
        <time>2021-09-11T23:27:28Z</time>
      </trkpt>
      <trkpt lat="45.16832" lon="4.89068">
        <ele>191</ele>
        <time>2021-09-11T23:27:30Z</time>
      </trkpt>
      <trkpt lat="45.16824" lon="4.89099">
        <ele>191</ele>
        <time>2021-09-11T23:27:34Z</time>
      </trkpt>
      <trkpt lat="45.16806" lon="4.89124">
        <ele>192</ele>
        <time>2021-09-11T23:27:38Z</time>
      </trkpt>
      <trkpt lat="45.16786" lon="4.89142">
        <ele>192</ele>
        <time>2021-09-11T23:27:42Z</time>
      </trkpt>
      <trkpt lat="45.16767" lon="4.89154">
        <ele>192</ele>
        <time>2021-09-11T23:27:46Z</time>
      </trkpt>
      <trkpt lat="45.16735" lon="4.89167">
        <ele>192</ele>
        <time>2021-09-11T23:27:52Z</time>
      </trkpt>
      <trkpt lat="45.16648" lon="4.89194">
        <ele>194</ele>
        <time>2021-09-11T23:28:08Z</time>
      </trkpt>
      <trkpt lat="45.16612" lon="4.89213">
        <ele>194</ele>
        <time>2021-09-11T23:28:15Z</time>
      </trkpt>
      <trkpt lat="45.16586" lon="4.89244">
        <ele>194</ele>
        <time>2021-09-11T23:28:21Z</time>
      </trkpt>
      <trkpt lat="45.16573" lon="4.89268">
        <ele>195</ele>
        <time>2021-09-11T23:28:25Z</time>
      </trkpt>
      <trkpt lat="45.16561" lon="4.89298">
        <ele>195</ele>
        <time>2021-09-11T23:28:29Z</time>
      </trkpt>
      <trkpt lat="45.16557" lon="4.89311">
        <ele>196</ele>
        <time>2021-09-11T23:28:31Z</time>
      </trkpt>
      <trkpt lat="45.1644" lon="4.89797">
        <ele>209</ele>
        <time>2021-09-11T23:29:35Z</time>
      </trkpt>
      <trkpt lat="45.16422" lon="4.89851">
        <ele>211</ele>
        <time>2021-09-11T23:29:43Z</time>
      </trkpt>
      <trkpt lat="45.16355" lon="4.90017">
        <ele>211</ele>
        <time>2021-09-11T23:30:07Z</time>
      </trkpt>
      <trkpt lat="45.16347" lon="4.90032">
        <ele>211</ele>
        <time>2021-09-11T23:30:09Z</time>
      </trkpt>
      <trkpt lat="45.16237" lon="4.90207">
        <ele>215</ele>
        <time>2021-09-11T23:30:38Z</time>
      </trkpt>
      <trkpt lat="45.16215" lon="4.90249">
        <ele>214</ele>
        <time>2021-09-11T23:30:45Z</time>
      </trkpt>
      <trkpt lat="45.16097" lon="4.90497">
        <ele>222</ele>
        <time>2021-09-11T23:31:22Z</time>
      </trkpt>
      <trkpt lat="45.16078" lon="4.90551">
        <ele>225</ele>
        <time>2021-09-11T23:31:30Z</time>
      </trkpt>
      <trkpt lat="45.16062" lon="4.90613">
        <ele>226</ele>
        <time>2021-09-11T23:31:38Z</time>
      </trkpt>
      <trkpt lat="45.15985" lon="4.90826">
        <ele>234</ele>
        <time>2021-09-11T23:32:08Z</time>
      </trkpt>
      <trkpt lat="45.15964" lon="4.90882">
        <ele>235</ele>
        <time>2021-09-11T23:32:16Z</time>
      </trkpt>
      <trkpt lat="45.15951" lon="4.90911">
        <ele>235</ele>
        <time>2021-09-11T23:32:21Z</time>
      </trkpt>
      <trkpt lat="45.1592" lon="4.90961">
        <ele>235</ele>
        <time>2021-09-11T23:32:29Z</time>
      </trkpt>
      <trkpt lat="45.15893" lon="4.9099">
        <ele>235</ele>
        <time>2021-09-11T23:32:35Z</time>
      </trkpt>
      <trkpt lat="45.15869" lon="4.91008">
        <ele>236</ele>
        <time>2021-09-11T23:32:40Z</time>
      </trkpt>
      <trkpt lat="45.15806" lon="4.91048">
        <ele>240</ele>
        <time>2021-09-11T23:32:52Z</time>
      </trkpt>
      <trkpt lat="45.15758" lon="4.91082">
        <ele>241</ele>
        <time>2021-09-11T23:33:02Z</time>
      </trkpt>
      <trkpt lat="45.1563" lon="4.91172">
        <ele>247</ele>
        <time>2021-09-11T23:33:27Z</time>
      </trkpt>
      <trkpt lat="45.15602" lon="4.91198">
        <ele>251</ele>
        <time>2021-09-11T23:33:33Z</time>
      </trkpt>
      <trkpt lat="45.15511" lon="4.91301">
        <ele>248</ele>
        <time>2021-09-11T23:33:54Z</time>
      </trkpt>
      <trkpt lat="45.15448" lon="4.91383">
        <ele>241</ele>
        <time>2021-09-11T23:34:09Z</time>
      </trkpt>
      <trkpt lat="45.15437" lon="4.91387">
        <ele>241</ele>
        <time>2021-09-11T23:34:11Z</time>
      </trkpt>
      <trkpt lat="45.15429" lon="4.91383">
        <ele>240</ele>
        <time>2021-09-11T23:34:12Z</time>
      </trkpt>
      <trkpt lat="45.1542" lon="4.91385">
        <ele>240</ele>
        <time>2021-09-11T23:34:14Z</time>
      </trkpt>
      <trkpt lat="45.15415" lon="4.91389">
        <ele>240</ele>
        <time>2021-09-11T23:34:15Z</time>
      </trkpt>
      <trkpt lat="45.15411" lon="4.91396">
        <ele>239</ele>
        <time>2021-09-11T23:34:16Z</time>
      </trkpt>
      <trkpt lat="45.15409" lon="4.91407">
        <ele>239</ele>
        <time>2021-09-11T23:34:18Z</time>
      </trkpt>
      <trkpt lat="45.15411" lon="4.91419">
        <ele>239</ele>
        <time>2021-09-11T23:34:19Z</time>
      </trkpt>
      <trkpt lat="45.15407" lon="4.91443">
        <ele>238</ele>
        <time>2021-09-11T23:34:22Z</time>
      </trkpt>
      <trkpt lat="45.15206" lon="4.91727">
        <ele>233</ele>
        <time>2021-09-11T23:35:13Z</time>
      </trkpt>
      <trkpt lat="45.15157" lon="4.918">
        <ele>234</ele>
        <time>2021-09-11T23:35:25Z</time>
      </trkpt>
      <trkpt lat="45.15093" lon="4.91912">
        <ele>232</ele>
        <time>2021-09-11T23:35:44Z</time>
      </trkpt>
      <trkpt lat="45.15067" lon="4.91965">
        <ele>231</ele>
        <time>2021-09-11T23:35:52Z</time>
      </trkpt>
      <trkpt lat="45.14872" lon="4.924">
        <ele>242</ele>
        <time>2021-09-11T23:36:56Z</time>
      </trkpt>
      <trkpt lat="45.1486" lon="4.92428">
        <ele>244</ele>
        <time>2021-09-11T23:37:00Z</time>
      </trkpt>
      <trkpt lat="45.14821" lon="4.92515">
        <ele>245</ele>
        <time>2021-09-11T23:37:13Z</time>
      </trkpt>
      <trkpt lat="45.14689" lon="4.92877">
        <ele>242</ele>
        <time>2021-09-11T23:38:04Z</time>
      </trkpt>
      <trkpt lat="45.1467" lon="4.92918">
        <ele>242</ele>
        <time>2021-09-11T23:38:11Z</time>
      </trkpt>
      <trkpt lat="45.14627" lon="4.92986">
        <ele>244</ele>
        <time>2021-09-11T23:38:22Z</time>
      </trkpt>
      <trkpt lat="45.1434" lon="4.93417">
        <ele>255</ele>
        <time>2021-09-11T23:39:36Z</time>
      </trkpt>
      <trkpt lat="45.1421" lon="4.93644">
        <ele>263</ele>
        <time>2021-09-11T23:40:13Z</time>
      </trkpt>
      <trkpt lat="45.14204" lon="4.93649">
        <ele>263</ele>
        <time>2021-09-11T23:40:14Z</time>
      </trkpt>
      <trkpt lat="45.14187" lon="4.93673">
        <ele>264</ele>
        <time>2021-09-11T23:40:19Z</time>
      </trkpt>
      <trkpt lat="45.1418" lon="4.93672">
        <ele>265</ele>
        <time>2021-09-11T23:40:20Z</time>
      </trkpt>
      <trkpt lat="45.14171" lon="4.93678">
        <ele>265</ele>
        <time>2021-09-11T23:40:22Z</time>
      </trkpt>
      <trkpt lat="45.14168" lon="4.93683">
        <ele>265</ele>
        <time>2021-09-11T23:40:23Z</time>
      </trkpt>
      <trkpt lat="45.14167" lon="4.93693">
        <ele>266</ele>
        <time>2021-09-11T23:40:24Z</time>
      </trkpt>
      <trkpt lat="45.14168" lon="4.93703">
        <ele>266</ele>
        <time>2021-09-11T23:40:25Z</time>
      </trkpt>
      <trkpt lat="45.14161" lon="4.93734">
        <ele>267</ele>
        <time>2021-09-11T23:40:29Z</time>
      </trkpt>
      <trkpt lat="45.13976" lon="4.94175">
        <ele>286</ele>
        <time>2021-09-11T23:41:34Z</time>
      </trkpt>
      <trkpt lat="45.13948" lon="4.94213">
        <ele>287</ele>
        <time>2021-09-11T23:41:40Z</time>
      </trkpt>
      <trkpt lat="45.13893" lon="4.94274">
        <ele>287</ele>
        <time>2021-09-11T23:41:53Z</time>
      </trkpt>
      <trkpt lat="45.13848" lon="4.9433">
        <ele>284</ele>
        <time>2021-09-11T23:42:04Z</time>
      </trkpt>
      <trkpt lat="45.13821" lon="4.94389">
        <ele>283</ele>
        <time>2021-09-11T23:42:12Z</time>
      </trkpt>
      <trkpt lat="45.13762" lon="4.94556">
        <ele>282</ele>
        <time>2021-09-11T23:42:36Z</time>
      </trkpt>
      <trkpt lat="45.13744" lon="4.94597">
        <ele>284</ele>
        <time>2021-09-11T23:42:42Z</time>
      </trkpt>
      <trkpt lat="45.13697" lon="4.94671">
        <ele>286</ele>
        <time>2021-09-11T23:42:54Z</time>
      </trkpt>
      <trkpt lat="45.13662" lon="4.94719">
        <ele>288</ele>
        <time>2021-09-11T23:43:03Z</time>
      </trkpt>
      <trkpt lat="45.13648" lon="4.94733">
        <ele>289</ele>
        <time>2021-09-11T23:43:06Z</time>
      </trkpt>
      <trkpt lat="45.13608" lon="4.94769">
        <ele>290</ele>
        <time>2021-09-11T23:43:15Z</time>
      </trkpt>
      <trkpt lat="45.13555" lon="4.94797">
        <ele>289</ele>
        <time>2021-09-11T23:43:25Z</time>
      </trkpt>
      <trkpt lat="45.13535" lon="4.9481">
        <ele>289</ele>
        <time>2021-09-11T23:43:28Z</time>
      </trkpt>
      <trkpt lat="45.13434" lon="4.94815">
        <ele>283</ele>
        <time>2021-09-11T23:43:46Z</time>
      </trkpt>
      <trkpt lat="45.13391" lon="4.9482">
        <ele>282</ele>
        <time>2021-09-11T23:43:54Z</time>
      </trkpt>
      <trkpt lat="45.13333" lon="4.9485">
        <ele>281</ele>
        <time>2021-09-11T23:44:05Z</time>
      </trkpt>
      <trkpt lat="45.13318" lon="4.94866">
        <ele>280</ele>
        <time>2021-09-11T23:44:08Z</time>
      </trkpt>
      <trkpt lat="45.13308" lon="4.94886">
        <ele>279</ele>
        <time>2021-09-11T23:44:12Z</time>
      </trkpt>
      <trkpt lat="45.13303" lon="4.94924">
        <ele>279</ele>
        <time>2021-09-11T23:44:16Z</time>
      </trkpt>
      <trkpt lat="45.13298" lon="4.94978">
        <ele>277</ele>
        <time>2021-09-11T23:44:23Z</time>
      </trkpt>
      <trkpt lat="45.13285" lon="4.95019">
        <ele>275</ele>
        <time>2021-09-11T23:44:29Z</time>
      </trkpt>
      <trkpt lat="45.13269" lon="4.95044">
        <ele>272</ele>
        <time>2021-09-11T23:44:33Z</time>
      </trkpt>
      <trkpt lat="45.13186" lon="4.95106">
        <ele>268</ele>
        <time>2021-09-11T23:44:50Z</time>
      </trkpt>
      <trkpt lat="45.13172" lon="4.95123">
        <ele>267</ele>
        <time>2021-09-11T23:44:53Z</time>
      </trkpt>
      <trkpt lat="45.13164" lon="4.95141">
        <ele>266</ele>
        <time>2021-09-11T23:44:56Z</time>
      </trkpt>
      <trkpt lat="45.1316" lon="4.95164">
        <ele>266</ele>
        <time>2021-09-11T23:44:59Z</time>
      </trkpt>
      <trkpt lat="45.13153" lon="4.95233">
        <ele>265</ele>
        <time>2021-09-11T23:45:07Z</time>
      </trkpt>
      <trkpt lat="45.13146" lon="4.95272">
        <ele>264</ele>
        <time>2021-09-11T23:45:13Z</time>
      </trkpt>
      <trkpt lat="45.13131" lon="4.95331">
        <ele>262</ele>
        <time>2021-09-11T23:45:20Z</time>
      </trkpt>
      <trkpt lat="45.13123" lon="4.95356">
        <ele>263</ele>
        <time>2021-09-11T23:45:24Z</time>
      </trkpt>
      <trkpt lat="45.13114" lon="4.95373">
        <ele>263</ele>
        <time>2021-09-11T23:45:27Z</time>
      </trkpt>
      <trkpt lat="45.13105" lon="4.95387">
        <ele>263</ele>
        <time>2021-09-11T23:45:29Z</time>
      </trkpt>
      <trkpt lat="45.13073" lon="4.95416">
        <ele>261</ele>
        <time>2021-09-11T23:45:36Z</time>
      </trkpt>
      <trkpt lat="45.13045" lon="4.95433">
        <ele>262</ele>
        <time>2021-09-11T23:45:41Z</time>
      </trkpt>
      <trkpt lat="45.13019" lon="4.95447">
        <ele>263</ele>
        <time>2021-09-11T23:45:46Z</time>
      </trkpt>
      <trkpt lat="45.12892" lon="4.95499">
        <ele>268</ele>
        <time>2021-09-11T23:46:10Z</time>
      </trkpt>
      <trkpt lat="45.12847" lon="4.95524">
        <ele>268</ele>
        <time>2021-09-11T23:46:18Z</time>
      </trkpt>
      <trkpt lat="45.12805" lon="4.95562">
        <ele>270</ele>
        <time>2021-09-11T23:46:27Z</time>
      </trkpt>
      <trkpt lat="45.12712" lon="4.95671">
        <ele>270</ele>
        <time>2021-09-11T23:46:48Z</time>
      </trkpt>
      <trkpt lat="45.127" lon="4.95681">
        <ele>269</ele>
        <time>2021-09-11T23:46:51Z</time>
      </trkpt>
      <trkpt lat="45.12686" lon="4.95689">
        <ele>268</ele>
        <time>2021-09-11T23:46:54Z</time>
      </trkpt>
      <trkpt lat="45.12633" lon="4.95707">
        <ele>265</ele>
        <time>2021-09-11T23:47:03Z</time>
      </trkpt>
      <trkpt lat="45.12614" lon="4.95724">
        <ele>263</ele>
        <time>2021-09-11T23:47:07Z</time>
      </trkpt>
      <trkpt lat="45.12608" lon="4.95732">
        <ele>262</ele>
        <time>2021-09-11T23:47:09Z</time>
      </trkpt>
      <trkpt lat="45.12398" lon="4.96202">
        <ele>245</ele>
        <time>2021-09-11T23:48:19Z</time>
      </trkpt>
      <trkpt lat="45.12375" lon="4.96244">
        <ele>243</ele>
        <time>2021-09-11T23:48:25Z</time>
      </trkpt>
      <trkpt lat="45.12329" lon="4.9629">
        <ele>240</ele>
        <time>2021-09-11T23:48:35Z</time>
      </trkpt>
      <trkpt lat="45.12292" lon="4.96315">
        <ele>238</ele>
        <time>2021-09-11T23:48:43Z</time>
      </trkpt>
      <trkpt lat="45.12181" lon="4.96373">
        <ele>227</ele>
        <time>2021-09-11T23:49:04Z</time>
      </trkpt>
      <trkpt lat="45.12088" lon="4.96408">
        <ele>219</ele>
        <time>2021-09-11T23:49:21Z</time>
      </trkpt>
      <trkpt lat="45.12074" lon="4.96418">
        <ele>219</ele>
        <time>2021-09-11T23:49:24Z</time>
      </trkpt>
      <trkpt lat="45.12056" lon="4.96436">
        <ele>217</ele>
        <time>2021-09-11T23:49:28Z</time>
      </trkpt>
      <trkpt lat="45.12034" lon="4.9647">
        <ele>215</ele>
        <time>2021-09-11T23:49:33Z</time>
      </trkpt>
      <trkpt lat="45.12024" lon="4.9648">
        <ele>214</ele>
        <time>2021-09-11T23:49:35Z</time>
      </trkpt>
      <trkpt lat="45.12007" lon="4.96491">
        <ele>212</ele>
        <time>2021-09-11T23:49:39Z</time>
      </trkpt>
      <trkpt lat="45.11953" lon="4.96506">
        <ele>209</ele>
        <time>2021-09-11T23:49:49Z</time>
      </trkpt>
      <trkpt lat="45.11932" lon="4.96516">
        <ele>207</ele>
        <time>2021-09-11T23:49:53Z</time>
      </trkpt>
      <trkpt lat="45.11917" lon="4.96528">
        <ele>206</ele>
        <time>2021-09-11T23:49:56Z</time>
      </trkpt>
      <trkpt lat="45.11904" lon="4.96543">
        <ele>205</ele>
        <time>2021-09-11T23:49:59Z</time>
      </trkpt>
      <trkpt lat="45.11893" lon="4.96562">
        <ele>205</ele>
        <time>2021-09-11T23:50:02Z</time>
      </trkpt>
      <trkpt lat="45.11885" lon="4.96579">
        <ele>205</ele>
        <time>2021-09-11T23:50:04Z</time>
      </trkpt>
      <trkpt lat="45.11876" lon="4.96604">
        <ele>204</ele>
        <time>2021-09-11T23:50:08Z</time>
      </trkpt>
      <trkpt lat="45.11844" lon="4.9671">
        <ele>200</ele>
        <time>2021-09-11T23:50:22Z</time>
      </trkpt>
      <trkpt lat="45.11823" lon="4.96753">
        <ele>197</ele>
        <time>2021-09-11T23:50:29Z</time>
      </trkpt>
      <trkpt lat="45.11782" lon="4.96811">
        <ele>196</ele>
        <time>2021-09-11T23:50:39Z</time>
      </trkpt>
      <trkpt lat="45.11759" lon="4.96829">
        <ele>195</ele>
        <time>2021-09-11T23:50:44Z</time>
      </trkpt>
      <trkpt lat="45.11754" lon="4.96825">
        <ele>195</ele>
        <time>2021-09-11T23:50:45Z</time>
      </trkpt>
      <trkpt lat="45.11748" lon="4.96824">
        <ele>195</ele>
        <time>2021-09-11T23:50:46Z</time>
      </trkpt>
      <trkpt lat="45.1174" lon="4.96827">
        <ele>195</ele>
        <time>2021-09-11T23:50:47Z</time>
      </trkpt>
      <trkpt lat="45.11733" lon="4.96839">
        <ele>195</ele>
        <time>2021-09-11T23:50:49Z</time>
      </trkpt>
      <trkpt lat="45.11733" lon="4.96852">
        <ele>196</ele>
        <time>2021-09-11T23:50:51Z</time>
      </trkpt>
      <trkpt lat="45.11734" lon="4.96858">
        <ele>196</ele>
        <time>2021-09-11T23:50:52Z</time>
      </trkpt>
      <trkpt lat="45.11738" lon="4.96865">
        <ele>196</ele>
        <time>2021-09-11T23:50:53Z</time>
      </trkpt>
      <trkpt lat="45.11743" lon="4.96869">
        <ele>196</ele>
        <time>2021-09-11T23:50:54Z</time>
      </trkpt>
      <trkpt lat="45.1175" lon="4.9687">
        <ele>196</ele>
        <time>2021-09-11T23:50:55Z</time>
      </trkpt>
      <trkpt lat="45.11764" lon="4.96883">
        <ele>196</ele>
        <time>2021-09-11T23:50:58Z</time>
      </trkpt>
      <trkpt lat="45.11814" lon="4.96964">
        <ele>198</ele>
        <time>2021-09-11T23:51:12Z</time>
      </trkpt>
      <trkpt lat="45.11876" lon="4.97048">
        <ele>198</ele>
        <time>2021-09-11T23:51:27Z</time>
      </trkpt>
      <trkpt lat="45.11881" lon="4.97064">
        <ele>198</ele>
        <time>2021-09-11T23:51:29Z</time>
      </trkpt>
      <trkpt lat="45.11879" lon="4.9707">
        <ele>197</ele>
        <time>2021-09-11T23:51:30Z</time>
      </trkpt>
      <trkpt lat="45.11879" lon="4.97082">
        <ele>197</ele>
        <time>2021-09-11T23:51:31Z</time>
      </trkpt>
      <trkpt lat="45.11883" lon="4.97092">
        <ele>197</ele>
        <time>2021-09-11T23:51:33Z</time>
      </trkpt>
      <trkpt lat="45.11878" lon="4.97105">
        <ele>197</ele>
        <time>2021-09-11T23:51:35Z</time>
      </trkpt>
      <trkpt lat="45.11876" lon="4.97142">
        <ele>197</ele>
        <time>2021-09-11T23:51:39Z</time>
      </trkpt>
      <trkpt lat="45.11883" lon="4.97198">
        <ele>197</ele>
        <time>2021-09-11T23:51:47Z</time>
      </trkpt>
      <trkpt lat="45.11921" lon="4.974">
        <ele>196</ele>
        <time>2021-09-11T23:52:13Z</time>
      </trkpt>
      <trkpt lat="45.11953" lon="4.97585">
        <ele>197</ele>
        <time>2021-09-11T23:52:37Z</time>
      </trkpt>
      <trkpt lat="45.11949" lon="4.97588">
        <ele>197</ele>
        <time>2021-09-11T23:52:37Z</time>
      </trkpt>
      <trkpt lat="45.11947" lon="4.97594">
        <ele>197</ele>
        <time>2021-09-11T23:52:38Z</time>
      </trkpt>
      <trkpt lat="45.11949" lon="4.976">
        <ele>197</ele>
        <time>2021-09-11T23:52:39Z</time>
      </trkpt>
      <trkpt lat="45.11955" lon="4.97602">
        <ele>197</ele>
        <time>2021-09-11T23:52:40Z</time>
      </trkpt>
      <trkpt lat="45.12014" lon="4.97939">
        <ele>200</ele>
        <time>2021-09-11T23:53:24Z</time>
      </trkpt>
      <trkpt lat="45.12062" lon="4.98123">
        <ele>205</ele>
        <time>2021-09-11T23:53:48Z</time>
      </trkpt>
      <trkpt lat="45.12067" lon="4.98155">
        <ele>206</ele>
        <time>2021-09-11T23:53:53Z</time>
      </trkpt>
      <trkpt lat="45.12068" lon="4.98171">
        <ele>206</ele>
        <time>2021-09-11T23:53:55Z</time>
      </trkpt>
      <trkpt lat="45.12069" lon="4.9822">
        <ele>205</ele>
        <time>2021-09-11T23:54:01Z</time>
      </trkpt>
      <trkpt lat="45.12067" lon="4.98269">
        <ele>205</ele>
        <time>2021-09-11T23:54:07Z</time>
      </trkpt>
      <trkpt lat="45.12052" lon="4.98352">
        <ele>204</ele>
        <time>2021-09-11T23:54:18Z</time>
      </trkpt>
      <trkpt lat="45.12038" lon="4.98391">
        <ele>205</ele>
        <time>2021-09-11T23:54:23Z</time>
      </trkpt>
      <trkpt lat="45.12036" lon="4.98394">
        <ele>205</ele>
        <time>2021-09-11T23:54:24Z</time>
      </trkpt>
      <trkpt lat="45.1203" lon="4.98418">
        <ele>205</ele>
        <time>2021-09-11T23:54:27Z</time>
      </trkpt>
      <trkpt lat="45.1203" lon="4.98424">
        <ele>205</ele>
        <time>2021-09-11T23:54:28Z</time>
      </trkpt>
      <trkpt lat="45.12024" lon="4.98451">
        <ele>205</ele>
        <time>2021-09-11T23:54:31Z</time>
      </trkpt>
      <trkpt lat="45.12022" lon="4.98483">
        <ele>205</ele>
        <time>2021-09-11T23:54:35Z</time>
      </trkpt>
      <trkpt lat="45.12018" lon="4.98527">
        <ele>205</ele>
        <time>2021-09-11T23:54:41Z</time>
      </trkpt>
      <trkpt lat="45.12018" lon="4.98602">
        <ele>204</ele>
        <time>2021-09-11T23:54:50Z</time>
      </trkpt>
      <trkpt lat="45.12024" lon="4.98657">
        <ele>204</ele>
        <time>2021-09-11T23:54:57Z</time>
      </trkpt>
      <trkpt lat="45.12032" lon="4.98712">
        <ele>203</ele>
        <time>2021-09-11T23:55:04Z</time>
      </trkpt>
      <trkpt lat="45.12038" lon="4.98737">
        <ele>203</ele>
        <time>2021-09-11T23:55:08Z</time>
      </trkpt>
      <trkpt lat="45.12053" lon="4.98727">
        <ele>204</ele>
        <time>2021-09-11T23:55:11Z</time>
      </trkpt>
      <trkpt lat="45.12054" lon="4.98706">
        <ele>204</ele>
        <time>2021-09-11T23:55:13Z</time>
      </trkpt>
      <trkpt lat="45.12037" lon="4.98668">
        <ele>204</ele>
        <time>2021-09-11T23:55:19Z</time>
      </trkpt>
      <trkpt lat="45.12037" lon="4.98658">
        <ele>204</ele>
        <time>2021-09-11T23:55:20Z</time>
      </trkpt>
      <trkpt lat="45.12037" lon="4.98668">
        <ele>204</ele>
        <time>2021-09-11T23:55:21Z</time>
      </trkpt>
      <trkpt lat="45.12054" lon="4.98706">
        <ele>204</ele>
        <time>2021-09-11T23:55:27Z</time>
      </trkpt>
      <trkpt lat="45.12053" lon="4.98727">
        <ele>204</ele>
        <time>2021-09-11T23:55:30Z</time>
      </trkpt>
      <trkpt lat="45.12038" lon="4.98737">
        <ele>203</ele>
        <time>2021-09-11T23:55:33Z</time>
      </trkpt>
      <trkpt lat="45.12062" lon="4.98823">
        <ele>204</ele>
        <time>2021-09-11T23:55:44Z</time>
      </trkpt>
      <trkpt lat="45.12099" lon="4.98903">
        <ele>204</ele>
        <time>2021-09-11T23:55:56Z</time>
      </trkpt>
      <trkpt lat="45.12124" lon="4.98945">
        <ele>205</ele>
        <time>2021-09-11T23:56:03Z</time>
      </trkpt>
      <trkpt lat="45.12172" lon="4.99006">
        <ele>208</ele>
        <time>2021-09-11T23:56:15Z</time>
      </trkpt>
      <trkpt lat="45.12194" lon="4.9903">
        <ele>211</ele>
        <time>2021-09-11T23:56:19Z</time>
      </trkpt>
      <trkpt lat="45.12213" lon="4.99058">
        <ele>212</ele>
        <time>2021-09-11T23:56:24Z</time>
      </trkpt>
      <trkpt lat="45.12217" lon="4.9907">
        <ele>212</ele>
        <time>2021-09-11T23:56:26Z</time>
      </trkpt>
      <trkpt lat="45.12211" lon="4.99106">
        <ele>211</ele>
        <time>2021-09-11T23:56:31Z</time>
      </trkpt>
      <trkpt lat="45.12132" lon="4.99408">
        <ele>209</ele>
        <time>2021-09-11T23:57:11Z</time>
      </trkpt>
      <trkpt lat="45.12113" lon="4.99453">
        <ele>208</ele>
        <time>2021-09-11T23:57:18Z</time>
      </trkpt>
      <trkpt lat="45.12061" lon="4.99551">
        <ele>207</ele>
        <time>2021-09-11T23:57:33Z</time>
      </trkpt>
      <trkpt lat="45.12042" lon="4.99585">
        <ele>208</ele>
        <time>2021-09-11T23:57:39Z</time>
      </trkpt>
      <trkpt lat="45.11963" lon="4.99732">
        <ele>208</ele>
        <time>2021-09-11T23:58:02Z</time>
      </trkpt>
      <trkpt lat="45.11932" lon="4.99776">
        <ele>210</ele>
        <time>2021-09-11T23:58:10Z</time>
      </trkpt>
      <trkpt lat="45.11907" lon="4.99806">
        <ele>213</ele>
        <time>2021-09-11T23:58:15Z</time>
      </trkpt>
      <trkpt lat="45.11872" lon="4.9984">
        <ele>220</ele>
        <time>2021-09-11T23:58:23Z</time>
      </trkpt>
      <trkpt lat="45.11849" lon="4.99855">
        <ele>224</ele>
        <time>2021-09-11T23:58:27Z</time>
      </trkpt>
      <trkpt lat="45.11713" lon="4.99909">
        <ele>236</ele>
        <time>2021-09-11T23:58:53Z</time>
      </trkpt>
      <trkpt lat="45.11692" lon="4.9992">
        <ele>235</ele>
        <time>2021-09-11T23:58:57Z</time>
      </trkpt>
      <trkpt lat="45.1167" lon="4.99935">
        <ele>236</ele>
        <time>2021-09-11T23:59:01Z</time>
      </trkpt>
      <trkpt lat="45.11636" lon="4.99969">
        <ele>236</ele>
        <time>2021-09-11T23:59:08Z</time>
      </trkpt>
      <trkpt lat="45.11574" lon="5.00056">
        <ele>235</ele>
        <time>2021-09-11T23:59:24Z</time>
      </trkpt>
      <trkpt lat="45.11524" lon="5.00109">
        <ele>234</ele>
        <time>2021-09-11T23:59:35Z</time>
      </trkpt>
      <trkpt lat="45.11357" lon="5.00263">
        <ele>234</ele>
        <time>2021-09-12T00:00:10Z</time>
      </trkpt>
      <trkpt lat="45.11299" lon="5.00311">
        <ele>236</ele>
        <time>2021-09-12T00:00:22Z</time>
      </trkpt>
      <trkpt lat="45.11246" lon="5.00344">
        <ele>237</ele>
        <time>2021-09-12T00:00:33Z</time>
      </trkpt>
      <trkpt lat="45.11224" lon="5.00351">
        <ele>238</ele>
        <time>2021-09-12T00:00:37Z</time>
      </trkpt>
      <trkpt lat="45.11205" lon="5.00365">
        <ele>239</ele>
        <time>2021-09-12T00:00:40Z</time>
      </trkpt>
      <trkpt lat="45.11165" lon="5.00386">
        <ele>241</ele>
        <time>2021-09-12T00:00:48Z</time>
      </trkpt>
      <trkpt lat="45.11145" lon="5.00396">
        <ele>242</ele>
        <time>2021-09-12T00:00:52Z</time>
      </trkpt>
      <trkpt lat="45.11114" lon="5.00409">
        <ele>244</ele>
        <time>2021-09-12T00:00:58Z</time>
      </trkpt>
      <trkpt lat="45.11066" lon="5.00441">
        <ele>248</ele>
        <time>2021-09-12T00:01:07Z</time>
      </trkpt>
      <trkpt lat="45.10931" lon="5.00537">
        <ele>265</ele>
        <time>2021-09-12T00:01:34Z</time>
      </trkpt>
      <trkpt lat="45.10889" lon="5.00557">
        <ele>264</ele>
        <time>2021-09-12T00:01:42Z</time>
      </trkpt>
      <trkpt lat="45.1086" lon="5.00566">
        <ele>262</ele>
        <time>2021-09-12T00:01:47Z</time>
      </trkpt>
      <trkpt lat="45.10839" lon="5.00571">
        <ele>260</ele>
        <time>2021-09-12T00:01:51Z</time>
      </trkpt>
      <trkpt lat="45.10734" lon="5.00584">
        <ele>252</ele>
        <time>2021-09-12T00:02:10Z</time>
      </trkpt>
      <trkpt lat="45.10698" lon="5.00593">
        <ele>250</ele>
        <time>2021-09-12T00:02:16Z</time>
      </trkpt>
      <trkpt lat="45.10657" lon="5.00608">
        <ele>246</ele>
        <time>2021-09-12T00:02:24Z</time>
      </trkpt>
      <trkpt lat="45.10606" lon="5.00639">
        <ele>238</ele>
        <time>2021-09-12T00:02:33Z</time>
      </trkpt>
      <trkpt lat="45.10521" lon="5.0071">
        <ele>229</ele>
        <time>2021-09-12T00:02:51Z</time>
      </trkpt>
      <trkpt lat="45.1048" lon="5.00744">
        <ele>228</ele>
        <time>2021-09-12T00:03:00Z</time>
      </trkpt>
      <trkpt lat="45.1024" lon="5.00936">
        <ele>239</ele>
        <time>2021-09-12T00:03:49Z</time>
      </trkpt>
      <trkpt lat="45.10211" lon="5.00969">
        <ele>240</ele>
        <time>2021-09-12T00:03:55Z</time>
      </trkpt>
      <trkpt lat="45.10143" lon="5.01068">
        <ele>240</ele>
        <time>2021-09-12T00:04:13Z</time>
      </trkpt>
      <trkpt lat="45.10102" lon="5.01158">
        <ele>240</ele>
        <time>2021-09-12T00:04:26Z</time>
      </trkpt>
      <trkpt lat="45.10087" lon="5.01216">
        <ele>240</ele>
        <time>2021-09-12T00:04:34Z</time>
      </trkpt>
      <trkpt lat="45.10068" lon="5.01401">
        <ele>240</ele>
        <time>2021-09-12T00:04:57Z</time>
      </trkpt>
      <trkpt lat="45.10053" lon="5.01592">
        <ele>238</ele>
        <time>2021-09-12T00:05:21Z</time>
      </trkpt>
      <trkpt lat="45.10048" lon="5.01628">
        <ele>237</ele>
        <time>2021-09-12T00:05:26Z</time>
      </trkpt>
      <trkpt lat="45.10038" lon="5.01674">
        <ele>236</ele>
        <time>2021-09-12T00:05:32Z</time>
      </trkpt>
      <trkpt lat="45.0985" lon="5.02224">
        <ele>257</ele>
        <time>2021-09-12T00:06:49Z</time>
      </trkpt>
      <trkpt lat="45.09846" lon="5.0224">
        <ele>258</ele>
        <time>2021-09-12T00:06:51Z</time>
      </trkpt>
      <trkpt lat="45.09845" lon="5.02272">
        <ele>261</ele>
        <time>2021-09-12T00:06:55Z</time>
      </trkpt>
      <trkpt lat="45.09862" lon="5.0235">
        <ele>268</ele>
        <time>2021-09-12T00:07:05Z</time>
      </trkpt>
      <trkpt lat="45.09882" lon="5.02417">
        <ele>269</ele>
        <time>2021-09-12T00:07:14Z</time>
      </trkpt>
      <trkpt lat="45.09907" lon="5.02483">
        <ele>269</ele>
        <time>2021-09-12T00:07:24Z</time>
      </trkpt>
      <trkpt lat="45.09918" lon="5.02508">
        <ele>269</ele>
        <time>2021-09-12T00:07:27Z</time>
      </trkpt>
      <trkpt lat="45.09957" lon="5.02558">
        <ele>267</ele>
        <time>2021-09-12T00:07:37Z</time>
      </trkpt>
      <trkpt lat="45.09967" lon="5.02577">
        <ele>266</ele>
        <time>2021-09-12T00:07:40Z</time>
      </trkpt>
      <trkpt lat="45.09982" lon="5.02623">
        <ele>261</ele>
        <time>2021-09-12T00:07:46Z</time>
      </trkpt>
      <trkpt lat="45.09991" lon="5.02647">
        <ele>259</ele>
        <time>2021-09-12T00:07:50Z</time>
      </trkpt>
      <trkpt lat="45.10004" lon="5.02668">
        <ele>256</ele>
        <time>2021-09-12T00:07:53Z</time>
      </trkpt>
      <trkpt lat="45.10042" lon="5.02715">
        <ele>248</ele>
        <time>2021-09-12T00:08:02Z</time>
      </trkpt>
      <trkpt lat="45.10055" lon="5.02738">
        <ele>244</ele>
        <time>2021-09-12T00:08:06Z</time>
      </trkpt>
      <trkpt lat="45.10059" lon="5.0277">
        <ele>240</ele>
        <time>2021-09-12T00:08:10Z</time>
      </trkpt>
      <trkpt lat="45.10056" lon="5.02794">
        <ele>237</ele>
        <time>2021-09-12T00:08:13Z</time>
      </trkpt>
      <trkpt lat="45.10049" lon="5.02811">
        <ele>236</ele>
        <time>2021-09-12T00:08:15Z</time>
      </trkpt>
      <trkpt lat="45.10037" lon="5.02823">
        <ele>234</ele>
        <time>2021-09-12T00:08:18Z</time>
      </trkpt>
      <trkpt lat="45.10016" lon="5.02833">
        <ele>233</ele>
        <time>2021-09-12T00:08:22Z</time>
      </trkpt>
      <trkpt lat="45.09975" lon="5.02833">
        <ele>233</ele>
        <time>2021-09-12T00:08:29Z</time>
      </trkpt>
      <trkpt lat="45.09922" lon="5.02828">
        <ele>231</ele>
        <time>2021-09-12T00:08:39Z</time>
      </trkpt>
      <trkpt lat="45.09872" lon="5.02825">
        <ele>227</ele>
        <time>2021-09-12T00:08:48Z</time>
      </trkpt>
      <trkpt lat="45.09848" lon="5.02827">
        <ele>225</ele>
        <time>2021-09-12T00:08:52Z</time>
      </trkpt>
      <trkpt lat="45.09606" lon="5.02893">
        <ele>213</ele>
        <time>2021-09-12T00:09:36Z</time>
      </trkpt>
      <trkpt lat="45.09503" lon="5.02925">
        <ele>209</ele>
        <time>2021-09-12T00:09:54Z</time>
      </trkpt>
      <trkpt lat="45.09406" lon="5.02942">
        <ele>202</ele>
        <time>2021-09-12T00:10:12Z</time>
      </trkpt>
      <trkpt lat="45.09101" lon="5.0291">
        <ele>200</ele>
        <time>2021-09-12T00:11:06Z</time>
      </trkpt>
      <trkpt lat="45.09045" lon="5.02909">
        <ele>200</ele>
        <time>2021-09-12T00:11:16Z</time>
      </trkpt>
      <trkpt lat="45.0902" lon="5.02914">
        <ele>200</ele>
        <time>2021-09-12T00:11:21Z</time>
      </trkpt>
      <trkpt lat="45.08984" lon="5.02924">
        <ele>199</ele>
        <time>2021-09-12T00:11:27Z</time>
      </trkpt>
      <trkpt lat="45.08893" lon="5.02958">
        <ele>197</ele>
        <time>2021-09-12T00:11:44Z</time>
      </trkpt>
      <trkpt lat="45.08669" lon="5.03036">
        <ele>199</ele>
        <time>2021-09-12T00:12:25Z</time>
      </trkpt>
      <trkpt lat="45.08612" lon="5.03061">
        <ele>196</ele>
        <time>2021-09-12T00:12:36Z</time>
      </trkpt>
      <trkpt lat="45.08573" lon="5.03085">
        <ele>194</ele>
        <time>2021-09-12T00:12:43Z</time>
      </trkpt>
      <trkpt lat="45.08554" lon="5.03099">
        <ele>194</ele>
        <time>2021-09-12T00:12:47Z</time>
      </trkpt>
      <trkpt lat="45.08535" lon="5.03116">
        <ele>194</ele>
        <time>2021-09-12T00:12:51Z</time>
      </trkpt>
      <trkpt lat="45.08513" lon="5.03151">
        <ele>193</ele>
        <time>2021-09-12T00:12:57Z</time>
      </trkpt>
      <trkpt lat="45.08335" lon="5.03451">
        <ele>185</ele>
        <time>2021-09-12T00:13:46Z</time>
      </trkpt>
      <trkpt lat="45.08305" lon="5.03505">
        <ele>185</ele>
        <time>2021-09-12T00:13:55Z</time>
      </trkpt>
      <trkpt lat="45.08281" lon="5.03568">
        <ele>183</ele>
        <time>2021-09-12T00:14:04Z</time>
      </trkpt>
      <trkpt lat="45.08255" lon="5.03662">
        <ele>182</ele>
        <time>2021-09-12T00:14:16Z</time>
      </trkpt>
      <trkpt lat="45.08237" lon="5.03701">
        <ele>182</ele>
        <time>2021-09-12T00:14:22Z</time>
      </trkpt>
      <trkpt lat="45.08217" lon="5.03725">
        <ele>181</ele>
        <time>2021-09-12T00:14:27Z</time>
      </trkpt>
      <trkpt lat="45.08192" lon="5.03744">
        <ele>181</ele>
        <time>2021-09-12T00:14:32Z</time>
      </trkpt>
      <trkpt lat="45.08168" lon="5.03753">
        <ele>181</ele>
        <time>2021-09-12T00:14:36Z</time>
      </trkpt>
      <trkpt lat="45.08047" lon="5.03784">
        <ele>180</ele>
        <time>2021-09-12T00:14:58Z</time>
      </trkpt>
      <trkpt lat="45.0799" lon="5.03824">
        <ele>181</ele>
        <time>2021-09-12T00:15:10Z</time>
      </trkpt>
      <trkpt lat="45.07822" lon="5.03956">
        <ele>181</ele>
        <time>2021-09-12T00:15:44Z</time>
      </trkpt>
      <trkpt lat="45.07758" lon="5.03987">
        <ele>181</ele>
        <time>2021-09-12T00:15:56Z</time>
      </trkpt>
      <trkpt lat="45.07624" lon="5.04041">
        <ele>182</ele>
        <time>2021-09-12T00:16:21Z</time>
      </trkpt>
      <trkpt lat="45.07514" lon="5.04063">
        <ele>181</ele>
        <time>2021-09-12T00:16:40Z</time>
      </trkpt>
      <trkpt lat="45.07387" lon="5.04069">
        <ele>180</ele>
        <time>2021-09-12T00:17:03Z</time>
      </trkpt>
      <trkpt lat="45.07314" lon="5.04043">
        <ele>180</ele>
        <time>2021-09-12T00:17:16Z</time>
      </trkpt>
      <trkpt lat="45.07058" lon="5.03938">
        <ele>176</ele>
        <time>2021-09-12T00:18:04Z</time>
      </trkpt>
      <trkpt lat="45.06887" lon="5.03898">
        <ele>176</ele>
        <time>2021-09-12T00:18:35Z</time>
      </trkpt>
      <trkpt lat="45.06877" lon="5.03899">
        <ele>176</ele>
        <time>2021-09-12T00:18:36Z</time>
      </trkpt>
      <trkpt lat="45.0687" lon="5.03902">
        <ele>176</ele>
        <time>2021-09-12T00:18:38Z</time>
      </trkpt>
      <trkpt lat="45.06861" lon="5.03911">
        <ele>176</ele>
        <time>2021-09-12T00:18:40Z</time>
      </trkpt>
      <trkpt lat="45.06858" lon="5.03918">
        <ele>176</ele>
        <time>2021-09-12T00:18:41Z</time>
      </trkpt>
      <trkpt lat="45.06853" lon="5.0393">
        <ele>176</ele>
        <time>2021-09-12T00:18:42Z</time>
      </trkpt>
      <trkpt lat="45.06848" lon="5.03943">
        <ele>176</ele>
        <time>2021-09-12T00:18:44Z</time>
      </trkpt>
      <trkpt lat="45.06838" lon="5.03958">
        <ele>175</ele>
        <time>2021-09-12T00:18:47Z</time>
      </trkpt>
      <trkpt lat="45.0676" lon="5.04013">
        <ele>173</ele>
        <time>2021-09-12T00:19:02Z</time>
      </trkpt>
      <trkpt lat="45.06691" lon="5.04047">
        <ele>173</ele>
        <time>2021-09-12T00:19:15Z</time>
      </trkpt>
      <trkpt lat="45.06621" lon="5.04065">
        <ele>174</ele>
        <time>2021-09-12T00:19:28Z</time>
      </trkpt>
      <trkpt lat="45.06521" lon="5.04062">
        <ele>173</ele>
        <time>2021-09-12T00:19:46Z</time>
      </trkpt>
      <trkpt lat="45.06445" lon="5.04079">
        <ele>171</ele>
        <time>2021-09-12T00:20:00Z</time>
      </trkpt>
      <trkpt lat="45.0634" lon="5.04083">
        <ele>172</ele>
        <time>2021-09-12T00:20:18Z</time>
      </trkpt>
      <trkpt lat="45.06278" lon="5.04102">
        <ele>172</ele>
        <time>2021-09-12T00:20:30Z</time>
      </trkpt>
      <trkpt lat="45.06155" lon="5.04151">
        <ele>173</ele>
        <time>2021-09-12T00:20:52Z</time>
      </trkpt>
      <trkpt lat="45.06097" lon="5.0417">
        <ele>171</ele>
        <time>2021-09-12T00:21:03Z</time>
      </trkpt>
      <trkpt lat="45.06087" lon="5.04171">
        <ele>170</ele>
        <time>2021-09-12T00:21:05Z</time>
      </trkpt>
      <trkpt lat="45.06067" lon="5.04167">
        <ele>170</ele>
        <time>2021-09-12T00:21:08Z</time>
      </trkpt>
      <trkpt lat="45.06067" lon="5.04179">
        <ele>170</ele>
        <time>2021-09-12T00:21:10Z</time>
      </trkpt>
      <trkpt lat="45.06063" lon="5.04185">
        <ele>170</ele>
        <time>2021-09-12T00:21:11Z</time>
      </trkpt>
      <trkpt lat="45.06049" lon="5.04191">
        <ele>170</ele>
        <time>2021-09-12T00:21:13Z</time>
      </trkpt>
      <trkpt lat="45.06046" lon="5.04202">
        <ele>170</ele>
        <time>2021-09-12T00:21:15Z</time>
      </trkpt>
      <trkpt lat="45.06027" lon="5.04202">
        <ele>169</ele>
        <time>2021-09-12T00:21:18Z</time>
      </trkpt>
      <trkpt lat="45.0602" lon="5.04207">
        <ele>169</ele>
        <time>2021-09-12T00:21:20Z</time>
      </trkpt>
      <trkpt lat="45.0601" lon="5.04201">
        <ele>169</ele>
        <time>2021-09-12T00:21:22Z</time>
      </trkpt>
      <trkpt lat="45.06" lon="5.04203">
        <ele>169</ele>
        <time>2021-09-12T00:21:23Z</time>
      </trkpt>
      <trkpt lat="45.05982" lon="5.04216">
        <ele>170</ele>
        <time>2021-09-12T00:21:27Z</time>
      </trkpt>
      <trkpt lat="45.05961" lon="5.04224">
        <ele>170</ele>
        <time>2021-09-12T00:21:31Z</time>
      </trkpt>
      <trkpt lat="45.05941" lon="5.04233">
        <ele>171</ele>
        <time>2021-09-12T00:21:35Z</time>
      </trkpt>
      <trkpt lat="45.05913" lon="5.04239">
        <ele>171</ele>
        <time>2021-09-12T00:21:40Z</time>
      </trkpt>
      <trkpt lat="45.0587" lon="5.0424">
        <ele>169</ele>
        <time>2021-09-12T00:21:47Z</time>
      </trkpt>
      <trkpt lat="45.05847" lon="5.04247">
        <ele>169</ele>
        <time>2021-09-12T00:21:51Z</time>
      </trkpt>
      <trkpt lat="45.05836" lon="5.04242">
        <ele>168</ele>
        <time>2021-09-12T00:21:53Z</time>
      </trkpt>
      <trkpt lat="45.05831" lon="5.04235">
        <ele>168</ele>
        <time>2021-09-12T00:21:55Z</time>
      </trkpt>
      <trkpt lat="45.05824" lon="5.04232">
        <ele>168</ele>
        <time>2021-09-12T00:21:56Z</time>
      </trkpt>
      <trkpt lat="45.05818" lon="5.04236">
        <ele>168</ele>
        <time>2021-09-12T00:21:57Z</time>
      </trkpt>
      <trkpt lat="45.05814" lon="5.04244">
        <ele>168</ele>
        <time>2021-09-12T00:21:58Z</time>
      </trkpt>
      <trkpt lat="45.05804" lon="5.04249">
        <ele>168</ele>
        <time>2021-09-12T00:22:00Z</time>
      </trkpt>
      <trkpt lat="45.05791" lon="5.0425">
        <ele>169</ele>
        <time>2021-09-12T00:22:03Z</time>
      </trkpt>
      <trkpt lat="45.05777" lon="5.04256">
        <ele>169</ele>
        <time>2021-09-12T00:22:05Z</time>
      </trkpt>
      <trkpt lat="45.05731" lon="5.04286">
        <ele>169</ele>
        <time>2021-09-12T00:22:14Z</time>
      </trkpt>
      <trkpt lat="45.05659" lon="5.04327">
        <ele>169</ele>
        <time>2021-09-12T00:22:28Z</time>
      </trkpt>
      <trkpt lat="45.05627" lon="5.04339">
        <ele>169</ele>
        <time>2021-09-12T00:22:34Z</time>
      </trkpt>
      <trkpt lat="45.05505" lon="5.04366">
        <ele>169</ele>
        <time>2021-09-12T00:22:56Z</time>
      </trkpt>
      <trkpt lat="45.05487" lon="5.04372">
        <ele>169</ele>
        <time>2021-09-12T00:22:59Z</time>
      </trkpt>
      <trkpt lat="45.05382" lon="5.04423">
        <ele>170</ele>
        <time>2021-09-12T00:23:19Z</time>
      </trkpt>
      <trkpt lat="45.05349" lon="5.04444">
        <ele>170</ele>
        <time>2021-09-12T00:23:25Z</time>
      </trkpt>
      <trkpt lat="45.05299" lon="5.04492">
        <ele>169</ele>
        <time>2021-09-12T00:23:36Z</time>
      </trkpt>
      <trkpt lat="45.05256" lon="5.04529">
        <ele>169</ele>
        <time>2021-09-12T00:23:45Z</time>
      </trkpt>
      <trkpt lat="45.05205" lon="5.0456">
        <ele>168</ele>
        <time>2021-09-12T00:23:55Z</time>
      </trkpt>
      <trkpt lat="45.05166" lon="5.04581">
        <ele>169</ele>
        <time>2021-09-12T00:24:02Z</time>
      </trkpt>
      <trkpt lat="45.05128" lon="5.04605">
        <ele>169</ele>
        <time>2021-09-12T00:24:10Z</time>
      </trkpt>
      <trkpt lat="45.05098" lon="5.04635">
        <ele>169</ele>
        <time>2021-09-12T00:24:16Z</time>
      </trkpt>
      <trkpt lat="45.05042" lon="5.04697">
        <ele>169</ele>
        <time>2021-09-12T00:24:29Z</time>
      </trkpt>
      <trkpt lat="45.05024" lon="5.04687">
        <ele>169</ele>
        <time>2021-09-12T00:24:32Z</time>
      </trkpt>
      <trkpt lat="45.05022" lon="5.04668">
        <ele>169</ele>
        <time>2021-09-12T00:24:35Z</time>
      </trkpt>
      <trkpt lat="45.05025" lon="5.04702">
        <ele>168</ele>
        <time>2021-09-12T00:24:39Z</time>
      </trkpt>
      <trkpt lat="45.05017" lon="5.04729">
        <ele>168</ele>
        <time>2021-09-12T00:24:43Z</time>
      </trkpt>
      <trkpt lat="45.05012" lon="5.04729">
        <ele>168</ele>
        <time>2021-09-12T00:24:44Z</time>
      </trkpt>
      <trkpt lat="45.05002" lon="5.04734">
        <ele>168</ele>
        <time>2021-09-12T00:24:46Z</time>
      </trkpt>
      <trkpt lat="45.0497" lon="5.04733">
        <ele>168</ele>
        <time>2021-09-12T00:24:51Z</time>
      </trkpt>
      <trkpt lat="45.04906" lon="5.04751">
        <ele>167</ele>
        <time>2021-09-12T00:25:03Z</time>
      </trkpt>
      <trkpt lat="45.04894" lon="5.04762">
        <ele>167</ele>
        <time>2021-09-12T00:25:05Z</time>
      </trkpt>
      <trkpt lat="45.04887" lon="5.04788">
        <ele>168</ele>
        <time>2021-09-12T00:25:09Z</time>
      </trkpt>
      <trkpt lat="45.04885" lon="5.04806">
        <ele>168</ele>
        <time>2021-09-12T00:25:11Z</time>
      </trkpt>
      <trkpt lat="45.0488" lon="5.0482">
        <ele>168</ele>
        <time>2021-09-12T00:25:13Z</time>
      </trkpt>
      <trkpt lat="45.04876" lon="5.0482">
        <ele>168</ele>
        <time>2021-09-12T00:25:14Z</time>
      </trkpt>
      <trkpt lat="45.04873" lon="5.04832">
        <ele>168</ele>
        <time>2021-09-12T00:25:16Z</time>
      </trkpt>
      <trkpt lat="45.0487" lon="5.04831">
        <ele>168</ele>
        <time>2021-09-12T00:25:16Z</time>
      </trkpt>
      <trkpt lat="45.04862" lon="5.04835">
        <ele>168</ele>
        <time>2021-09-12T00:25:18Z</time>
      </trkpt>
      <trkpt lat="45.04857" lon="5.04843">
        <ele>168</ele>
        <time>2021-09-12T00:25:19Z</time>
      </trkpt>
      <trkpt lat="45.04856" lon="5.04857">
        <ele>168</ele>
        <time>2021-09-12T00:25:21Z</time>
      </trkpt>
      <trkpt lat="45.0482" lon="5.0487">
        <ele>169</ele>
        <time>2021-09-12T00:25:27Z</time>
      </trkpt>
      <trkpt lat="45.04754" lon="5.04884">
        <ele>170</ele>
        <time>2021-09-12T00:25:39Z</time>
      </trkpt>
      <trkpt lat="45.04619" lon="5.04916">
        <ele>168</ele>
        <time>2021-09-12T00:26:04Z</time>
      </trkpt>
      <trkpt lat="45.04586" lon="5.04925">
        <ele>168</ele>
        <time>2021-09-12T00:26:10Z</time>
      </trkpt>
      <trkpt lat="45.04572" lon="5.04924">
        <ele>168</ele>
        <time>2021-09-12T00:26:12Z</time>
      </trkpt>
      <trkpt lat="45.0455" lon="5.04933">
        <ele>167</ele>
        <time>2021-09-12T00:26:16Z</time>
      </trkpt>
      <trkpt lat="45.04496" lon="5.04961">
        <ele>165</ele>
        <time>2021-09-12T00:26:26Z</time>
      </trkpt>
      <trkpt lat="45.04503" lon="5.05034">
        <ele>165</ele>
        <time>2021-09-12T00:26:36Z</time>
      </trkpt>
      <trkpt lat="45.04501" lon="5.0505">
        <ele>164</ele>
        <time>2021-09-12T00:26:38Z</time>
      </trkpt>
      <trkpt lat="45.04497" lon="5.05063">
        <ele>164</ele>
        <time>2021-09-12T00:26:39Z</time>
      </trkpt>
      <trkpt lat="45.04494" lon="5.05068">
        <ele>164</ele>
        <time>2021-09-12T00:26:40Z</time>
      </trkpt>
      <trkpt lat="45.04486" lon="5.05076">
        <ele>163</ele>
        <time>2021-09-12T00:26:42Z</time>
      </trkpt>
      <trkpt lat="45.04371" lon="5.05141">
        <ele>153</ele>
        <time>2021-09-12T00:27:04Z</time>
      </trkpt>
      <trkpt lat="45.04352" lon="5.0515">
        <ele>151</ele>
        <time>2021-09-12T00:27:08Z</time>
      </trkpt>
      <trkpt lat="45.0429" lon="5.05148">
        <ele>148</ele>
        <time>2021-09-12T00:27:19Z</time>
      </trkpt>
      <trkpt lat="45.04249" lon="5.05141">
        <ele>146</ele>
        <time>2021-09-12T00:27:26Z</time>
      </trkpt>
      <trkpt lat="45.04222" lon="5.05138">
        <ele>144</ele>
        <time>2021-09-12T00:27:31Z</time>
      </trkpt>
      <trkpt lat="45.0422" lon="5.05139">
        <ele>144</ele>
        <time>2021-09-12T00:27:31Z</time>
      </trkpt>
      <trkpt lat="45.04221" lon="5.05186">
        <ele>144</ele>
        <time>2021-09-12T00:27:37Z</time>
      </trkpt>
      <trkpt lat="45.04219" lon="5.0519">
        <ele>144</ele>
        <time>2021-09-12T00:27:38Z</time>
      </trkpt>
      <trkpt lat="45.04217" lon="5.05242">
        <ele>143</ele>
        <time>2021-09-12T00:27:44Z</time>
      </trkpt>
      <trkpt lat="45.0418" lon="5.05558">
        <ele>144</ele>
        <time>2021-09-12T00:28:25Z</time>
      </trkpt>
      <trkpt lat="45.04226" lon="5.05566">
        <ele>147</ele>
        <time>2021-09-12T00:28:33Z</time>
      </trkpt>
      <trkpt lat="45.04226" lon="5.05606">
        <ele>146</ele>
        <time>2021-09-12T00:28:38Z</time>
      </trkpt>
      <trkpt lat="45.04218" lon="5.05619">
        <ele>146</ele>
        <time>2021-09-12T00:28:40Z</time>
      </trkpt>
      <trkpt lat="45.04212" lon="5.05621">
        <ele>146</ele>
        <time>2021-09-12T00:28:41Z</time>
      </trkpt>
      <trkpt lat="45.04205" lon="5.05631">
        <ele>145</ele>
        <time>2021-09-12T00:28:43Z</time>
      </trkpt>
      <trkpt lat="45.04182" lon="5.05637">
        <ele>143</ele>
        <time>2021-09-12T00:28:47Z</time>
      </trkpt>
      <trkpt lat="45.0407" lon="5.05625">
        <ele>145</ele>
        <time>2021-09-12T00:29:07Z</time>
      </trkpt>
      <trkpt lat="45.0403" lon="5.05623">
        <ele>151</ele>
        <time>2021-09-12T00:29:14Z</time>
      </trkpt>
      <trkpt lat="45.04014" lon="5.05618">
        <ele>153</ele>
        <time>2021-09-12T00:29:17Z</time>
      </trkpt>
      <trkpt lat="45.03979" lon="5.05596">
        <ele>156</ele>
        <time>2021-09-12T00:29:24Z</time>
      </trkpt>
      <trkpt lat="45.03945" lon="5.05569">
        <ele>157</ele>
        <time>2021-09-12T00:29:31Z</time>
      </trkpt>
      <trkpt lat="45.03924" lon="5.05558">
        <ele>159</ele>
        <time>2021-09-12T00:29:35Z</time>
      </trkpt>
      <trkpt lat="45.03884" lon="5.05546">
        <ele>160</ele>
        <time>2021-09-12T00:29:42Z</time>
      </trkpt>
      <trkpt lat="45.03827" lon="5.05535">
        <ele>160</ele>
        <time>2021-09-12T00:29:52Z</time>
      </trkpt>
      <trkpt lat="45.03762" lon="5.0551">
        <ele>160</ele>
        <time>2021-09-12T00:30:04Z</time>
      </trkpt>
      <trkpt lat="45.03733" lon="5.05492">
        <ele>160</ele>
        <time>2021-09-12T00:30:10Z</time>
      </trkpt>
      <trkpt lat="45.03708" lon="5.05539">
        <ele>161</ele>
        <time>2021-09-12T00:30:17Z</time>
      </trkpt>
      <trkpt lat="45.03607" lon="5.05698">
        <ele>163</ele>
        <time>2021-09-12T00:30:44Z</time>
      </trkpt>
      <trkpt lat="45.03575" lon="5.05768">
        <ele>164</ele>
        <time>2021-09-12T00:30:55Z</time>
      </trkpt>
      <trkpt lat="45.03555" lon="5.05805">
        <ele>165</ele>
        <time>2021-09-12T00:31:00Z</time>
      </trkpt>
      <trkpt lat="45.03506" lon="5.05881">
        <ele>164</ele>
        <time>2021-09-12T00:31:13Z</time>
      </trkpt>
      <trkpt lat="45.03434" lon="5.06001">
        <ele>165</ele>
        <time>2021-09-12T00:31:33Z</time>
      </trkpt>
      <trkpt lat="45.03387" lon="5.0607">
        <ele>166</ele>
        <time>2021-09-12T00:31:45Z</time>
      </trkpt>
      <trkpt lat="45.03338" lon="5.06112">
        <ele>168</ele>
        <time>2021-09-12T00:31:55Z</time>
      </trkpt>
      <trkpt lat="45.033" lon="5.06158">
        <ele>167</ele>
        <time>2021-09-12T00:32:04Z</time>
      </trkpt>
      <trkpt lat="45.03253" lon="5.0622">
        <ele>166</ele>
        <time>2021-09-12T00:32:16Z</time>
      </trkpt>
      <trkpt lat="45.0322" lon="5.06269">
        <ele>166</ele>
        <time>2021-09-12T00:32:24Z</time>
      </trkpt>
      <trkpt lat="45.03186" lon="5.06327">
        <ele>166</ele>
        <time>2021-09-12T00:32:34Z</time>
      </trkpt>
      <trkpt lat="45.03155" lon="5.0636">
        <ele>166</ele>
        <time>2021-09-12T00:32:41Z</time>
      </trkpt>
      <trkpt lat="45.03073" lon="5.06424">
        <ele>166</ele>
        <time>2021-09-12T00:32:57Z</time>
      </trkpt>
      <trkpt lat="45.03032" lon="5.06461">
        <ele>167</ele>
        <time>2021-09-12T00:33:06Z</time>
      </trkpt>
      <trkpt lat="45.03012" lon="5.06491">
        <ele>167</ele>
        <time>2021-09-12T00:33:11Z</time>
      </trkpt>
      <trkpt lat="45.0299" lon="5.06527">
        <ele>167</ele>
        <time>2021-09-12T00:33:17Z</time>
      </trkpt>
      <trkpt lat="45.02942" lon="5.06629">
        <ele>167</ele>
        <time>2021-09-12T00:33:33Z</time>
      </trkpt>
      <trkpt lat="45.02929" lon="5.06661">
        <ele>166</ele>
        <time>2021-09-12T00:33:37Z</time>
      </trkpt>
      <trkpt lat="45.02881" lon="5.0681">
        <ele>168</ele>
        <time>2021-09-12T00:33:58Z</time>
      </trkpt>
      <trkpt lat="45.02865" lon="5.06863">
        <ele>169</ele>
        <time>2021-09-12T00:34:05Z</time>
      </trkpt>
      <trkpt lat="45.0285" lon="5.069">
        <ele>169</ele>
        <time>2021-09-12T00:34:10Z</time>
      </trkpt>
      <trkpt lat="45.02787" lon="5.07031">
        <ele>170</ele>
        <time>2021-09-12T00:34:30Z</time>
      </trkpt>
      <trkpt lat="45.02782" lon="5.07044">
        <ele>170</ele>
        <time>2021-09-12T00:34:32Z</time>
      </trkpt>
      <trkpt lat="45.02762" lon="5.0716">
        <ele>173</ele>
        <time>2021-09-12T00:34:47Z</time>
      </trkpt>
      <trkpt lat="45.02743" lon="5.07241">
        <ele>174</ele>
        <time>2021-09-12T00:34:58Z</time>
      </trkpt>
      <trkpt lat="45.02713" lon="5.07339">
        <ele>175</ele>
        <time>2021-09-12T00:35:11Z</time>
      </trkpt>
      <trkpt lat="45.027" lon="5.07373">
        <ele>176</ele>
        <time>2021-09-12T00:35:16Z</time>
      </trkpt>
      <trkpt lat="45.02685" lon="5.07398">
        <ele>176</ele>
        <time>2021-09-12T00:35:20Z</time>
      </trkpt>
      <trkpt lat="45.02658" lon="5.07432">
        <ele>177</ele>
        <time>2021-09-12T00:35:27Z</time>
      </trkpt>
      <trkpt lat="45.02613" lon="5.07467">
        <ele>182</ele>
        <time>2021-09-12T00:35:36Z</time>
      </trkpt>
      <trkpt lat="45.02566" lon="5.07492">
        <ele>184</ele>
        <time>2021-09-12T00:35:45Z</time>
      </trkpt>
      <trkpt lat="45.02534" lon="5.07498">
        <ele>183</ele>
        <time>2021-09-12T00:35:51Z</time>
      </trkpt>
      <trkpt lat="45.02512" lon="5.07507">
        <ele>184</ele>
        <time>2021-09-12T00:35:55Z</time>
      </trkpt>
      <trkpt lat="45.0249" lon="5.07522">
        <ele>184</ele>
        <time>2021-09-12T00:35:59Z</time>
      </trkpt>
      <trkpt lat="45.02459" lon="5.07549">
        <ele>186</ele>
        <time>2021-09-12T00:36:06Z</time>
      </trkpt>
      <trkpt lat="45.02441" lon="5.07559">
        <ele>186</ele>
        <time>2021-09-12T00:36:09Z</time>
      </trkpt>
      <trkpt lat="45.02422" lon="5.07568">
        <ele>185</ele>
        <time>2021-09-12T00:36:13Z</time>
      </trkpt>
      <trkpt lat="45.02394" lon="5.07584">
        <ele>186</ele>
        <time>2021-09-12T00:36:18Z</time>
      </trkpt>
      <trkpt lat="45.02323" lon="5.07637">
        <ele>187</ele>
        <time>2021-09-12T00:36:32Z</time>
      </trkpt>
      <trkpt lat="45.02282" lon="5.07656">
        <ele>189</ele>
        <time>2021-09-12T00:36:40Z</time>
      </trkpt>
      <trkpt lat="45.0226" lon="5.07663">
        <ele>190</ele>
        <time>2021-09-12T00:36:44Z</time>
      </trkpt>
      <trkpt lat="45.02242" lon="5.07667">
        <ele>191</ele>
        <time>2021-09-12T00:36:47Z</time>
      </trkpt>
      <trkpt lat="45.02222" lon="5.07667">
        <ele>191</ele>
        <time>2021-09-12T00:36:51Z</time>
      </trkpt>
      <trkpt lat="45.0217" lon="5.07659">
        <ele>191</ele>
        <time>2021-09-12T00:37:00Z</time>
      </trkpt>
      <trkpt lat="45.02139" lon="5.0766">
        <ele>192</ele>
        <time>2021-09-12T00:37:05Z</time>
      </trkpt>
      <trkpt lat="45.02063" lon="5.07688">
        <ele>193</ele>
        <time>2021-09-12T00:37:19Z</time>
      </trkpt>
      <trkpt lat="45.0202" lon="5.0771">
        <ele>193</ele>
        <time>2021-09-12T00:37:28Z</time>
      </trkpt>
      <trkpt lat="45.01958" lon="5.07751">
        <ele>194</ele>
        <time>2021-09-12T00:37:40Z</time>
      </trkpt>
      <trkpt lat="45.01909" lon="5.07791">
        <ele>195</ele>
        <time>2021-09-12T00:37:50Z</time>
      </trkpt>
      <trkpt lat="45.01872" lon="5.07826">
        <ele>195</ele>
        <time>2021-09-12T00:37:58Z</time>
      </trkpt>
      <trkpt lat="45.01864" lon="5.07835">
        <ele>195</ele>
        <time>2021-09-12T00:38:00Z</time>
      </trkpt>
      <trkpt lat="45.01745" lon="5.08003">
        <ele>196</ele>
        <time>2021-09-12T00:38:29Z</time>
      </trkpt>
      <trkpt lat="45.01727" lon="5.08026">
        <ele>196</ele>
        <time>2021-09-12T00:38:34Z</time>
      </trkpt>
      <trkpt lat="45.01527" lon="5.0822">
        <ele>198</ele>
        <time>2021-09-12T00:39:17Z</time>
      </trkpt>
      <trkpt lat="45.01473" lon="5.08282">
        <ele>199</ele>
        <time>2021-09-12T00:39:29Z</time>
      </trkpt>
      <trkpt lat="45.01408" lon="5.08368">
        <ele>199</ele>
        <time>2021-09-12T00:39:45Z</time>
      </trkpt>
      <trkpt lat="45.01392" lon="5.08385">
        <ele>199</ele>
        <time>2021-09-12T00:39:49Z</time>
      </trkpt>
      <trkpt lat="45.0133" lon="5.08414">
        <ele>201</ele>
        <time>2021-09-12T00:40:00Z</time>
      </trkpt>
      <trkpt lat="45.0132" lon="5.08422">
        <ele>201</ele>
        <time>2021-09-12T00:40:02Z</time>
      </trkpt>
      <trkpt lat="45.01305" lon="5.08441">
        <ele>201</ele>
        <time>2021-09-12T00:40:06Z</time>
      </trkpt>
      <trkpt lat="45.01252" lon="5.08532">
        <ele>202</ele>
        <time>2021-09-12T00:40:21Z</time>
      </trkpt>
      <trkpt lat="45.01177" lon="5.0864">
        <ele>204</ele>
        <time>2021-09-12T00:40:40Z</time>
      </trkpt>
      <trkpt lat="45.01152" lon="5.0868">
        <ele>204</ele>
        <time>2021-09-12T00:40:47Z</time>
      </trkpt>
      <trkpt lat="45.01119" lon="5.08745">
        <ele>205</ele>
        <time>2021-09-12T00:40:57Z</time>
      </trkpt>
      <trkpt lat="45.01104" lon="5.08781">
        <ele>205</ele>
        <time>2021-09-12T00:41:02Z</time>
      </trkpt>
      <trkpt lat="45.01089" lon="5.0881">
        <ele>205</ele>
        <time>2021-09-12T00:41:06Z</time>
      </trkpt>
      <trkpt lat="45.01076" lon="5.08827">
        <ele>205</ele>
        <time>2021-09-12T00:41:10Z</time>
      </trkpt>
      <trkpt lat="45.01015" lon="5.08879">
        <ele>206</ele>
        <time>2021-09-12T00:41:22Z</time>
      </trkpt>
      <trkpt lat="45.0099" lon="5.08894">
        <ele>206</ele>
        <time>2021-09-12T00:41:27Z</time>
      </trkpt>
      <trkpt lat="45.00978" lon="5.08895">
        <ele>206</ele>
        <time>2021-09-12T00:41:29Z</time>
      </trkpt>
      <trkpt lat="45.00935" lon="5.08893">
        <ele>207</ele>
        <time>2021-09-12T00:41:37Z</time>
      </trkpt>
      <trkpt lat="45.00922" lon="5.08895">
        <ele>207</ele>
        <time>2021-09-12T00:41:39Z</time>
      </trkpt>
      <trkpt lat="45.00893" lon="5.08908">
        <ele>208</ele>
        <time>2021-09-12T00:41:45Z</time>
      </trkpt>
      <trkpt lat="45.00828" lon="5.08944">
        <ele>212</ele>
        <time>2021-09-12T00:41:57Z</time>
      </trkpt>
      <trkpt lat="45.00787" lon="5.08975">
        <ele>213</ele>
        <time>2021-09-12T00:42:05Z</time>
      </trkpt>
      <trkpt lat="45.00723" lon="5.09037">
        <ele>215</ele>
        <time>2021-09-12T00:42:19Z</time>
      </trkpt>
      <trkpt lat="45.0069" lon="5.0906">
        <ele>216</ele>
        <time>2021-09-12T00:42:26Z</time>
      </trkpt>
      <trkpt lat="45.00636" lon="5.09083">
        <ele>217</ele>
        <time>2021-09-12T00:42:36Z</time>
      </trkpt>
      <trkpt lat="45.00521" lon="5.09157">
        <ele>220</ele>
        <time>2021-09-12T00:42:58Z</time>
      </trkpt>
      <trkpt lat="45.00445" lon="5.09216">
        <ele>221</ele>
        <time>2021-09-12T00:43:14Z</time>
      </trkpt>
      <trkpt lat="45.00289" lon="5.09304">
        <ele>224</ele>
        <time>2021-09-12T00:43:43Z</time>
      </trkpt>
      <trkpt lat="45.00022" lon="5.09537">
        <ele>230</ele>
        <time>2021-09-12T00:44:39Z</time>
      </trkpt>
      <trkpt lat="44.99947" lon="5.09599">
        <ele>231</ele>
        <time>2021-09-12T00:44:55Z</time>
      </trkpt>
      <trkpt lat="44.99919" lon="5.09619">
        <ele>232</ele>
        <time>2021-09-12T00:45:00Z</time>
      </trkpt>
      <trkpt lat="44.99837" lon="5.09654">
        <ele>234</ele>
        <time>2021-09-12T00:45:16Z</time>
      </trkpt>
      <trkpt lat="44.99701" lon="5.09739">
        <ele>237</ele>
        <time>2021-09-12T00:45:42Z</time>
      </trkpt>
      <trkpt lat="44.99669" lon="5.09765">
        <ele>238</ele>
        <time>2021-09-12T00:45:49Z</time>
      </trkpt>
      <trkpt lat="44.99509" lon="5.09911">
        <ele>243</ele>
        <time>2021-09-12T00:46:22Z</time>
      </trkpt>
      <trkpt lat="44.9944" lon="5.09964">
        <ele>244</ele>
        <time>2021-09-12T00:46:36Z</time>
      </trkpt>
      <trkpt lat="44.99365" lon="5.10027">
        <ele>246</ele>
        <time>2021-09-12T00:46:52Z</time>
      </trkpt>
      <trkpt lat="44.9919" lon="5.10167">
        <ele>250</ele>
        <time>2021-09-12T00:47:28Z</time>
      </trkpt>
      <trkpt lat="44.99165" lon="5.10183">
        <ele>251</ele>
        <time>2021-09-12T00:47:33Z</time>
      </trkpt>
      <trkpt lat="44.98993" lon="5.10239">
        <ele>255</ele>
        <time>2021-09-12T00:48:04Z</time>
      </trkpt>
      <trkpt lat="44.98955" lon="5.10247">
        <ele>257</ele>
        <time>2021-09-12T00:48:11Z</time>
      </trkpt>
      <trkpt lat="44.98934" lon="5.10241">
        <ele>257</ele>
        <time>2021-09-12T00:48:15Z</time>
      </trkpt>
      <trkpt lat="44.98935" lon="5.10232">
        <ele>257</ele>
        <time>2021-09-12T00:48:16Z</time>
      </trkpt>
      <trkpt lat="44.98931" lon="5.10223">
        <ele>257</ele>
        <time>2021-09-12T00:48:17Z</time>
      </trkpt>
      <trkpt lat="44.98928" lon="5.10219">
        <ele>257</ele>
        <time>2021-09-12T00:48:18Z</time>
      </trkpt>
      <trkpt lat="44.98921" lon="5.10218">
        <ele>257</ele>
        <time>2021-09-12T00:48:19Z</time>
      </trkpt>
      <trkpt lat="44.98915" lon="5.10221">
        <ele>257</ele>
        <time>2021-09-12T00:48:20Z</time>
      </trkpt>
      <trkpt lat="44.98912" lon="5.10227">
        <ele>258</ele>
        <time>2021-09-12T00:48:21Z</time>
      </trkpt>
      <trkpt lat="44.98911" lon="5.1024">
        <ele>258</ele>
        <time>2021-09-12T00:48:23Z</time>
      </trkpt>
      <trkpt lat="44.98916" lon="5.1025">
        <ele>258</ele>
        <time>2021-09-12T00:48:24Z</time>
      </trkpt>
      <trkpt lat="44.9888" lon="5.1032">
        <ele>259</ele>
        <time>2021-09-12T00:48:35Z</time>
      </trkpt>
      <trkpt lat="44.98823" lon="5.10428">
        <ele>262</ele>
        <time>2021-09-12T00:48:52Z</time>
      </trkpt>
      <trkpt lat="44.98762" lon="5.10533">
        <ele>266</ele>
        <time>2021-09-12T00:49:09Z</time>
      </trkpt>
      <trkpt lat="44.98544" lon="5.10712">
        <ele>273</ele>
        <time>2021-09-12T00:49:54Z</time>
      </trkpt>
      <trkpt lat="44.98356" lon="5.10831">
        <ele>278</ele>
        <time>2021-09-12T00:50:31Z</time>
      </trkpt>
      <trkpt lat="44.98271" lon="5.10881">
        <ele>281</ele>
        <time>2021-09-12T00:50:47Z</time>
      </trkpt>
      <trkpt lat="44.98249" lon="5.10905">
        <ele>282</ele>
        <time>2021-09-12T00:50:52Z</time>
      </trkpt>
      <trkpt lat="44.98166" lon="5.11015">
        <ele>285</ele>
        <time>2021-09-12T00:51:12Z</time>
      </trkpt>
      <trkpt lat="44.98116" lon="5.11055">
        <ele>287</ele>
        <time>2021-09-12T00:51:23Z</time>
      </trkpt>
      <trkpt lat="44.97957" lon="5.11255">
        <ele>296</ele>
        <time>2021-09-12T00:52:00Z</time>
      </trkpt>
      <trkpt lat="44.9779" lon="5.1136">
        <ele>302</ele>
        <time>2021-09-12T00:52:33Z</time>
      </trkpt>
      <trkpt lat="44.97723" lon="5.1142">
        <ele>305</ele>
        <time>2021-09-12T00:52:47Z</time>
      </trkpt>
      <trkpt lat="44.97646" lon="5.11533">
        <ele>309</ele>
        <time>2021-09-12T00:53:07Z</time>
      </trkpt>
      <trkpt lat="44.97509" lon="5.11757">
        <ele>319</ele>
        <time>2021-09-12T00:53:44Z</time>
      </trkpt>
      <trkpt lat="44.97478" lon="5.1178">
        <ele>320</ele>
        <time>2021-09-12T00:53:50Z</time>
      </trkpt>
      <trkpt lat="44.97263" lon="5.11855">
        <ele>328</ele>
        <time>2021-09-12T00:54:30Z</time>
      </trkpt>
      <trkpt lat="44.97209" lon="5.11891">
        <ele>330</ele>
        <time>2021-09-12T00:54:40Z</time>
      </trkpt>
      <trkpt lat="44.97082" lon="5.11965">
        <ele>334</ele>
        <time>2021-09-12T00:55:05Z</time>
      </trkpt>
      <trkpt lat="44.96978" lon="5.12029">
        <ele>339</ele>
        <time>2021-09-12T00:55:25Z</time>
      </trkpt>
      <trkpt lat="44.9695" lon="5.12059">
        <ele>340</ele>
        <time>2021-09-12T00:55:31Z</time>
      </trkpt>
      <trkpt lat="44.96885" lon="5.12157">
        <ele>345</ele>
        <time>2021-09-12T00:55:48Z</time>
      </trkpt>
      <trkpt lat="44.9677" lon="5.12318">
        <ele>353</ele>
        <time>2021-09-12T00:56:17Z</time>
      </trkpt>
      <trkpt lat="44.96721" lon="5.12382">
        <ele>356</ele>
        <time>2021-09-12T00:56:29Z</time>
      </trkpt>
      <trkpt lat="44.96657" lon="5.12439">
        <ele>358</ele>
        <time>2021-09-12T00:56:42Z</time>
      </trkpt>
      <trkpt lat="44.96584" lon="5.12508">
        <ele>361</ele>
        <time>2021-09-12T00:56:58Z</time>
      </trkpt>
      <trkpt lat="44.96541" lon="5.12556">
        <ele>366</ele>
        <time>2021-09-12T00:57:08Z</time>
      </trkpt>
      <trkpt lat="44.96474" lon="5.12648">
        <ele>371</ele>
        <time>2021-09-12T00:57:24Z</time>
      </trkpt>
      <trkpt lat="44.96447" lon="5.1267">
        <ele>372</ele>
        <time>2021-09-12T00:57:30Z</time>
      </trkpt>
      <trkpt lat="44.96373" lon="5.12717">
        <ele>376</ele>
        <time>2021-09-12T00:57:44Z</time>
      </trkpt>
      <trkpt lat="44.96252" lon="5.12782">
        <ele>381</ele>
        <time>2021-09-12T00:58:07Z</time>
      </trkpt>
      <trkpt lat="44.96222" lon="5.12811">
        <ele>383</ele>
        <time>2021-09-12T00:58:14Z</time>
      </trkpt>
      <trkpt lat="44.96168" lon="5.12872">
        <ele>387</ele>
        <time>2021-09-12T00:58:26Z</time>
      </trkpt>
      <trkpt lat="44.9612" lon="5.12924">
        <ele>389</ele>
        <time>2021-09-12T00:58:37Z</time>
      </trkpt>
      <trkpt lat="44.9607" lon="5.12989">
        <ele>391</ele>
        <time>2021-09-12T00:58:49Z</time>
      </trkpt>
      <trkpt lat="44.96028" lon="5.13056">
        <ele>394</ele>
        <time>2021-09-12T00:59:00Z</time>
      </trkpt>
      <trkpt lat="44.95967" lon="5.13165">
        <ele>399</ele>
        <time>2021-09-12T00:59:18Z</time>
      </trkpt>
    </trkseg>
  </trk>
</gpx>